Wetterdaten: Samstag, 24.09.2016
Datum Zeit Temp. A. Temp. A. max Feuchte A. Luftdruck Regen Wind Richtung Richtung Sonnenschein ET UV Solar Taupunkt Windben
24.09.2016 00:00 9,4 C 9,4 C 94 % 1026,3 hPa 0,0 mm 0,1 km/h (0 Bft) S 180 0 min 0,000 mm 0,0 UV-I 0 W/m 8,5 C 1,6 km/h (1 Bft)
24.09.2016 00:01 9,4 C 9,4 C 95 % 1026,3 hPa 0,0 mm 0,0 km/h (0 Bft) S 180 0 min 0,000 mm 0,0 UV-I 0 W/m 8,6 C 0,0 km/h (0 Bft)
24.09.2016 00:02 9,4 C 9,4 C 94 % 1026,3 hPa 0,0 mm 0,0 km/h (0 Bft) S 180 0 min 0,000 mm 0,0 UV-I 0 W/m 8,5 C 0,0 km/h (0 Bft)
24.09.2016 00:03 9,4 C 9,4 C 94 % 1026,3 hPa 0,0 mm 0,0 km/h (0 Bft) S 180 0 min 0,000 mm 0,0 UV-I 0 W/m 8,5 C 0,0 km/h (0 Bft)
24.09.2016 00:04 9,4 C 9,4 C 94 % 1026,3 hPa 0,0 mm 0,0 km/h (0 Bft) S 180 0 min 0,000 mm 0,0 UV-I 0 W/m 8,5 C 0,0 km/h (0 Bft)
24.09.2016 00:05 9,4 C 9,4 C 94 % 1026,3 hPa 0,0 mm 0,0 km/h (0 Bft) S 180 0 min 0,000 mm 0,0 UV-I 0 W/m 8,5 C 0,0 km/h (0 Bft)
24.09.2016 00:06 9,5 C 9,5 C 95 % 1026,3 hPa 0,0 mm 0,0 km/h (0 Bft) S 180 0 min 0,000 mm 0,0 UV-I 0 W/m 8,7 C 0,0 km/h (0 Bft)
24.09.2016 00:07 9,6 C 9,6 C 95 % 1026,3 hPa 0,0 mm 0,0 km/h (0 Bft) S 180 0 min 0,000 mm 0,0 UV-I 0 W/m 8,8 C 0,0 km/h (0 Bft)
24.09.2016 00:08 9,6 C 9,6 C 95 % 1026,3 hPa 0,0 mm 0,0 km/h (0 Bft) S 180 0 min 0,000 mm 0,0 UV-I 0 W/m 8,8 C 0,0 km/h (0 Bft)
24.09.2016 00:09 9,5 C 9,6 C 94 % 1026,3 hPa 0,0 mm 0,0 km/h (0 Bft) S 180 0 min 0,000 mm 0,0 UV-I 0 W/m 8,6 C 0,0 km/h (0 Bft)
24.09.2016 00:10 9,4 C 9,5 C 94 % 1026,2 hPa 0,0 mm 0,0 km/h (0 Bft) S 180 0 min 0,000 mm 0,0 UV-I 0 W/m 8,5 C 0,0 km/h (0 Bft)
24.09.2016 00:11 9,4 C 9,4 C 94 % 1026,3 hPa 0,0 mm 0,0 km/h (0 Bft) S 180 0 min 0,000 mm 0,0 UV-I 0 W/m 8,5 C 0,0 km/h (0 Bft)
24.09.2016 00:12 9,4 C 9,4 C 94 % 1026,2 hPa 0,0 mm 0,0 km/h (0 Bft) S 180 0 min 0,000 mm 0,0 UV-I 0 W/m 8,5 C 0,0 km/h (0 Bft)
24.09.2016 00:13 9,3 C 9,4 C 94 % 1026,2 hPa 0,0 mm 0,0 km/h (0 Bft) S 180 0 min 0,000 mm 0,0 UV-I 0 W/m 8,4 C 0,0 km/h (0 Bft)
24.09.2016 00:14 9,2 C 9,3 C 94 % 1026,3 hPa 0,0 mm 0,0 km/h (0 Bft) S 180 0 min 0,000 mm 0,0 UV-I 0 W/m 8,3 C 0,0 km/h (0 Bft)
24.09.2016 00:15 9,2 C 9,2 C 94 % 1026,3 hPa 0,0 mm 0,0 km/h (0 Bft) S 180 0 min 0,000 mm 0,0 UV-I 0 W/m 8,3 C 0,0 km/h (0 Bft)
24.09.2016 00:16 9,2 C 9,2 C 94 % 1026,3 hPa 0,0 mm 0,0 km/h (0 Bft) S 180 0 min 0,000 mm 0,0 UV-I 0 W/m 8,3 C 0,0 km/h (0 Bft)
24.09.2016 00:17 9,1 C 9,2 C 94 % 1026,3 hPa 0,0 mm 0,0 km/h (0 Bft) S 180 0 min 0,000 mm 0,0 UV-I 0 W/m 8,2 C 0,0 km/h (0 Bft)
24.09.2016 00:18 9,1 C 9,1 C 94 % 1026,3 hPa 0,0 mm 0,0 km/h (0 Bft) S 180 0 min 0,000 mm 0,0 UV-I 0 W/m 8,2 C 0,0 km/h (0 Bft)
24.09.2016 00:19 9,1 C 9,1 C 94 % 1026,3 hPa 0,0 mm 0,0 km/h (0 Bft) S 180 0 min 0,000 mm 0,0 UV-I 0 W/m 8,2 C 0,0 km/h (0 Bft)
24.09.2016 00:20 9,1 C 9,1 C 94 % 1026,3 hPa 0,0 mm 0,0 km/h (0 Bft) S 180 0 min 0,000 mm 0,0 UV-I 0 W/m 8,2 C 0,0 km/h (0 Bft)
24.09.2016 00:21 9,1 C 9,1 C 94 % 1026,3 hPa 0,0 mm 0,0 km/h (0 Bft) S 180 0 min 0,000 mm 0,0 UV-I 0 W/m 8,2 C 0,0 km/h (0 Bft)
24.09.2016 00:22 9,1 C 9,1 C 95 % 1026,4 hPa 0,0 mm 0,0 km/h (0 Bft) S 180 0 min 0,000 mm 0,0 UV-I 0 W/m 8,3 C 0,0 km/h (0 Bft)
24.09.2016 00:23 9,1 C 9,1 C 95 % 1026,4 hPa 0,0 mm 0,0 km/h (0 Bft) S 180 0 min 0,000 mm 0,0 UV-I 0 W/m 8,3 C 0,0 km/h (0 Bft)
24.09.2016 00:24 9,0 C 9,1 C 94 % 1026,4 hPa 0,0 mm 0,0 km/h (0 Bft) S 180 0 min 0,000 mm 0,0 UV-I 0 W/m 8,1 C 0,0 km/h (0 Bft)
24.09.2016 00:25 9,0 C 9,0 C 95 % 1026,4 hPa 0,0 mm 1,0 km/h (0 Bft) S 180 0 min 0,000 mm 0,0 UV-I 0 W/m 8,2 C 1,6 km/h (1 Bft)
24.09.2016 00:26 9,0 C 9,0 C 95 % 1026,4 hPa 0,0 mm 1,9 km/h (1 Bft) S 180 0 min 0,000 mm 0,0 UV-I 0 W/m 8,2 C 3,2 km/h (1 Bft)
24.09.2016 00:27 9,1 C 9,1 C 95 % 1026,3 hPa 0,0 mm 1,7 km/h (1 Bft) S 180 0 min 0,000 mm 0,0 UV-I 0 W/m 8,3 C 3,2 km/h (1 Bft)
24.09.2016 00:28 9,2 C 9,2 C 95 % 1026,3 hPa 0,0 mm 1,6 km/h (1 Bft) S 180 0 min 0,000 mm 0,0 UV-I 0 W/m 8,4 C 3,2 km/h (1 Bft)
24.09.2016 00:29 9,2 C 9,2 C 96 % 1026,3 hPa 0,0 mm 0,9 km/h (0 Bft) S 180 0 min 0,000 mm 0,0 UV-I 0 W/m 8,6 C 1,6 km/h (1 Bft)
24.09.2016 00:30 9,2 C 9,2 C 96 % 1026,4 hPa 0,0 mm 0,0 km/h (0 Bft) S 180 0 min 0,000 mm 0,0 UV-I 0 W/m 8,6 C 0,0 km/h (0 Bft)
24.09.2016 00:31 9,1 C 9,2 C 95 % 1026,4 hPa 0,0 mm 0,0 km/h (0 Bft) S 180 0 min 0,000 mm 0,0 UV-I 0 W/m 8,3 C 0,0 km/h (0 Bft)
24.09.2016 00:32 9,1 C 9,2 C 95 % 1026,4 hPa 0,0 mm 0,0 km/h (0 Bft) S 180 0 min 0,000 mm 0,0 UV-I 0 W/m 8,3 C 0,0 km/h (0 Bft)
24.09.2016 00:33 8,9 C 9,1 C 94 % 1026,4 hPa 0,0 mm 0,1 km/h (0 Bft) S 180 0 min 0,000 mm 0,0 UV-I 0 W/m 8,0 C 1,6 km/h (1 Bft)
24.09.2016 00:34 8,9 C 8,9 C 94 % 1026,4 hPa 0,0 mm 0,0 km/h (0 Bft) S 180 0 min 0,000 mm 0,0 UV-I 0 W/m 8,0 C 0,0 km/h (0 Bft)
24.09.2016 00:35 8,8 C 8,9 C 94 % 1026,4 hPa 0,0 mm 0,1 km/h (0 Bft) S 180 0 min 0,000 mm 0,0 UV-I 0 W/m 7,9 C 1,6 km/h (1 Bft)
24.09.2016 00:36 8,8 C 8,8 C 94 % 1026,4 hPa 0,0 mm 0,1 km/h (0 Bft) S 180 0 min 0,000 mm 0,0 UV-I 0 W/m 7,9 C 1,6 km/h (1 Bft)
24.09.2016 00:37 8,8 C 8,8 C 95 % 1026,4 hPa 0,0 mm 0,5 km/h (0 Bft) S 180 0 min 0,000 mm 0,0 UV-I 0 W/m 8,0 C 1,6 km/h (1 Bft)
24.09.2016 00:38 8,8 C 8,8 C 95 % 1026,4 hPa 0,0 mm 1,7 km/h (1 Bft) S 180 0 min 0,000 mm 0,0 UV-I 0 W/m 8,0 C 3,2 km/h (1 Bft)
24.09.2016 00:39 8,9 C 8,9 C 95 % 1026,4 hPa 0,0 mm 2,7 km/h (1 Bft) S 180 0 min 0,000 mm 0,0 UV-I 0 W/m 8,1 C 3,2 km/h (1 Bft)
24.09.2016 00:40 9,0 C 9,0 C 95 % 1026,4 hPa 0,0 mm 2,3 km/h (1 Bft) S 180 0 min 0,000 mm 0,0 UV-I 0 W/m 8,2 C 3,2 km/h (1 Bft)
24.09.2016 00:41 9,1 C 9,1 C 95 % 1026,4 hPa 0,0 mm 1,3 km/h (1 Bft) S 180 0 min 0,000 mm 0,0 UV-I 0 W/m 8,3 C 3,2 km/h (1 Bft)
24.09.2016 00:42 9,1 C 9,1 C 96 % 1026,4 hPa 0,0 mm 0,6 km/h (0 Bft) S 180 0 min 0,000 mm 0,0 UV-I 0 W/m 8,5 C 1,6 km/h (1 Bft)
24.09.2016 00:43 8,9 C 9,1 C 95 % 1026,4 hPa 0,0 mm 0,0 km/h (0 Bft) S 180 0 min 0,000 mm 0,0 UV-I 0 W/m 8,1 C 0,0 km/h (0 Bft)
24.09.2016 00:44 8,9 C 8,9 C 95 % 1026,3 hPa 0,0 mm 0,0 km/h (0 Bft) S 180 0 min 0,000 mm 0,0 UV-I 0 W/m 8,1 C 0,0 km/h (0 Bft)
24.09.2016 00:45 8,9 C 8,9 C 95 % 1026,3 hPa 0,0 mm 1,5 km/h (1 Bft) S 181 0 min 0,000 mm 0,0 UV-I 0 W/m 8,1 C 3,2 km/h (1 Bft)
24.09.2016 00:46 8,8 C 8,9 C 95 % 1026,4 hPa 0,0 mm 1,4 km/h (1 Bft) S 181 0 min 0,000 mm 0,0 UV-I 0 W/m 8,0 C 3,2 km/h (1 Bft)
24.09.2016 00:47 8,8 C 8,8 C 95 % 1026,3 hPa 0,0 mm 0,7 km/h (0 Bft) S 181 0 min 0,000 mm 0,0 UV-I 0 W/m 8,0 C 1,6 km/h (1 Bft)
24.09.2016 00:48 8,7 C 8,8 C 94 % 1026,3 hPa 0,0 mm 0,5 km/h (0 Bft) S 181 0 min 0,000 mm 0,0 UV-I 0 W/m 7,8 C 1,6 km/h (1 Bft)
24.09.2016 00:49 8,7 C 8,7 C 95 % 1026,3 hPa 0,0 mm 1,7 km/h (1 Bft) S 181 0 min 0,000 mm 0,0 UV-I 0 W/m 7,9 C 3,2 km/h (1 Bft)
24.09.2016 00:50 8,8 C 8,8 C 95 % 1026,3 hPa 0,0 mm 0,9 km/h (0 Bft) S 181 0 min 0,000 mm 0,0 UV-I 0 W/m 8,0 C 1,6 km/h (1 Bft)
24.09.2016 00:51 8,8 C 8,8 C 95 % 1026,3 hPa 0,0 mm 1,4 km/h (1 Bft) S 181 0 min 0,000 mm 0,0 UV-I 0 W/m 8,0 C 1,6 km/h (1 Bft)
24.09.2016 00:52 8,9 C 8,9 C 95 % 1026,3 hPa 0,0 mm 0,8 km/h (0 Bft) S 181 0 min 0,000 mm 0,0 UV-I 0 W/m 8,1 C 1,6 km/h (1 Bft)
24.09.2016 00:53 8,9 C 8,9 C 95 % 1026,3 hPa 0,0 mm 0,0 km/h (0 Bft) S 181 0 min 0,000 mm 0,0 UV-I 0 W/m 8,1 C 0,0 km/h (0 Bft)
24.09.2016 00:54 8,9 C 8,9 C 95 % 1026,3 hPa 0,0 mm 0,0 km/h (0 Bft) S 181 0 min 0,000 mm 0,0 UV-I 0 W/m 8,1 C 0,0 km/h (0 Bft)
24.09.2016 00:55 8,9 C 8,9 C 95 % 1026,3 hPa 0,0 mm 0,0 km/h (0 Bft) S 181 0 min 0,000 mm 0,0 UV-I 0 W/m 8,1 C 0,0 km/h (0 Bft)
24.09.2016 00:56 8,9 C 8,9 C 95 % 1026,3 hPa 0,0 mm 0,0 km/h (0 Bft) S 181 0 min 0,000 mm 0,0 UV-I 0 W/m 8,1 C 0,0 km/h (0 Bft)
24.09.2016 00:57 8,8 C 8,9 C 95 % 1026,3 hPa 0,0 mm 0,0 km/h (0 Bft) S 181 0 min 0,000 mm 0,0 UV-I 0 W/m 8,0 C 0,0 km/h (0 Bft)
24.09.2016 00:58 8,7 C 8,8 C 95 % 1026,4 hPa 0,0 mm 0,3 km/h (0 Bft) S 181 0 min 0,000 mm 0,0 UV-I 0 W/m 7,9 C 1,6 km/h (1 Bft)
24.09.2016 00:59 8,6 C 8,7 C 94 % 1026,4 hPa 0,0 mm 0,2 km/h (0 Bft) S 181 0 min 0,000 mm 0,0 UV-I 0 W/m 7,7 C 1,6 km/h (1 Bft)
24.09.2016 01:00 8,4 C 8,6 C 94 % 1026,4 hPa 0,0 mm 0,0 km/h (0 Bft) S 181 0 min 0,000 mm 0,0 UV-I 0 W/m 7,5 C 0,0 km/h (0 Bft)
24.09.2016 01:01 8,3 C 8,4 C 94 % 1026,4 hPa 0,0 mm 0,0 km/h (0 Bft) S 181 0 min 0,000 mm 0,0 UV-I 0 W/m 7,4 C 0,0 km/h (0 Bft)
24.09.2016 01:02 8,3 C 8,3 C 94 % 1026,4 hPa 0,0 mm 0,0 km/h (0 Bft) S 181 0 min 0,000 mm 0,0 UV-I 0 W/m 7,4 C 0,0 km/h (0 Bft)
24.09.2016 01:03 8,3 C 8,3 C 94 % 1026,3 hPa 0,0 mm 0,0 km/h (0 Bft) S 181 0 min 0,000 mm 0,0 UV-I 0 W/m 7,4 C 0,0 km/h (0 Bft)
24.09.2016 01:04 8,3 C 8,3 C 95 % 1026,3 hPa 0,0 mm 0,5 km/h (0 Bft) S 181 0 min 0,000 mm 0,0 UV-I 0 W/m 7,5 C 1,6 km/h (1 Bft)
24.09.2016 01:05 8,3 C 8,3 C 95 % 1026,3 hPa 0,0 mm 0,3 km/h (0 Bft) S 181 0 min 0,000 mm 0,0 UV-I 0 W/m 7,5 C 1,6 km/h (1 Bft)
24.09.2016 01:06 8,3 C 8,3 C 95 % 1026,2 hPa 0,0 mm 0,5 km/h (0 Bft) S 181 0 min 0,000 mm 0,0 UV-I 0 W/m 7,5 C 1,6 km/h (1 Bft)
24.09.2016 01:07 8,4 C 8,4 C 95 % 1026,2 hPa 0,0 mm 0,0 km/h (0 Bft) S 181 0 min 0,000 mm 0,0 UV-I 0 W/m 7,6 C 0,0 km/h (0 Bft)
24.09.2016 01:08 8,4 C 8,4 C 95 % 1026,3 hPa 0,0 mm 0,0 km/h (0 Bft) S 181 0 min 0,000 mm 0,0 UV-I 0 W/m 7,6 C 0,0 km/h (0 Bft)
24.09.2016 01:09 8,4 C 8,4 C 95 % 1026,3 hPa 0,0 mm 0,0 km/h (0 Bft) S 181 0 min 0,000 mm 0,0 UV-I 0 W/m 7,6 C 0,0 km/h (0 Bft)
24.09.2016 01:10 8,3 C 8,4 C 95 % 1026,2 hPa 0,0 mm 0,0 km/h (0 Bft) S 181 0 min 0,000 mm 0,0 UV-I 0 W/m 7,5 C 0,0 km/h (0 Bft)
24.09.2016 01:11 8,3 C 8,3 C 95 % 1026,2 hPa 0,0 mm 0,0 km/h (0 Bft) S 181 0 min 0,000 mm 0,0 UV-I 0 W/m 7,5 C 0,0 km/h (0 Bft)
24.09.2016 01:12 8,2 C 8,3 C 94 % 1026,3 hPa 0,0 mm 0,0 km/h (0 Bft) S 181 0 min 0,000 mm 0,0 UV-I 0 W/m 7,3 C 0,0 km/h (0 Bft)
24.09.2016 01:13 8,1 C 8,2 C 94 % 1026,2 hPa 0,0 mm 0,0 km/h (0 Bft) S 181 0 min 0,000 mm 0,0 UV-I 0 W/m 7,2 C 0,0 km/h (0 Bft)
24.09.2016 01:14 8,1 C 8,1 C 94 % 1026,2 hPa 0,0 mm 0,0 km/h (0 Bft) S 181 0 min 0,000 mm 0,0 UV-I 0 W/m 7,2 C 0,0 km/h (0 Bft)
24.09.2016 01:15 7,9 C 8,1 C 95 % 1026,2 hPa 0,0 mm 0,0 km/h (0 Bft) S 181 0 min 0,000 mm 0,0 UV-I 0 W/m 7,1 C 0,0 km/h (0 Bft)
24.09.2016 01:16 8,0 C 8,0 C 95 % 1026,3 hPa 0,0 mm 0,0 km/h (0 Bft) S 181 0 min 0,000 mm 0,0 UV-I 0 W/m 7,2 C 0,0 km/h (0 Bft)
24.09.2016 01:17 8,0 C 8,0 C 95 % 1026,3 hPa 0,0 mm 0,0 km/h (0 Bft) S 181 0 min 0,000 mm 0,0 UV-I 0 W/m 7,2 C 0,0 km/h (0 Bft)
24.09.2016 01:18 8,1 C 8,1 C 95 % 1026,3 hPa 0,0 mm 0,0 km/h (0 Bft) S 181 0 min 0,000 mm 0,0 UV-I 0 W/m 7,3 C 0,0 km/h (0 Bft)
24.09.2016 01:19 8,1 C 8,1 C 95 % 1026,2 hPa 0,0 mm 0,0 km/h (0 Bft) S 181 0 min 0,000 mm 0,0 UV-I 0 W/m 7,3 C 0,0 km/h (0 Bft)
24.09.2016 01:20 8,1 C 8,1 C 95 % 1026,2 hPa 0,0 mm 0,0 km/h (0 Bft) S 181 0 min 0,000 mm 0,0 UV-I 0 W/m 7,3 C 0,0 km/h (0 Bft)
24.09.2016 01:21 8,1 C 8,1 C 95 % 1026,2 hPa 0,0 mm 0,0 km/h (0 Bft) S 181 0 min 0,000 mm 0,0 UV-I 0 W/m 7,3 C 0,0 km/h (0 Bft)
24.09.2016 01:22 8,1 C 8,1 C 96 % 1026,2 hPa 0,0 mm 0,0 km/h (0 Bft) S 181 0 min 0,000 mm 0,0 UV-I 0 W/m 7,5 C 0,0 km/h (0 Bft)
24.09.2016 01:23 8,1 C 8,1 C 96 % 1026,2 hPa 0,0 mm 0,0 km/h (0 Bft) S 181 0 min 0,000 mm 0,0 UV-I 0 W/m 7,5 C 0,0 km/h (0 Bft)
24.09.2016 01:24 8,1 C 8,1 C 95 % 1026,2 hPa 0,0 mm 0,0 km/h (0 Bft) S 181 0 min 0,000 mm 0,0 UV-I 0 W/m 7,3 C 0,0 km/h (0 Bft)
24.09.2016 01:25 8,1 C 8,1 C 96 % 1026,2 hPa 0,0 mm 0,0 km/h (0 Bft) S 181 0 min 0,000 mm 0,0 UV-I 0 W/m 7,5 C 0,0 km/h (0 Bft)
24.09.2016 01:26 8,1 C 8,1 C 96 % 1026,2 hPa 0,0 mm 0,3 km/h (0 Bft) S 181 0 min 0,000 mm 0,0 UV-I 0 W/m 7,5 C 1,6 km/h (1 Bft)
24.09.2016 01:27 8,1 C 8,1 C 96 % 1026,2 hPa 0,0 mm 1,4 km/h (1 Bft) S 182 0 min 0,000 mm 0,0 UV-I 0 W/m 7,5 C 3,2 km/h (1 Bft)
24.09.2016 01:28 8,1 C 8,1 C 95 % 1026,2 hPa 0,0 mm 0,5 km/h (0 Bft) S 182 0 min 0,000 mm 0,0 UV-I 0 W/m 7,3 C 1,6 km/h (1 Bft)
24.09.2016 01:29 8,1 C 8,1 C 95 % 1026,2 hPa 0,0 mm 1,1 km/h (1 Bft) S 182 0 min 0,000 mm 0,0 UV-I 0 W/m 7,3 C 1,6 km/h (1 Bft)
24.09.2016 01:30 8,0 C 8,1 C 95 % 1026,3 hPa 0,0 mm 0,7 km/h (0 Bft) S 182 0 min 0,000 mm 0,0 UV-I 0 W/m 7,2 C 1,6 km/h (1 Bft)
24.09.2016 01:31 8,0 C 8,0 C 95 % 1026,3 hPa 0,0 mm 0,0 km/h (0 Bft) S 182 0 min 0,000 mm 0,0 UV-I 0 W/m 7,2 C 0,0 km/h (0 Bft)
24.09.2016 01:32 7,9 C 8,0 C 95 % 1026,2 hPa 0,0 mm 0,1 km/h (0 Bft) S 182 0 min 0,000 mm 0,0 UV-I 0 W/m 7,1 C 1,6 km/h (1 Bft)
24.09.2016 01:33 7,9 C 7,9 C 95 % 1026,3 hPa 0,0 mm 0,1 km/h (0 Bft) S 182 0 min 0,000 mm 0,0 UV-I 0 W/m 7,1 C 1,6 km/h (1 Bft)
24.09.2016 01:34 7,8 C 7,9 C 95 % 1026,3 hPa 0,0 mm 0,0 km/h (0 Bft) S 182 0 min 0,000 mm 0,0 UV-I 0 W/m 7,0 C 0,0 km/h (0 Bft)
24.09.2016 01:35 7,7 C 7,8 C 95 % 1026,3 hPa 0,0 mm 0,5 km/h (0 Bft) S 182 0 min 0,000 mm 0,0 UV-I 0 W/m 7,0 C 1,6 km/h (1 Bft)
24.09.2016 01:36 7,7 C 7,8 C 95 % 1026,3 hPa 0,0 mm 0,0 km/h (0 Bft) S 182 0 min 0,000 mm 0,0 UV-I 0 W/m 7,0 C 0,0 km/h (0 Bft)
24.09.2016 01:37 7,6 C 7,7 C 95 % 1026,3 hPa 0,0 mm 0,0 km/h (0 Bft) S 182 0 min 0,000 mm 0,0 UV-I 0 W/m 6,9 C 0,0 km/h (0 Bft)
24.09.2016 01:38 7,6 C 7,6 C 95 % 1026,3 hPa 0,0 mm 0,0 km/h (0 Bft) S 182 0 min 0,000 mm 0,0 UV-I 0 W/m 6,9 C 0,0 km/h (0 Bft)
24.09.2016 01:39 7,6 C 7,7 C 95 % 1026,3 hPa 0,0 mm 0,0 km/h (0 Bft) S 182 0 min 0,000 mm 0,0 UV-I 0 W/m 6,9 C 0,0 km/h (0 Bft)
24.09.2016 01:40 7,7 C 7,7 C 95 % 1026,2 hPa 0,0 mm 0,0 km/h (0 Bft) S 182 0 min 0,000 mm 0,0 UV-I 0 W/m 7,0 C 0,0 km/h (0 Bft)
24.09.2016 01:41 7,7 C 7,7 C 95 % 1026,2 hPa 0,0 mm 0,0 km/h (0 Bft) S 182 0 min 0,000 mm 0,0 UV-I 0 W/m 7,0 C 0,0 km/h (0 Bft)
24.09.2016 01:42 7,8 C 7,8 C 96 % 1026,3 hPa 0,0 mm 0,0 km/h (0 Bft) S 182 0 min 0,000 mm 0,0 UV-I 0 W/m 7,2 C 0,0 km/h (0 Bft)
24.09.2016 01:43 7,8 C 7,8 C 96 % 1026,2 hPa 0,0 mm 0,0 km/h (0 Bft) S 182 0 min 0,000 mm 0,0 UV-I 0 W/m 7,2 C 0,0 km/h (0 Bft)
24.09.2016 01:44 7,8 C 7,8 C 96 % 1026,3 hPa 0,0 mm 0,0 km/h (0 Bft) S 182 0 min 0,000 mm 0,0 UV-I 0 W/m 7,2 C 0,0 km/h (0 Bft)
24.09.2016 01:45 7,8 C 7,9 C 96 % 1026,2 hPa 0,0 mm 0,0 km/h (0 Bft) S 182 0 min 0,000 mm 0,0 UV-I 0 W/m 7,2 C 0,0 km/h (0 Bft)
24.09.2016 01:46 7,7 C 7,8 C 96 % 1026,3 hPa 0,0 mm 0,0 km/h (0 Bft) S 182 0 min 0,000 mm 0,0 UV-I 0 W/m 7,1 C 0,0 km/h (0 Bft)
24.09.2016 01:47 7,7 C 7,7 C 96 % 1026,3 hPa 0,0 mm 0,0 km/h (0 Bft) S 182 0 min 0,000 mm 0,0 UV-I 0 W/m 7,1 C 0,0 km/h (0 Bft)
24.09.2016 01:48 7,6 C 7,7 C 95 % 1026,2 hPa 0,0 mm 0,0 km/h (0 Bft) S 182 0 min 0,000 mm 0,0 UV-I 0 W/m 6,9 C 0,0 km/h (0 Bft)
24.09.2016 01:49 7,6 C 7,6 C 95 % 1026,2 hPa 0,0 mm 0,0 km/h (0 Bft) S 182 0 min 0,000 mm 0,0 UV-I 0 W/m 6,9 C 0,0 km/h (0 Bft)
24.09.2016 01:50 7,6 C 7,6 C 95 % 1026,2 hPa 0,0 mm 0,0 km/h (0 Bft) S 182 0 min 0,000 mm 0,0 UV-I 0 W/m 6,9 C 0,0 km/h (0 Bft)
24.09.2016 01:51 7,6 C 7,6 C 96 % 1026,2 hPa 0,0 mm 0,0 km/h (0 Bft) S 182 0 min 0,000 mm 0,0 UV-I 0 W/m 7,0 C 0,0 km/h (0 Bft)
24.09.2016 01:52 7,6 C 7,6 C 96 % 1026,2 hPa 0,0 mm 0,0 km/h (0 Bft) S 182 0 min 0,000 mm 0,0 UV-I 0 W/m 7,0 C 0,0 km/h (0 Bft)
24.09.2016 01:53 7,6 C 7,6 C 96 % 1026,2 hPa 0,0 mm 0,0 km/h (0 Bft) S 182 0 min 0,000 mm 0,0 UV-I 0 W/m 7,0 C 0,0 km/h (0 Bft)
24.09.2016 01:54 7,6 C 7,6 C 96 % 1026,2 hPa 0,0 mm 0,0 km/h (0 Bft) S 182 0 min 0,000 mm 0,0 UV-I 0 W/m 7,0 C 0,0 km/h (0 Bft)
24.09.2016 01:55 7,7 C 7,7 C 96 % 1026,2 hPa 0,0 mm 0,0 km/h (0 Bft) S 182 0 min 0,000 mm 0,0 UV-I 0 W/m 7,1 C 0,0 km/h (0 Bft)
24.09.2016 01:56 7,7 C 7,7 C 96 % 1026,1 hPa 0,0 mm 0,0 km/h (0 Bft) S 182 0 min 0,000 mm 0,0 UV-I 0 W/m 7,1 C 0,0 km/h (0 Bft)
24.09.2016 01:57 7,8 C 7,8 C 96 % 1026,1 hPa 0,0 mm 0,0 km/h (0 Bft) S 182 0 min 0,000 mm 0,0 UV-I 0 W/m 7,2 C 0,0 km/h (0 Bft)
24.09.2016 01:58 7,8 C 7,8 C 96 % 1026,1 hPa 0,0 mm 0,0 km/h (0 Bft) S 182 0 min 0,000 mm 0,0 UV-I 0 W/m 7,2 C 0,0 km/h (0 Bft)
24.09.2016 01:59 7,8 C 7,8 C 96 % 1026,1 hPa 0,0 mm 0,0 km/h (0 Bft) S 182 0 min 0,000 mm 0,0 UV-I 0 W/m 7,2 C 0,0 km/h (0 Bft)
24.09.2016 02:00 7,9 C 7,9 C 96 % 1026,1 hPa 0,0 mm 0,0 km/h (0 Bft) S 182 0 min 0,000 mm 0,0 UV-I 0 W/m 7,3 C 0,0 km/h (0 Bft)
24.09.2016 02:01 7,8 C 7,9 C 96 % 1026,1 hPa 0,0 mm 0,0 km/h (0 Bft) S 182 0 min 0,000 mm 0,0 UV-I 0 W/m 7,2 C 0,0 km/h (0 Bft)
24.09.2016 02:02 7,8 C 7,8 C 96 % 1026,1 hPa 0,0 mm 0,0 km/h (0 Bft) S 182 0 min 0,000 mm 0,0 UV-I 0 W/m 7,2 C 0,0 km/h (0 Bft)
24.09.2016 02:03 7,7 C 7,8 C 96 % 1026,1 hPa 0,0 mm 0,9 km/h (0 Bft) S 182 0 min 0,000 mm 0,0 UV-I 0 W/m 7,1 C 1,6 km/h (1 Bft)
24.09.2016 02:04 7,6 C 7,7 C 95 % 1026,1 hPa 0,0 mm 0,4 km/h (0 Bft) S 182 0 min 0,000 mm 0,0 UV-I 0 W/m 6,9 C 1,6 km/h (1 Bft)
24.09.2016 02:05 7,5 C 7,6 C 95 % 1026,1 hPa 0,0 mm 0,0 km/h (0 Bft) S 182 0 min 0,000 mm 0,0 UV-I 0 W/m 6,8 C 0,0 km/h (0 Bft)
24.09.2016 02:06 7,4 C 7,6 C 96 % 1026,1 hPa 0,0 mm 0,1 km/h (0 Bft) S 182 0 min 0,000 mm 0,0 UV-I 0 W/m 6,8 C 1,6 km/h (1 Bft)
24.09.2016 02:07 7,4 C 7,4 C 96 % 1026,1 hPa 0,0 mm 0,0 km/h (0 Bft) S 182 0 min 0,000 mm 0,0 UV-I 0 W/m 6,8 C 0,0 km/h (0 Bft)
24.09.2016 02:08 7,4 C 7,4 C 96 % 1026,1 hPa 0,0 mm 0,0 km/h (0 Bft) S 182 0 min 0,000 mm 0,0 UV-I 0 W/m 6,8 C 0,0 km/h (0 Bft)
24.09.2016 02:09 7,5 C 7,5 C 96 % 1026,1 hPa 0,0 mm 0,0 km/h (0 Bft) S 182 0 min 0,000 mm 0,0 UV-I 0 W/m 6,9 C 0,0 km/h (0 Bft)
24.09.2016 02:10 7,5 C 7,5 C 96 % 1026,1 hPa 0,0 mm 0,0 km/h (0 Bft) S 182 0 min 0,000 mm 0,0 UV-I 0 W/m 6,9 C 0,0 km/h (0 Bft)
24.09.2016 02:11 7,6 C 7,6 C 96 % 1026,1 hPa 0,0 mm 0,0 km/h (0 Bft) S 182 0 min 0,000 mm 0,0 UV-I 0 W/m 7,0 C 0,0 km/h (0 Bft)
24.09.2016 02:12 7,6 C 7,6 C 96 % 1026,1 hPa 0,0 mm 0,0 km/h (0 Bft) S 182 0 min 0,000 mm 0,0 UV-I 0 W/m 7,0 C 0,0 km/h (0 Bft)
24.09.2016 02:13 7,6 C 7,7 C 96 % 1026,1 hPa 0,0 mm 0,0 km/h (0 Bft) S 182 0 min 0,000 mm 0,0 UV-I 0 W/m 7,0 C 0,0 km/h (0 Bft)
24.09.2016 02:14 7,7 C 7,7 C 96 % 1026,1 hPa 0,0 mm 0,0 km/h (0 Bft) S 182 0 min 0,000 mm 0,0 UV-I 0 W/m 7,1 C 0,0 km/h (0 Bft)
24.09.2016 02:15 7,6 C 7,7 C 96 % 1026,1 hPa 0,0 mm 0,0 km/h (0 Bft) S 182 0 min 0,000 mm 0,0 UV-I 0 W/m 7,0 C 0,0 km/h (0 Bft)
24.09.2016 02:16 7,7 C 7,7 C 96 % 1026,1 hPa 0,0 mm 0,0 km/h (0 Bft) S 182 0 min 0,000 mm 0,0 UV-I 0 W/m 7,1 C 0,0 km/h (0 Bft)
24.09.2016 02:17 7,7 C 7,7 C 96 % 1026,1 hPa 0,0 mm 0,0 km/h (0 Bft) S 182 0 min 0,000 mm 0,0 UV-I 0 W/m 7,1 C 0,0 km/h (0 Bft)
24.09.2016 02:18 7,7 C 7,7 C 96 % 1026,1 hPa 0,0 mm 0,1 km/h (0 Bft) S 182 0 min 0,000 mm 0,0 UV-I 0 W/m 7,1 C 1,6 km/h (1 Bft)
24.09.2016 02:19 7,6 C 7,7 C 96 % 1026,1 hPa 0,0 mm 1,4 km/h (1 Bft) S 181 0 min 0,000 mm 0,0 UV-I 0 W/m 7,0 C 3,2 km/h (1 Bft)
24.09.2016 02:20 7,4 C 7,6 C 96 % 1026,1 hPa 0,0 mm 0,5 km/h (0 Bft) S 181 0 min 0,000 mm 0,0 UV-I 0 W/m 6,8 C 1,6 km/h (1 Bft)
24.09.2016 02:21 7,4 C 7,5 C 96 % 1026,1 hPa 0,0 mm 0,0 km/h (0 Bft) S 181 0 min 0,000 mm 0,0 UV-I 0 W/m 6,8 C 0,0 km/h (0 Bft)
24.09.2016 02:22 7,4 C 7,4 C 96 % 1026,1 hPa 0,0 mm 0,1 km/h (0 Bft) S 181 0 min 0,000 mm 0,0 UV-I 0 W/m 6,8 C 1,6 km/h (1 Bft)
24.09.2016 02:23 7,4 C 7,4 C 96 % 1026,0 hPa 0,0 mm 0,0 km/h (0 Bft) S 181 0 min 0,000 mm 0,0 UV-I 0 W/m 6,8 C 0,0 km/h (0 Bft)
24.09.2016 02:24 7,4 C 7,4 C 96 % 1026,1 hPa 0,0 mm 0,0 km/h (0 Bft) S 181 0 min 0,000 mm 0,0 UV-I 0 W/m 6,8 C 0,0 km/h (0 Bft)
24.09.2016 02:25 7,4 C 7,5 C 96 % 1026,1 hPa 0,0 mm 0,0 km/h (0 Bft) S 182 0 min 0,000 mm 0,0 UV-I 0 W/m 6,8 C 0,0 km/h (0 Bft)
24.09.2016 02:26 7,6 C 7,6 C 96 % 1026,0 hPa 0,0 mm 0,0 km/h (0 Bft) S 181 0 min 0,000 mm 0,0 UV-I 0 W/m 7,0 C 0,0 km/h (0 Bft)
24.09.2016 02:27 7,6 C 7,6 C 96 % 1026,0 hPa 0,0 mm 0,0 km/h (0 Bft) S 182 0 min 0,000 mm 0,0 UV-I 0 W/m 7,0 C 0,0 km/h (0 Bft)
24.09.2016 02:28 7,6 C 7,6 C 96 % 1026,0 hPa 0,0 mm 0,0 km/h (0 Bft) S 181 0 min 0,000 mm 0,0 UV-I 0 W/m 7,0 C 0,0 km/h (0 Bft)
24.09.2016 02:29 7,6 C 7,6 C 96 % 1026,0 hPa 0,0 mm 0,0 km/h (0 Bft) S 181 0 min 0,000 mm 0,0 UV-I 0 W/m 7,0 C 0,0 km/h (0 Bft)
24.09.2016 02:30 7,6 C 7,6 C 96 % 1026,0 hPa 0,0 mm 0,0 km/h (0 Bft) S 181 0 min 0,000 mm 0,0 UV-I 0 W/m 7,0 C 0,0 km/h (0 Bft)
24.09.2016 02:31 7,6 C 7,6 C 96 % 1026,0 hPa 0,0 mm 0,0 km/h (0 Bft) S 181 0 min 0,000 mm 0,0 UV-I 0 W/m 7,0 C 0,0 km/h (0 Bft)
24.09.2016 02:32 7,4 C 7,6 C 96 % 1026,0 hPa 0,0 mm 0,0 km/h (0 Bft) S 181 0 min 0,000 mm 0,0 UV-I 0 W/m 6,8 C 0,0 km/h (0 Bft)
24.09.2016 02:33 7,4 C 7,4 C 96 % 1026,0 hPa 0,0 mm 0,0 km/h (0 Bft) S 182 0 min 0,000 mm 0,0 UV-I 0 W/m 6,8 C 0,0 km/h (0 Bft)
24.09.2016 02:34 7,4 C 7,4 C 96 % 1026,0 hPa 0,0 mm 0,0 km/h (0 Bft) S 181 0 min 0,000 mm 0,0 UV-I 0 W/m 6,8 C 0,0 km/h (0 Bft)
24.09.2016 02:35 7,4 C 7,4 C 96 % 1026,0 hPa 0,0 mm 0,0 km/h (0 Bft) S 181 0 min 0,000 mm 0,0 UV-I 0 W/m 6,8 C 0,0 km/h (0 Bft)
24.09.2016 02:36 7,4 C 7,4 C 96 % 1026,0 hPa 0,0 mm 0,0 km/h (0 Bft) S 181 0 min 0,000 mm 0,0 UV-I 0 W/m 6,8 C 0,0 km/h (0 Bft)
24.09.2016 02:37 7,4 C 7,4 C 96 % 1026,0 hPa 0,0 mm 0,0 km/h (0 Bft) S 181 0 min 0,000 mm 0,0 UV-I 0 W/m 6,8 C 0,0 km/h (0 Bft)
24.09.2016 02:38 7,4 C 7,4 C 96 % 1026,0 hPa 0,0 mm 0,0 km/h (0 Bft) S 181 0 min 0,000 mm 0,0 UV-I 0 W/m 6,8 C 0,0 km/h (0 Bft)
24.09.2016 02:39 7,4 C 7,4 C 96 % 1026,0 hPa 0,0 mm 0,0 km/h (0 Bft) S 181 0 min 0,000 mm 0,0 UV-I 0 W/m 6,8 C 0,0 km/h (0 Bft)
24.09.2016 02:40 7,4 C 7,4 C 96 % 1026,0 hPa 0,0 mm 0,0 km/h (0 Bft) S 181 0 min 0,000 mm 0,0 UV-I 0 W/m 6,8 C 0,0 km/h (0 Bft)
24.09.2016 02:41 7,4 C 7,4 C 96 % 1026,0 hPa 0,0 mm 0,0 km/h (0 Bft) S 182 0 min 0,000 mm 0,0 UV-I 0 W/m 6,8 C 0,0 km/h (0 Bft)
24.09.2016 02:42 7,4 C 7,4 C 96 % 1026,0 hPa 0,0 mm 0,0 km/h (0 Bft) S 181 0 min 0,000 mm 0,0 UV-I 0 W/m 6,8 C 0,0 km/h (0 Bft)
24.09.2016 02:43 7,4 C 7,4 C 96 % 1026,0 hPa 0,0 mm 0,0 km/h (0 Bft) S 181 0 min 0,000 mm 0,0 UV-I 0 W/m 6,8 C 0,0 km/h (0 Bft)
24.09.2016 02:44 7,4 C 7,4 C 96 % 1026,0 hPa 0,0 mm 0,0 km/h (0 Bft) S 181 0 min 0,000 mm 0,0 UV-I 0 W/m 6,8 C 0,0 km/h (0 Bft)
24.09.2016 02:45 7,4 C 7,4 C 96 % 1026,0 hPa 0,0 mm 0,0 km/h (0 Bft) S 181 0 min 0,000 mm 0,0 UV-I 0 W/m 6,8 C 0,0 km/h (0 Bft)
24.09.2016 02:46 7,4 C 7,4 C 96 % 1026,0 hPa 0,0 mm 0,0 km/h (0 Bft) S 181 0 min 0,000 mm 0,0 UV-I 0 W/m 6,8 C 0,0 km/h (0 Bft)
24.09.2016 02:47 7,4 C 7,4 C 96 % 1026,0 hPa 0,0 mm 0,0 km/h (0 Bft) S 181 0 min 0,000 mm 0,0 UV-I 0 W/m 6,8 C 0,0 km/h (0 Bft)
24.09.2016 02:48 7,4 C 7,4 C 96 % 1025,9 hPa 0,0 mm 0,0 km/h (0 Bft) S 181 0 min 0,000 mm 0,0 UV-I 0 W/m 6,8 C 0,0 km/h (0 Bft)
24.09.2016 02:49 7,4 C 7,4 C 96 % 1025,9 hPa 0,0 mm 0,0 km/h (0 Bft) S 181 0 min 0,000 mm 0,0 UV-I 0 W/m 6,8 C 0,0 km/h (0 Bft)
24.09.2016 02:50 7,4 C 7,4 C 96 % 1025,9 hPa 0,0 mm 0,0 km/h (0 Bft) S 181 0 min 0,000 mm 0,0 UV-I 0 W/m 6,8 C 0,0 km/h (0 Bft)
24.09.2016 02:51 7,4 C 7,4 C 96 % 1025,9 hPa 0,0 mm 0,0 km/h (0 Bft) S 181 0 min 0,000 mm 0,0 UV-I 0 W/m 6,8 C 0,0 km/h (0 Bft)
24.09.2016 02:52 7,4 C 7,4 C 96 % 1025,9 hPa 0,0 mm 0,0 km/h (0 Bft) S 181 0 min 0,000 mm 0,0 UV-I 0 W/m 6,8 C 0,0 km/h (0 Bft)
24.09.2016 02:53 7,4 C 7,4 C 96 % 1025,9 hPa 0,0 mm 0,0 km/h (0 Bft) S 181 0 min 0,000 mm 0,0 UV-I 0 W/m 6,8 C 0,0 km/h (0 Bft)
24.09.2016 02:54 7,3 C 7,4 C 96 % 1025,9 hPa 0,0 mm 0,0 km/h (0 Bft) S 181 0 min 0,000 mm 0,0 UV-I 0 W/m 6,7 C 0,0 km/h (0 Bft)
24.09.2016 02:55 7,3 C 7,3 C 96 % 1025,9 hPa 0,0 mm 0,0 km/h (0 Bft) S 182 0 min 0,000 mm 0,0 UV-I 0 W/m 6,7 C 0,0 km/h (0 Bft)
24.09.2016 02:56 7,2 C 7,3 C 96 % 1025,9 hPa 0,0 mm 0,0 km/h (0 Bft) S 181 0 min 0,000 mm 0,0 UV-I 0 W/m 6,6 C 0,0 km/h (0 Bft)
24.09.2016 02:57 7,2 C 7,3 C 96 % 1025,9 hPa 0,0 mm 0,0 km/h (0 Bft) S 181 0 min 0,000 mm 0,0 UV-I 0 W/m 6,6 C 0,0 km/h (0 Bft)
24.09.2016 02:58 7,2 C 7,2 C 96 % 1025,8 hPa 0,0 mm 0,0 km/h (0 Bft) S 181 0 min 0,000 mm 0,0 UV-I 0 W/m 6,6 C 0,0 km/h (0 Bft)
24.09.2016 02:59 7,2 C 7,2 C 96 % 1025,8 hPa 0,0 mm 0,0 km/h (0 Bft) S 181 0 min 0,000 mm 0,0 UV-I 0 W/m 6,6 C 0,0 km/h (0 Bft)
24.09.2016 03:00 7,2 C 7,2 C 96 % 1025,8 hPa 0,0 mm 0,0 km/h (0 Bft) S 181 0 min 0,000 mm 0,0 UV-I 0 W/m 6,6 C 0,0 km/h (0 Bft)
24.09.2016 03:01 7,1 C 7,2 C 96 % 1025,9 hPa 0,0 mm 0,0 km/h (0 Bft) S 182 0 min 0,000 mm 0,0 UV-I 0 W/m 6,5 C 0,0 km/h (0 Bft)
24.09.2016 03:02 7,1 C 7,2 C 96 % 1025,8 hPa 0,0 mm 0,0 km/h (0 Bft) S 182 0 min 0,000 mm 0,0 UV-I 0 W/m 6,5 C 0,0 km/h (0 Bft)
24.09.2016 03:03 7,1 C 7,1 C 96 % 1025,7 hPa 0,0 mm 0,0 km/h (0 Bft) S 181 0 min 0,000 mm 0,0 UV-I 0 W/m 6,5 C 0,0 km/h (0 Bft)
24.09.2016 03:04 7,1 C 7,1 C 96 % 1025,8 hPa 0,0 mm 0,0 km/h (0 Bft) S 181 0 min 0,000 mm 0,0 UV-I 0 W/m 6,5 C 0,0 km/h (0 Bft)
24.09.2016 03:05 7,0 C 7,1 C 96 % 1025,9 hPa 0,0 mm 0,0 km/h (0 Bft) S 181 0 min 0,000 mm 0,0 UV-I 0 W/m 6,4 C 0,0 km/h (0 Bft)
24.09.2016 03:06 7,0 C 7,1 C 96 % 1025,8 hPa 0,0 mm 0,0 km/h (0 Bft) S 181 0 min 0,000 mm 0,0 UV-I 0 W/m 6,4 C 0,0 km/h (0 Bft)
24.09.2016 03:07 7,0 C 7,1 C 96 % 1025,8 hPa 0,0 mm 0,0 km/h (0 Bft) S 182 0 min 0,000 mm 0,0 UV-I 0 W/m 6,4 C 0,0 km/h (0 Bft)
24.09.2016 03:08 6,9 C 7,0 C 96 % 1025,8 hPa 0,0 mm 0,0 km/h (0 Bft) S 181 0 min 0,000 mm 0,0 UV-I 0 W/m 6,3 C 0,0 km/h (0 Bft)
24.09.2016 03:09 6,9 C 6,9 C 96 % 1025,8 hPa 0,0 mm 0,0 km/h (0 Bft) S 181 0 min 0,000 mm 0,0 UV-I 0 W/m 6,3 C 0,0 km/h (0 Bft)
24.09.2016 03:10 7,0 C 7,0 C 96 % 1025,8 hPa 0,0 mm 0,0 km/h (0 Bft) S 181 0 min 0,000 mm 0,0 UV-I 0 W/m 6,4 C 0,0 km/h (0 Bft)
24.09.2016 03:11 7,1 C 7,1 C 96 % 1025,8 hPa 0,0 mm 0,0 km/h (0 Bft) S 181 0 min 0,000 mm 0,0 UV-I 0 W/m 6,5 C 0,0 km/h (0 Bft)
24.09.2016 03:12 7,0 C 7,1 C 96 % 1025,8 hPa 0,0 mm 0,0 km/h (0 Bft) S 181 0 min 0,000 mm 0,0 UV-I 0 W/m 6,4 C 0,0 km/h (0 Bft)
24.09.2016 03:13 7,1 C 7,1 C 96 % 1025,7 hPa 0,0 mm 0,0 km/h (0 Bft) S 181 0 min 0,000 mm 0,0 UV-I 0 W/m 6,5 C 0,0 km/h (0 Bft)
24.09.2016 03:14 7,1 C 7,1 C 96 % 1025,8 hPa 0,0 mm 0,0 km/h (0 Bft) S 181 0 min 0,000 mm 0,0 UV-I 0 W/m 6,5 C 0,0 km/h (0 Bft)
24.09.2016 03:15 7,2 C 7,2 C 96 % 1025,8 hPa 0,0 mm 0,0 km/h (0 Bft) S 181 0 min 0,000 mm 0,0 UV-I 0 W/m 6,6 C 0,0 km/h (0 Bft)
24.09.2016 03:16 7,1 C 7,2 C 96 % 1025,7 hPa 0,0 mm 0,0 km/h (0 Bft) S 181 0 min 0,000 mm 0,0 UV-I 0 W/m 6,5 C 0,0 km/h (0 Bft)
24.09.2016 03:17 7,1 C 7,1 C 96 % 1025,7 hPa 0,0 mm 0,0 km/h (0 Bft) S 181 0 min 0,000 mm 0,0 UV-I 0 W/m 6,5 C 0,0 km/h (0 Bft)
24.09.2016 03:18 7,1 C 7,1 C 96 % 1025,8 hPa 0,0 mm 0,0 km/h (0 Bft) S 181 0 min 0,000 mm 0,0 UV-I 0 W/m 6,5 C 0,0 km/h (0 Bft)
24.09.2016 03:19 6,9 C 7,1 C 96 % 1025,8 hPa 0,0 mm 0,0 km/h (0 Bft) S 181 0 min 0,000 mm 0,0 UV-I 0 W/m 6,3 C 0,0 km/h (0 Bft)
24.09.2016 03:20 6,8 C 6,9 C 96 % 1025,8 hPa 0,0 mm 0,0 km/h (0 Bft) S 181 0 min 0,000 mm 0,0 UV-I 0 W/m 6,2 C 0,0 km/h (0 Bft)
24.09.2016 03:21 6,8 C 6,8 C 96 % 1025,8 hPa 0,0 mm 0,0 km/h (0 Bft) S 181 0 min 0,000 mm 0,0 UV-I 0 W/m 6,2 C 0,0 km/h (0 Bft)
24.09.2016 03:22 6,8 C 6,8 C 96 % 1025,8 hPa 0,0 mm 0,0 km/h (0 Bft) S 181 0 min 0,000 mm 0,0 UV-I 0 W/m 6,2 C 0,0 km/h (0 Bft)
24.09.2016 03:23 6,8 C 6,8 C 96 % 1025,8 hPa 0,0 mm 0,0 km/h (0 Bft) S 182 0 min 0,000 mm 0,0 UV-I 0 W/m 6,2 C 0,0 km/h (0 Bft)
24.09.2016 03:24 6,9 C 6,9 C 96 % 1025,8 hPa 0,0 mm 0,0 km/h (0 Bft) S 181 0 min 0,000 mm 0,0 UV-I 0 W/m 6,3 C 0,0 km/h (0 Bft)
24.09.2016 03:25 6,9 C 6,9 C 96 % 1025,8 hPa 0,0 mm 0,0 km/h (0 Bft) S 181 0 min 0,000 mm 0,0 UV-I 0 W/m 6,3 C 0,0 km/h (0 Bft)
24.09.2016 03:26 6,9 C 6,9 C 96 % 1025,8 hPa 0,0 mm 0,0 km/h (0 Bft) S 181 0 min 0,000 mm 0,0 UV-I 0 W/m 6,3 C 0,0 km/h (0 Bft)
24.09.2016 03:27 6,9 C 6,9 C 96 % 1025,8 hPa 0,0 mm 0,0 km/h (0 Bft) S 181 0 min 0,000 mm 0,0 UV-I 0 W/m 6,3 C 0,0 km/h (0 Bft)
24.09.2016 03:28 6,9 C 6,9 C 96 % 1025,8 hPa 0,0 mm 0,0 km/h (0 Bft) S 182 0 min 0,000 mm 0,0 UV-I 0 W/m 6,3 C 0,0 km/h (0 Bft)
24.09.2016 03:29 6,9 C 6,9 C 96 % 1025,8 hPa 0,0 mm 0,0 km/h (0 Bft) S 182 0 min 0,000 mm 0,0 UV-I 0 W/m 6,3 C 0,0 km/h (0 Bft)
24.09.2016 03:30 6,9 C 6,9 C 96 % 1025,8 hPa 0,0 mm 0,0 km/h (0 Bft) S 181 0 min 0,000 mm 0,0 UV-I 0 W/m 6,3 C 0,0 km/h (0 Bft)
24.09.2016 03:31 7,0 C 7,0 C 96 % 1025,7 hPa 0,0 mm 0,0 km/h (0 Bft) S 181 0 min 0,000 mm 0,0 UV-I 0 W/m 6,4 C 0,0 km/h (0 Bft)
24.09.2016 03:32 7,1 C 7,1 C 96 % 1025,8 hPa 0,0 mm 0,0 km/h (0 Bft) S 181 0 min 0,000 mm 0,0 UV-I 0 W/m 6,5 C 0,0 km/h (0 Bft)
24.09.2016 03:33 7,1 C 7,1 C 96 % 1025,8 hPa 0,0 mm 0,0 km/h (0 Bft) S 181 0 min 0,000 mm 0,0 UV-I 0 W/m 6,5 C 0,0 km/h (0 Bft)
24.09.2016 03:34 7,0 C 7,1 C 96 % 1025,8 hPa 0,0 mm 0,0 km/h (0 Bft) S 181 0 min 0,000 mm 0,0 UV-I 0 W/m 6,4 C 0,0 km/h (0 Bft)
24.09.2016 03:35 7,0 C 7,1 C 96 % 1025,8 hPa 0,0 mm 0,0 km/h (0 Bft) S 181 0 min 0,000 mm 0,0 UV-I 0 W/m 6,4 C 0,0 km/h (0 Bft)
24.09.2016 03:36 7,0 C 7,1 C 96 % 1025,7 hPa 0,0 mm 0,0 km/h (0 Bft) S 181 0 min 0,000 mm 0,0 UV-I 0 W/m 6,4 C 0,0 km/h (0 Bft)
24.09.2016 03:37 7,0 C 7,0 C 96 % 1025,7 hPa 0,0 mm 0,0 km/h (0 Bft) S 181 0 min 0,000 mm 0,0 UV-I 0 W/m 6,4 C 0,0 km/h (0 Bft)
24.09.2016 03:38 6,9 C 7,0 C 96 % 1025,7 hPa 0,0 mm 0,0 km/h (0 Bft) S 181 0 min 0,000 mm 0,0 UV-I 0 W/m 6,3 C 0,0 km/h (0 Bft)
24.09.2016 03:39 6,8 C 6,9 C 96 % 1025,7 hPa 0,0 mm 0,0 km/h (0 Bft) S 181 0 min 0,000 mm 0,0 UV-I 0 W/m 6,2 C 0,0 km/h (0 Bft)
24.09.2016 03:40 6,8 C 6,8 C 96 % 1025,6 hPa 0,0 mm 0,0 km/h (0 Bft) S 181 0 min 0,000 mm 0,0 UV-I 0 W/m 6,2 C 0,0 km/h (0 Bft)
24.09.2016 03:41 6,8 C 6,8 C 96 % 1025,6 hPa 0,0 mm 0,0 km/h (0 Bft) S 182 0 min 0,000 mm 0,0 UV-I 0 W/m 6,2 C 0,0 km/h (0 Bft)
24.09.2016 03:42 6,8 C 6,8 C 96 % 1025,5 hPa 0,0 mm 0,0 km/h (0 Bft) S 182 0 min 0,000 mm 0,0 UV-I 0 W/m 6,2 C 0,0 km/h (0 Bft)
24.09.2016 03:43 6,8 C 6,8 C 96 % 1025,5 hPa 0,0 mm 0,0 km/h (0 Bft) S 182 0 min 0,000 mm 0,0 UV-I 0 W/m 6,2 C 0,0 km/h (0 Bft)
24.09.2016 03:44 6,7 C 6,8 C 96 % 1025,6 hPa 0,0 mm 0,0 km/h (0 Bft) S 182 0 min 0,000 mm 0,0 UV-I 0 W/m 6,1 C 0,0 km/h (0 Bft)
24.09.2016 03:45 6,7 C 6,7 C 96 % 1025,6 hPa 0,0 mm 0,0 km/h (0 Bft) S 182 0 min 0,000 mm 0,0 UV-I 0 W/m 6,1 C 0,0 km/h (0 Bft)
24.09.2016 03:46 6,6 C 6,7 C 96 % 1025,5 hPa 0,0 mm 0,0 km/h (0 Bft) S 181 0 min 0,000 mm 0,0 UV-I 0 W/m 6,0 C 0,0 km/h (0 Bft)
24.09.2016 03:47 6,6 C 6,6 C 96 % 1025,6 hPa 0,0 mm 0,0 km/h (0 Bft) S 181 0 min 0,000 mm 0,0 UV-I 0 W/m 6,0 C 0,0 km/h (0 Bft)
24.09.2016 03:48 6,6 C 6,6 C 96 % 1025,5 hPa 0,0 mm 0,0 km/h (0 Bft) S 182 0 min 0,000 mm 0,0 UV-I 0 W/m 6,0 C 0,0 km/h (0 Bft)
24.09.2016 03:49 6,6 C 6,6 C 96 % 1025,6 hPa 0,0 mm 0,0 km/h (0 Bft) S 181 0 min 0,000 mm 0,0 UV-I 0 W/m 6,0 C 0,0 km/h (0 Bft)
24.09.2016 03:50 6,7 C 6,7 C 96 % 1025,6 hPa 0,0 mm 0,0 km/h (0 Bft) S 182 0 min 0,000 mm 0,0 UV-I 0 W/m 6,1 C 0,0 km/h (0 Bft)
24.09.2016 03:51 6,7 C 6,7 C 96 % 1025,6 hPa 0,0 mm 0,0 km/h (0 Bft) S 182 0 min 0,000 mm 0,0 UV-I 0 W/m 6,1 C 0,0 km/h (0 Bft)
24.09.2016 03:52 6,7 C 6,7 C 96 % 1025,6 hPa 0,0 mm 0,0 km/h (0 Bft) S 182 0 min 0,000 mm 0,0 UV-I 0 W/m 6,1 C 0,0 km/h (0 Bft)
24.09.2016 03:53 6,7 C 6,7 C 96 % 1025,6 hPa 0,0 mm 0,0 km/h (0 Bft) S 182 0 min 0,000 mm 0,0 UV-I 0 W/m 6,1 C 0,0 km/h (0 Bft)
24.09.2016 03:54 6,7 C 6,7 C 96 % 1025,6 hPa 0,0 mm 0,0 km/h (0 Bft) S 182 0 min 0,000 mm 0,0 UV-I 0 W/m 6,1 C 0,0 km/h (0 Bft)
24.09.2016 03:55 6,6 C 6,7 C 96 % 1025,6 hPa 0,0 mm 0,0 km/h (0 Bft) S 181 0 min 0,000 mm 0,0 UV-I 0 W/m 6,0 C 0,0 km/h (0 Bft)
24.09.2016 03:56 6,6 C 6,6 C 96 % 1025,6 hPa 0,0 mm 0,0 km/h (0 Bft) S 182 0 min 0,000 mm 0,0 UV-I 0 W/m 6,0 C 0,0 km/h (0 Bft)
24.09.2016 03:57 6,6 C 6,6 C 96 % 1025,6 hPa 0,0 mm 0,0 km/h (0 Bft) S 182 0 min 0,000 mm 0,0 UV-I 0 W/m 6,0 C 0,0 km/h (0 Bft)
24.09.2016 03:58 6,5 C 6,6 C 96 % 1025,6 hPa 0,0 mm 0,0 km/h (0 Bft) S 182 0 min 0,000 mm 0,0 UV-I 0 W/m 5,9 C 0,0 km/h (0 Bft)
24.09.2016 03:59 6,5 C 6,6 C 96 % 1025,6 hPa 0,0 mm 0,0 km/h (0 Bft) S 181 0 min 0,000 mm 0,0 UV-I 0 W/m 5,9 C 0,0 km/h (0 Bft)
24.09.2016 04:00 6,6 C 6,6 C 96 % 1025,6 hPa 0,0 mm 0,0 km/h (0 Bft) S 182 0 min 0,000 mm 0,0 UV-I 0 W/m 6,0 C 0,0 km/h (0 Bft)
24.09.2016 04:02 6,6 C 6,6 C 96 % 1025,5 hPa 0,0 mm 0,0 km/h (0 Bft) S 182 0 min 0,000 mm 0,0 UV-I 0 W/m 6,0 C 0,0 km/h (0 Bft)
24.09.2016 04:03 6,6 C 6,6 C 96 % 1025,5 hPa 0,0 mm 0,0 km/h (0 Bft) S 182 0 min 0,000 mm 0,0 UV-I 0 W/m 6,0 C 0,0 km/h (0 Bft)
24.09.2016 04:04 6,6 C 6,6 C 96 % 1025,5 hPa 0,0 mm 0,0 km/h (0 Bft) S 181 0 min 0,000 mm 0,0 UV-I 0 W/m 6,0 C 0,0 km/h (0 Bft)
24.09.2016 04:05 6,7 C 6,7 C 96 % 1025,5 hPa 0,0 mm 0,0 km/h (0 Bft) S 181 0 min 0,000 mm 0,0 UV-I 0 W/m 6,1 C 0,0 km/h (0 Bft)
24.09.2016 04:06 6,7 C 6,7 C 96 % 1025,4 hPa 0,0 mm 0,0 km/h (0 Bft) S 181 0 min 0,000 mm 0,0 UV-I 0 W/m 6,1 C 0,0 km/h (0 Bft)
24.09.2016 04:07 6,7 C 6,7 C 97 % 1025,5 hPa 0,0 mm 0,0 km/h (0 Bft) S 182 0 min 0,000 mm 0,0 UV-I 0 W/m 6,3 C 0,0 km/h (0 Bft)
24.09.2016 04:08 6,7 C 6,7 C 97 % 1025,4 hPa 0,0 mm 0,0 km/h (0 Bft) S 181 0 min 0,000 mm 0,0 UV-I 0 W/m 6,3 C 0,0 km/h (0 Bft)
24.09.2016 04:09 6,7 C 6,7 C 96 % 1025,5 hPa 0,0 mm 0,0 km/h (0 Bft) S 182 0 min 0,000 mm 0,0 UV-I 0 W/m 6,1 C 0,0 km/h (0 Bft)
24.09.2016 04:10 6,7 C 6,7 C 97 % 1025,4 hPa 0,0 mm 0,0 km/h (0 Bft) S 181 0 min 0,000 mm 0,0 UV-I 0 W/m 6,3 C 0,0 km/h (0 Bft)
24.09.2016 04:11 6,6 C 6,7 C 97 % 1025,4 hPa 0,0 mm 0,0 km/h (0 Bft) S 182 0 min 0,000 mm 0,0 UV-I 0 W/m 6,2 C 0,0 km/h (0 Bft)
24.09.2016 04:12 6,6 C 6,6 C 97 % 1025,4 hPa 0,0 mm 0,0 km/h (0 Bft) S 182 0 min 0,000 mm 0,0 UV-I 0 W/m 6,2 C 0,0 km/h (0 Bft)
24.09.2016 04:13 6,6 C 6,6 C 96 % 1025,4 hPa 0,0 mm 0,0 km/h (0 Bft) S 182 0 min 0,000 mm 0,0 UV-I 0 W/m 6,0 C 0,0 km/h (0 Bft)
24.09.2016 04:14 6,6 C 6,6 C 96 % 1025,4 hPa 0,0 mm 0,0 km/h (0 Bft) S 181 0 min 0,000 mm 0,0 UV-I 0 W/m 6,0 C 0,0 km/h (0 Bft)
24.09.2016 04:15 6,6 C 6,6 C 96 % 1025,4 hPa 0,0 mm 0,0 km/h (0 Bft) S 182 0 min 0,000 mm 0,0 UV-I 0 W/m 6,0 C 0,0 km/h (0 Bft)
24.09.2016 04:16 6,5 C 6,6 C 96 % 1025,5 hPa 0,0 mm 0,0 km/h (0 Bft) S 182 0 min 0,000 mm 0,0 UV-I 0 W/m 5,9 C 0,0 km/h (0 Bft)
24.09.2016 04:17 6,5 C 6,5 C 96 % 1025,4 hPa 0,0 mm 0,0 km/h (0 Bft) S 182 0 min 0,000 mm 0,0 UV-I 0 W/m 5,9 C 0,0 km/h (0 Bft)
24.09.2016 04:18 6,5 C 6,5 C 96 % 1025,4 hPa 0,0 mm 0,0 km/h (0 Bft) S 181 0 min 0,000 mm 0,0 UV-I 0 W/m 5,9 C 0,0 km/h (0 Bft)
24.09.2016 04:19 6,4 C 6,5 C 96 % 1025,4 hPa 0,0 mm 0,0 km/h (0 Bft) S 182 0 min 0,000 mm 0,0 UV-I 0 W/m 5,8 C 0,0 km/h (0 Bft)
24.09.2016 04:20 6,4 C 6,4 C 96 % 1025,5 hPa 0,0 mm 0,0 km/h (0 Bft) S 181 0 min 0,000 mm 0,0 UV-I 0 W/m 5,8 C 0,0 km/h (0 Bft)
24.09.2016 04:21 6,3 C 6,4 C 96 % 1025,5 hPa 0,0 mm 0,0 km/h (0 Bft) S 182 0 min 0,000 mm 0,0 UV-I 0 W/m 5,7 C 0,0 km/h (0 Bft)
24.09.2016 04:22 6,3 C 6,3 C 96 % 1025,5 hPa 0,0 mm 0,0 km/h (0 Bft) S 182 0 min 0,000 mm 0,0 UV-I 0 W/m 5,7 C 0,0 km/h (0 Bft)
24.09.2016 04:23 6,3 C 6,3 C 96 % 1025,4 hPa 0,0 mm 0,0 km/h (0 Bft) S 181 0 min 0,000 mm 0,0 UV-I 0 W/m 5,7 C 0,0 km/h (0 Bft)
24.09.2016 04:24 6,4 C 6,4 C 96 % 1025,4 hPa 0,0 mm 0,0 km/h (0 Bft) S 182 0 min 0,000 mm 0,0 UV-I 0 W/m 5,8 C 0,0 km/h (0 Bft)
24.09.2016 04:25 6,5 C 6,5 C 96 % 1025,4 hPa 0,0 mm 0,0 km/h (0 Bft) S 181 0 min 0,000 mm 0,0 UV-I 0 W/m 5,9 C 0,0 km/h (0 Bft)
24.09.2016 04:26 6,7 C 6,7 C 96 % 1025,4 hPa 0,0 mm 0,0 km/h (0 Bft) S 182 0 min 0,000 mm 0,0 UV-I 0 W/m 6,1 C 0,0 km/h (0 Bft)
24.09.2016 04:27 6,8 C 6,8 C 97 % 1025,4 hPa 0,0 mm 0,0 km/h (0 Bft) S 182 0 min 0,000 mm 0,0 UV-I 0 W/m 6,4 C 0,0 km/h (0 Bft)
24.09.2016 04:28 6,8 C 6,8 C 97 % 1025,4 hPa 0,0 mm 0,0 km/h (0 Bft) S 182 0 min 0,000 mm 0,0 UV-I 0 W/m 6,4 C 0,0 km/h (0 Bft)
24.09.2016 04:29 6,8 C 6,8 C 97 % 1025,4 hPa 0,0 mm 0,0 km/h (0 Bft) S 182 0 min 0,000 mm 0,0 UV-I 0 W/m 6,4 C 0,0 km/h (0 Bft)
24.09.2016 04:30 6,8 C 6,8 C 97 % 1025,4 hPa 0,0 mm 0,0 km/h (0 Bft) S 181 0 min 0,000 mm 0,0 UV-I 0 W/m 6,4 C 0,0 km/h (0 Bft)
24.09.2016 04:31 6,8 C 6,8 C 97 % 1025,3 hPa 0,0 mm 0,0 km/h (0 Bft) S 181 0 min 0,000 mm 0,0 UV-I 0 W/m 6,4 C 0,0 km/h (0 Bft)
24.09.2016 04:32 6,8 C 6,8 C 97 % 1025,4 hPa 0,0 mm 0,0 km/h (0 Bft) S 182 0 min 0,000 mm 0,0 UV-I 0 W/m 6,4 C 0,0 km/h (0 Bft)
24.09.2016 04:33 6,7 C 6,8 C 97 % 1025,4 hPa 0,0 mm 0,0 km/h (0 Bft) S 181 0 min 0,000 mm 0,0 UV-I 0 W/m 6,3 C 0,0 km/h (0 Bft)
24.09.2016 04:34 6,6 C 6,7 C 96 % 1025,3 hPa 0,0 mm 0,0 km/h (0 Bft) S 182 0 min 0,000 mm 0,0 UV-I 0 W/m 6,0 C 0,0 km/h (0 Bft)
24.09.2016 04:35 6,4 C 6,6 C 96 % 1025,3 hPa 0,0 mm 0,0 km/h (0 Bft) S 182 0 min 0,000 mm 0,0 UV-I 0 W/m 5,8 C 0,0 km/h (0 Bft)
24.09.2016 04:36 6,3 C 6,4 C 96 % 1025,3 hPa 0,0 mm 0,0 km/h (0 Bft) S 182 0 min 0,000 mm 0,0 UV-I 0 W/m 5,7 C 0,0 km/h (0 Bft)
24.09.2016 04:37 6,3 C 6,3 C 96 % 1025,4 hPa 0,0 mm 0,0 km/h (0 Bft) S 182 0 min 0,000 mm 0,0 UV-I 0 W/m 5,7 C 0,0 km/h (0 Bft)
24.09.2016 04:38 6,2 C 6,3 C 96 % 1025,4 hPa 0,0 mm 0,0 km/h (0 Bft) S 181 0 min 0,000 mm 0,0 UV-I 0 W/m 5,6 C 0,0 km/h (0 Bft)
24.09.2016 04:39 6,3 C 6,3 C 96 % 1025,4 hPa 0,0 mm 0,0 km/h (0 Bft) S 182 0 min 0,000 mm 0,0 UV-I 0 W/m 5,7 C 0,0 km/h (0 Bft)
24.09.2016 04:40 6,3 C 6,3 C 96 % 1025,3 hPa 0,0 mm 0,0 km/h (0 Bft) S 181 0 min 0,000 mm 0,0 UV-I 0 W/m 5,7 C 0,0 km/h (0 Bft)
24.09.2016 04:41 6,2 C 6,3 C 96 % 1025,3 hPa 0,0 mm 0,0 km/h (0 Bft) S 182 0 min 0,000 mm 0,0 UV-I 0 W/m 5,6 C 0,0 km/h (0 Bft)
24.09.2016 04:42 6,2 C 6,2 C 96 % 1025,4 hPa 0,0 mm 0,0 km/h (0 Bft) S 181 0 min 0,000 mm 0,0 UV-I 0 W/m 5,6 C 0,0 km/h (0 Bft)
24.09.2016 04:43 6,3 C 6,3 C 96 % 1025,3 hPa 0,0 mm 0,0 km/h (0 Bft) S 182 0 min 0,000 mm 0,0 UV-I 0 W/m 5,7 C 0,0 km/h (0 Bft)
24.09.2016 04:44 6,4 C 6,4 C 97 % 1025,4 hPa 0,0 mm 0,0 km/h (0 Bft) S 182 0 min 0,000 mm 0,0 UV-I 0 W/m 6,0 C 0,0 km/h (0 Bft)
24.09.2016 04:45 6,4 C 6,4 C 97 % 1025,3 hPa 0,0 mm 0,0 km/h (0 Bft) S 182 0 min 0,000 mm 0,0 UV-I 0 W/m 6,0 C 0,0 km/h (0 Bft)
24.09.2016 04:46 6,4 C 6,4 C 97 % 1025,3 hPa 0,0 mm 0,0 km/h (0 Bft) S 182 0 min 0,000 mm 0,0 UV-I 0 W/m 6,0 C 0,0 km/h (0 Bft)
24.09.2016 04:47 6,6 C 6,6 C 97 % 1025,4 hPa 0,0 mm 0,0 km/h (0 Bft) S 181 0 min 0,000 mm 0,0 UV-I 0 W/m 6,2 C 0,0 km/h (0 Bft)
24.09.2016 04:48 6,6 C 6,6 C 96 % 1025,3 hPa 0,0 mm 0,0 km/h (0 Bft) S 182 0 min 0,000 mm 0,0 UV-I 0 W/m 6,0 C 0,0 km/h (0 Bft)
24.09.2016 04:49 6,3 C 6,6 C 97 % 1025,3 hPa 0,0 mm 0,0 km/h (0 Bft) S 182 0 min 0,000 mm 0,0 UV-I 0 W/m 5,9 C 0,0 km/h (0 Bft)
24.09.2016 04:50 6,3 C 6,4 C 96 % 1025,3 hPa 0,0 mm 0,0 km/h (0 Bft) S 182 0 min 0,000 mm 0,0 UV-I 0 W/m 5,7 C 0,0 km/h (0 Bft)
24.09.2016 04:51 6,2 C 6,3 C 96 % 1025,3 hPa 0,0 mm 0,0 km/h (0 Bft) S 182 0 min 0,000 mm 0,0 UV-I 0 W/m 5,6 C 0,0 km/h (0 Bft)
24.09.2016 04:52 6,2 C 6,2 C 96 % 1025,3 hPa 0,0 mm 0,0 km/h (0 Bft) S 182 0 min 0,000 mm 0,0 UV-I 0 W/m 5,6 C 0,0 km/h (0 Bft)
24.09.2016 04:53 6,2 C 6,2 C 96 % 1025,3 hPa 0,0 mm 0,0 km/h (0 Bft) S 181 0 min 0,000 mm 0,0 UV-I 0 W/m 5,6 C 0,0 km/h (0 Bft)
24.09.2016 04:54 6,2 C 6,2 C 96 % 1025,3 hPa 0,0 mm 0,0 km/h (0 Bft) S 182 0 min 0,000 mm 0,0 UV-I 0 W/m 5,6 C 0,0 km/h (0 Bft)
24.09.2016 04:55 6,2 C 6,3 C 96 % 1025,3 hPa 0,0 mm 0,0 km/h (0 Bft) S 182 0 min 0,000 mm 0,0 UV-I 0 W/m 5,6 C 0,0 km/h (0 Bft)
24.09.2016 04:56 6,3 C 6,3 C 96 % 1025,3 hPa 0,0 mm 0,0 km/h (0 Bft) S 182 0 min 0,000 mm 0,0 UV-I 0 W/m 5,7 C 0,0 km/h (0 Bft)
24.09.2016 04:57 6,3 C 6,3 C 96 % 1025,3 hPa 0,0 mm 0,0 km/h (0 Bft) S 182 0 min 0,000 mm 0,0 UV-I 0 W/m 5,7 C 0,0 km/h (0 Bft)
24.09.2016 04:58 6,3 C 6,3 C 96 % 1025,3 hPa 0,0 mm 0,0 km/h (0 Bft) S 181 0 min 0,000 mm 0,0 UV-I 0 W/m 5,7 C 0,0 km/h (0 Bft)
24.09.2016 04:59 6,3 C 6,3 C 96 % 1025,3 hPa 0,0 mm 0,0 km/h (0 Bft) S 182 0 min 0,000 mm 0,0 UV-I 0 W/m 5,7 C 0,0 km/h (0 Bft)
24.09.2016 05:00 6,3 C 6,3 C 97 % 1025,2 hPa 0,0 mm 0,0 km/h (0 Bft) S 182 0 min 0,000 mm 0,0 UV-I 0 W/m 5,9 C 0,0 km/h (0 Bft)
24.09.2016 05:01 6,4 C 6,4 C 97 % 1025,3 hPa 0,0 mm 0,0 km/h (0 Bft) S 181 0 min 0,000 mm 0,0 UV-I 0 W/m 6,0 C 0,0 km/h (0 Bft)
24.09.2016 05:02 6,4 C 6,4 C 97 % 1025,3 hPa 0,0 mm 0,0 km/h (0 Bft) S 181 0 min 0,000 mm 0,0 UV-I 0 W/m 6,0 C 0,0 km/h (0 Bft)
24.09.2016 05:03 6,5 C 6,5 C 97 % 1025,3 hPa 0,0 mm 0,0 km/h (0 Bft) S 182 0 min 0,000 mm 0,0 UV-I 0 W/m 6,1 C 0,0 km/h (0 Bft)
24.09.2016 05:04 6,4 C 6,5 C 97 % 1025,2 hPa 0,0 mm 0,0 km/h (0 Bft) S 182 0 min 0,000 mm 0,0 UV-I 0 W/m 6,0 C 0,0 km/h (0 Bft)
24.09.2016 05:05 6,5 C 6,5 C 97 % 1025,2 hPa 0,0 mm 0,0 km/h (0 Bft) S 182 0 min 0,000 mm 0,0 UV-I 0 W/m 6,1 C 0,0 km/h (0 Bft)
24.09.2016 05:06 6,5 C 6,6 C 96 % 1025,2 hPa 0,0 mm 0,0 km/h (0 Bft) S 181 0 min 0,000 mm 0,0 UV-I 0 W/m 5,9 C 0,0 km/h (0 Bft)
24.09.2016 05:07 6,5 C 6,6 C 97 % 1025,2 hPa 0,0 mm 0,0 km/h (0 Bft) S 181 0 min 0,000 mm 0,0 UV-I 0 W/m 6,1 C 0,0 km/h (0 Bft)
24.09.2016 05:08 6,4 C 6,5 C 97 % 1025,2 hPa 0,0 mm 0,0 km/h (0 Bft) S 182 0 min 0,000 mm 0,0 UV-I 0 W/m 6,0 C 0,0 km/h (0 Bft)
24.09.2016 05:09 6,3 C 6,4 C 97 % 1025,1 hPa 0,0 mm 0,0 km/h (0 Bft) S 181 0 min 0,000 mm 0,0 UV-I 0 W/m 5,9 C 0,0 km/h (0 Bft)
24.09.2016 05:10 6,2 C 6,3 C 96 % 1025,2 hPa 0,0 mm 0,0 km/h (0 Bft) S 182 0 min 0,000 mm 0,0 UV-I 0 W/m 5,6 C 0,0 km/h (0 Bft)
24.09.2016 05:11 6,1 C 6,2 C 96 % 1025,2 hPa 0,0 mm 0,0 km/h (0 Bft) S 182 0 min 0,000 mm 0,0 UV-I 0 W/m 5,5 C 0,0 km/h (0 Bft)
24.09.2016 05:12 5,9 C 6,1 C 96 % 1025,2 hPa 0,0 mm 0,0 km/h (0 Bft) S 182 0 min 0,000 mm 0,0 UV-I 0 W/m 5,3 C 0,0 km/h (0 Bft)
24.09.2016 05:13 5,8 C 5,9 C 96 % 1025,3 hPa 0,0 mm 0,0 km/h (0 Bft) S 182 0 min 0,000 mm 0,0 UV-I 0 W/m 5,2 C 0,0 km/h (0 Bft)
24.09.2016 05:14 5,8 C 5,8 C 96 % 1025,3 hPa 0,0 mm 0,0 km/h (0 Bft) S 181 0 min 0,000 mm 0,0 UV-I 0 W/m 5,2 C 0,0 km/h (0 Bft)
24.09.2016 05:15 5,8 C 5,8 C 96 % 1025,3 hPa 0,0 mm 0,0 km/h (0 Bft) S 182 0 min 0,000 mm 0,0 UV-I 0 W/m 5,2 C 0,0 km/h (0 Bft)
24.09.2016 05:16 5,8 C 5,8 C 96 % 1025,3 hPa 0,0 mm 0,0 km/h (0 Bft) S 181 0 min 0,000 mm 0,0 UV-I 0 W/m 5,2 C 0,0 km/h (0 Bft)
24.09.2016 05:17 5,9 C 5,9 C 96 % 1025,3 hPa 0,0 mm 0,0 km/h (0 Bft) S 181 0 min 0,000 mm 0,0 UV-I 0 W/m 5,3 C 0,0 km/h (0 Bft)
24.09.2016 05:18 5,9 C 5,9 C 96 % 1025,2 hPa 0,0 mm 0,0 km/h (0 Bft) S 182 0 min 0,000 mm 0,0 UV-I 0 W/m 5,3 C 0,0 km/h (0 Bft)
24.09.2016 05:19 6,1 C 6,1 C 97 % 1025,2 hPa 0,0 mm 0,0 km/h (0 Bft) S 182 0 min 0,000 mm 0,0 UV-I 0 W/m 5,7 C 0,0 km/h (0 Bft)
24.09.2016 05:20 6,0 C 6,2 C 97 % 1025,2 hPa 0,0 mm 0,0 km/h (0 Bft) S 181 0 min 0,000 mm 0,0 UV-I 0 W/m 5,6 C 0,0 km/h (0 Bft)
24.09.2016 05:21 5,9 C 6,0 C 96 % 1025,2 hPa 0,0 mm 0,0 km/h (0 Bft) S 181 0 min 0,000 mm 0,0 UV-I 0 W/m 5,3 C 0,0 km/h (0 Bft)
24.09.2016 05:22 5,8 C 5,9 C 96 % 1025,2 hPa 0,0 mm 0,0 km/h (0 Bft) S 181 0 min 0,000 mm 0,0 UV-I 0 W/m 5,2 C 0,0 km/h (0 Bft)
24.09.2016 05:23 5,8 C 5,8 C 96 % 1025,2 hPa 0,0 mm 0,0 km/h (0 Bft) S 182 0 min 0,000 mm 0,0 UV-I 0 W/m 5,2 C 0,0 km/h (0 Bft)
24.09.2016 05:24 5,9 C 5,9 C 96 % 1025,1 hPa 0,0 mm 0,0 km/h (0 Bft) S 181 0 min 0,000 mm 0,0 UV-I 0 W/m 5,3 C 0,0 km/h (0 Bft)
24.09.2016 05:25 5,9 C 5,9 C 97 % 1025,2 hPa 0,0 mm 0,0 km/h (0 Bft) S 181 0 min 0,000 mm 0,0 UV-I 0 W/m 5,5 C 0,0 km/h (0 Bft)
24.09.2016 05:26 6,1 C 6,1 C 97 % 1025,2 hPa 0,0 mm 0,0 km/h (0 Bft) S 182 0 min 0,000 mm 0,0 UV-I 0 W/m 5,7 C 0,0 km/h (0 Bft)
24.09.2016 05:27 6,2 C 6,2 C 97 % 1025,2 hPa 0,0 mm 0,0 km/h (0 Bft) S 181 0 min 0,000 mm 0,0 UV-I 0 W/m 5,8 C 0,0 km/h (0 Bft)
24.09.2016 05:28 6,1 C 6,2 C 97 % 1025,3 hPa 0,0 mm 0,0 km/h (0 Bft) S 181 0 min 0,000 mm 0,0 UV-I 0 W/m 5,7 C 0,0 km/h (0 Bft)
24.09.2016 05:29 5,9 C 6,1 C 97 % 1025,3 hPa 0,0 mm 0,0 km/h (0 Bft) S 181 0 min 0,000 mm 0,0 UV-I 0 W/m 5,5 C 0,0 km/h (0 Bft)
24.09.2016 05:30 5,9 C 5,9 C 96 % 1025,3 hPa 0,0 mm 0,0 km/h (0 Bft) S 181 0 min 0,000 mm 0,0 UV-I 0 W/m 5,3 C 0,0 km/h (0 Bft)
24.09.2016 05:31 5,8 C 5,9 C 96 % 1025,3 hPa 0,0 mm 0,0 km/h (0 Bft) S 182 0 min 0,000 mm 0,0 UV-I 0 W/m 5,2 C 0,0 km/h (0 Bft)
24.09.2016 05:32 5,9 C 5,9 C 96 % 1025,3 hPa 0,0 mm 0,0 km/h (0 Bft) S 182 0 min 0,000 mm 0,0 UV-I 0 W/m 5,3 C 0,0 km/h (0 Bft)
24.09.2016 05:33 5,9 C 5,9 C 96 % 1025,3 hPa 0,0 mm 0,0 km/h (0 Bft) S 181 0 min 0,000 mm 0,0 UV-I 0 W/m 5,3 C 0,0 km/h (0 Bft)
24.09.2016 05:34 5,9 C 5,9 C 96 % 1025,3 hPa 0,0 mm 0,0 km/h (0 Bft) S 181 0 min 0,000 mm 0,0 UV-I 0 W/m 5,3 C 0,0 km/h (0 Bft)
24.09.2016 05:35 5,9 C 5,9 C 96 % 1025,3 hPa 0,0 mm 0,0 km/h (0 Bft) S 181 0 min 0,000 mm 0,0 UV-I 0 W/m 5,3 C 0,0 km/h (0 Bft)
24.09.2016 05:36 5,9 C 5,9 C 96 % 1025,1 hPa 0,0 mm 0,0 km/h (0 Bft) S 181 0 min 0,000 mm 0,0 UV-I 0 W/m 5,3 C 0,0 km/h (0 Bft)
24.09.2016 05:37 6,0 C 6,0 C 97 % 1025,1 hPa 0,0 mm 0,0 km/h (0 Bft) S 181 0 min 0,000 mm 0,0 UV-I 0 W/m 5,6 C 0,0 km/h (0 Bft)
24.09.2016 05:38 6,1 C 6,1 C 97 % 1025,1 hPa 0,0 mm 0,0 km/h (0 Bft) S 181 0 min 0,000 mm 0,0 UV-I 0 W/m 5,7 C 0,0 km/h (0 Bft)
24.09.2016 05:39 6,1 C 6,1 C 97 % 1025,1 hPa 0,0 mm 0,0 km/h (0 Bft) S 182 0 min 0,000 mm 0,0 UV-I 0 W/m 5,7 C 0,0 km/h (0 Bft)
24.09.2016 05:40 6,1 C 6,1 C 97 % 1025,1 hPa 0,0 mm 0,0 km/h (0 Bft) S 181 0 min 0,000 mm 0,0 UV-I 0 W/m 5,7 C 0,0 km/h (0 Bft)
24.09.2016 05:41 6,2 C 6,2 C 97 % 1025,0 hPa 0,0 mm 0,0 km/h (0 Bft) S 181 0 min 0,000 mm 0,0 UV-I 0 W/m 5,8 C 0,0 km/h (0 Bft)
24.09.2016 05:42 6,2 C 6,2 C 97 % 1025,0 hPa 0,0 mm 0,0 km/h (0 Bft) S 181 0 min 0,000 mm 0,0 UV-I 0 W/m 5,8 C 0,0 km/h (0 Bft)
24.09.2016 05:43 6,3 C 6,3 C 97 % 1024,9 hPa 0,0 mm 0,0 km/h (0 Bft) S 181 0 min 0,000 mm 0,0 UV-I 0 W/m 5,9 C 0,0 km/h (0 Bft)
24.09.2016 05:44 6,3 C 6,3 C 97 % 1025,0 hPa 0,0 mm 0,0 km/h (0 Bft) S 181 0 min 0,000 mm 0,0 UV-I 0 W/m 5,9 C 0,0 km/h (0 Bft)
24.09.2016 05:45 6,2 C 6,3 C 97 % 1025,0 hPa 0,0 mm 0,0 km/h (0 Bft) S 181 0 min 0,000 mm 0,0 UV-I 0 W/m 5,8 C 0,0 km/h (0 Bft)
24.09.2016 05:46 6,1 C 6,3 C 97 % 1025,0 hPa 0,0 mm 0,0 km/h (0 Bft) S 181 0 min 0,000 mm 0,0 UV-I 0 W/m 5,7 C 0,0 km/h (0 Bft)
24.09.2016 05:47 6,1 C 6,2 C 97 % 1025,0 hPa 0,0 mm 0,0 km/h (0 Bft) S 182 0 min 0,000 mm 0,0 UV-I 0 W/m 5,7 C 0,0 km/h (0 Bft)
24.09.2016 05:48 5,9 C 6,1 C 96 % 1025,0 hPa 0,0 mm 0,0 km/h (0 Bft) S 181 0 min 0,000 mm 0,0 UV-I 0 W/m 5,3 C 0,0 km/h (0 Bft)
24.09.2016 05:49 5,8 C 5,9 C 96 % 1025,0 hPa 0,0 mm 0,0 km/h (0 Bft) S 182 0 min 0,000 mm 0,0 UV-I 0 W/m 5,2 C 0,0 km/h (0 Bft)
24.09.2016 05:50 5,7 C 5,8 C 96 % 1025,0 hPa 0,0 mm 0,0 km/h (0 Bft) S 182 0 min 0,000 mm 0,0 UV-I 0 W/m 5,1 C 0,0 km/h (0 Bft)
24.09.2016 05:51 5,7 C 5,7 C 96 % 1025,0 hPa 0,0 mm 0,0 km/h (0 Bft) S 181 0 min 0,000 mm 0,0 UV-I 0 W/m 5,1 C 0,0 km/h (0 Bft)
24.09.2016 05:52 5,7 C 5,7 C 96 % 1025,0 hPa 0,0 mm 0,0 km/h (0 Bft) S 182 0 min 0,000 mm 0,0 UV-I 0 W/m 5,1 C 0,0 km/h (0 Bft)
24.09.2016 05:53 5,7 C 5,7 C 96 % 1025,0 hPa 0,0 mm 0,0 km/h (0 Bft) S 182 0 min 0,000 mm 0,0 UV-I 0 W/m 5,1 C 0,0 km/h (0 Bft)
24.09.2016 05:54 5,8 C 5,8 C 96 % 1025,0 hPa 0,0 mm 0,0 km/h (0 Bft) S 182 0 min 0,000 mm 0,0 UV-I 0 W/m 5,2 C 0,0 km/h (0 Bft)
24.09.2016 05:55 5,8 C 5,8 C 96 % 1025,0 hPa 0,0 mm 0,0 km/h (0 Bft) S 181 0 min 0,000 mm 0,0 UV-I 0 W/m 5,2 C 0,0 km/h (0 Bft)
24.09.2016 05:56 5,9 C 5,9 C 97 % 1025,0 hPa 0,0 mm 0,0 km/h (0 Bft) S 181 0 min 0,000 mm 0,0 UV-I 0 W/m 5,5 C 0,0 km/h (0 Bft)
24.09.2016 05:57 5,8 C 5,9 C 97 % 1025,0 hPa 0,0 mm 0,0 km/h (0 Bft) S 181 0 min 0,000 mm 0,0 UV-I 0 W/m 5,4 C 0,0 km/h (0 Bft)
24.09.2016 05:58 5,8 C 5,8 C 97 % 1025,0 hPa 0,0 mm 0,0 km/h (0 Bft) S 182 0 min 0,000 mm 0,0 UV-I 0 W/m 5,4 C 0,0 km/h (0 Bft)
24.09.2016 05:59 5,6 C 5,8 C 97 % 1025,0 hPa 0,0 mm 0,0 km/h (0 Bft) S 182 0 min 0,000 mm 0,0 UV-I 0 W/m 5,2 C 0,0 km/h (0 Bft)
24.09.2016 06:00 5,6 C 5,6 C 97 % 1025,0 hPa 0,0 mm 0,0 km/h (0 Bft) S 181 0 min 0,000 mm 0,0 UV-I 0 W/m 5,2 C 0,0 km/h (0 Bft)
24.09.2016 06:01 5,6 C 5,6 C 96 % 1025,1 hPa 0,0 mm 0,0 km/h (0 Bft) S 181 0 min 0,000 mm 0,0 UV-I 0 W/m 5,0 C 0,0 km/h (0 Bft)
24.09.2016 06:02 5,7 C 5,7 C 97 % 1025,1 hPa 0,0 mm 0,0 km/h (0 Bft) S 182 0 min 0,000 mm 0,0 UV-I 0 W/m 5,3 C 0,0 km/h (0 Bft)
24.09.2016 06:03 5,9 C 5,9 C 97 % 1025,1 hPa 0,0 mm 0,0 km/h (0 Bft) S 181 0 min 0,000 mm 0,0 UV-I 0 W/m 5,5 C 0,0 km/h (0 Bft)
24.09.2016 06:04 5,9 C 5,9 C 97 % 1025,1 hPa 0,0 mm 0,0 km/h (0 Bft) S 182 0 min 0,000 mm 0,0 UV-I 0 W/m 5,5 C 0,0 km/h (0 Bft)
24.09.2016 06:05 6,1 C 6,1 C 97 % 1025,1 hPa 0,0 mm 0,0 km/h (0 Bft) S 181 0 min 0,000 mm 0,0 UV-I 0 W/m 5,7 C 0,0 km/h (0 Bft)
24.09.2016 06:06 6,1 C 6,1 C 97 % 1025,1 hPa 0,0 mm 0,0 km/h (0 Bft) S 181 0 min 0,000 mm 0,0 UV-I 0 W/m 5,7 C 0,0 km/h (0 Bft)
24.09.2016 06:07 6,2 C 6,2 C 97 % 1025,1 hPa 0,0 mm 0,0 km/h (0 Bft) S 181 0 min 0,000 mm 0,0 UV-I 0 W/m 5,8 C 0,0 km/h (0 Bft)
24.09.2016 06:08 6,2 C 6,2 C 97 % 1025,1 hPa 0,0 mm 0,0 km/h (0 Bft) S 181 0 min 0,000 mm 0,0 UV-I 0 W/m 5,8 C 0,0 km/h (0 Bft)
24.09.2016 06:09 6,2 C 6,2 C 97 % 1025,1 hPa 0,0 mm 0,0 km/h (0 Bft) S 181 0 min 0,000 mm 0,0 UV-I 0 W/m 5,8 C 0,0 km/h (0 Bft)
24.09.2016 06:10 6,2 C 6,2 C 97 % 1025,1 hPa 0,0 mm 0,0 km/h (0 Bft) S 182 0 min 0,000 mm 0,0 UV-I 0 W/m 5,8 C 0,0 km/h (0 Bft)
24.09.2016 06:11 6,2 C 6,2 C 97 % 1025,1 hPa 0,0 mm 0,0 km/h (0 Bft) S 181 0 min 0,000 mm 0,0 UV-I 0 W/m 5,8 C 0,0 km/h (0 Bft)
24.09.2016 06:12 6,2 C 6,2 C 97 % 1025,1 hPa 0,0 mm 0,0 km/h (0 Bft) S 181 0 min 0,000 mm 0,0 UV-I 0 W/m 5,8 C 0,0 km/h (0 Bft)
24.09.2016 06:13 6,1 C 6,2 C 97 % 1025,1 hPa 0,0 mm 0,0 km/h (0 Bft) S 181 0 min 0,000 mm 0,0 UV-I 0 W/m 5,7 C 0,0 km/h (0 Bft)
24.09.2016 06:14 5,9 C 6,1 C 97 % 1025,1 hPa 0,0 mm 0,0 km/h (0 Bft) S 182 0 min 0,000 mm 0,0 UV-I 0 W/m 5,5 C 0,0 km/h (0 Bft)
24.09.2016 06:15 5,9 C 5,9 C 97 % 1025,1 hPa 0,0 mm 0,0 km/h (0 Bft) S 181 0 min 0,000 mm 0,0 UV-I 0 W/m 5,5 C 0,0 km/h (0 Bft)
24.09.2016 06:16 5,7 C 5,9 C 97 % 1025,2 hPa 0,0 mm 0,0 km/h (0 Bft) S 181 0 min 0,000 mm 0,0 UV-I 0 W/m 5,3 C 0,0 km/h (0 Bft)
24.09.2016 06:17 5,7 C 5,7 C 96 % 1025,2 hPa 0,0 mm 0,0 km/h (0 Bft) S 181 0 min 0,000 mm 0,0 UV-I 0 W/m 5,1 C 0,0 km/h (0 Bft)
24.09.2016 06:18 5,7 C 5,7 C 97 % 1025,1 hPa 0,0 mm 0,0 km/h (0 Bft) S 181 0 min 0,000 mm 0,0 UV-I 0 W/m 5,3 C 0,0 km/h (0 Bft)
24.09.2016 06:19 5,8 C 5,8 C 97 % 1025,1 hPa 0,0 mm 1,7 km/h (1 Bft) S 182 0 min 0,000 mm 0,0 UV-I 0 W/m 5,4 C 3,2 km/h (1 Bft)
24.09.2016 06:20 6,0 C 6,0 C 97 % 1025,1 hPa 0,0 mm 2,1 km/h (1 Bft) S 182 0 min 0,000 mm 0,0 UV-I 0 W/m 5,6 C 3,2 km/h (1 Bft)
24.09.2016 06:21 6,1 C 6,1 C 97 % 1025,1 hPa 0,0 mm 2,8 km/h (1 Bft) S 182 0 min 0,000 mm 0,0 UV-I 0 W/m 5,7 C 4,8 km/h (1 Bft)
24.09.2016 06:22 5,9 C 6,1 C 97 % 1025,0 hPa 0,0 mm 1,8 km/h (1 Bft) S 182 0 min 0,000 mm 0,0 UV-I 0 W/m 5,5 C 3,2 km/h (1 Bft)
24.09.2016 06:23 5,8 C 5,9 C 97 % 1025,1 hPa 0,0 mm 2,2 km/h (1 Bft) S 182 0 min 0,000 mm 0,0 UV-I 0 W/m 5,4 C 4,8 km/h (1 Bft)
24.09.2016 06:24 5,8 C 5,8 C 97 % 1025,1 hPa 0,0 mm 0,6 km/h (0 Bft) S 182 0 min 0,000 mm 0,0 UV-I 0 W/m 5,4 C 1,6 km/h (1 Bft)
24.09.2016 06:25 5,8 C 5,8 C 97 % 1025,1 hPa 0,0 mm 0,0 km/h (0 Bft) S 182 0 min 0,000 mm 0,0 UV-I 0 W/m 5,4 C 0,0 km/h (0 Bft)
24.09.2016 06:26 5,8 C 5,8 C 97 % 1025,2 hPa 0,0 mm 0,0 km/h (0 Bft) S 182 0 min 0,000 mm 0,0 UV-I 0 W/m 5,4 C 0,0 km/h (0 Bft)
24.09.2016 06:27 5,6 C 5,8 C 96 % 1025,2 hPa 0,0 mm 0,8 km/h (0 Bft) S 182 0 min 0,000 mm 0,0 UV-I 0 W/m 5,0 C 1,6 km/h (1 Bft)
24.09.2016 06:28 5,4 C 5,6 C 96 % 1025,2 hPa 0,0 mm 0,2 km/h (0 Bft) S 182 0 min 0,000 mm 0,0 UV-I 0 W/m 4,8 C 1,6 km/h (1 Bft)
24.09.2016 06:29 5,4 C 5,4 C 96 % 1025,3 hPa 0,0 mm 0,0 km/h (0 Bft) S 182 0 min 0,000 mm 0,0 UV-I 0 W/m 4,8 C 0,0 km/h (0 Bft)
24.09.2016 06:30 5,4 C 5,4 C 97 % 1025,3 hPa 0,0 mm 0,3 km/h (0 Bft) S 182 0 min 0,000 mm 0,0 UV-I 0 W/m 5,0 C 1,6 km/h (1 Bft)
24.09.2016 06:31 5,5 C 5,5 C 97 % 1025,3 hPa 0,0 mm 0,3 km/h (0 Bft) S 182 0 min 0,000 mm 0,0 UV-I 0 W/m 5,1 C 1,6 km/h (1 Bft)
24.09.2016 06:32 5,6 C 5,6 C 96 % 1025,3 hPa 0,0 mm 0,3 km/h (0 Bft) S 182 0 min 0,000 mm 0,0 UV-I 0 W/m 5,0 C 1,6 km/h (1 Bft)
24.09.2016 06:33 5,6 C 5,6 C 97 % 1025,3 hPa 0,0 mm 0,0 km/h (0 Bft) S 182 0 min 0,000 mm 0,0 UV-I 0 W/m 5,2 C 0,0 km/h (0 Bft)
24.09.2016 06:34 5,6 C 5,6 C 97 % 1025,3 hPa 0,0 mm 0,2 km/h (0 Bft) S 182 0 min 0,000 mm 0,0 UV-I 0 W/m 5,2 C 1,6 km/h (1 Bft)
24.09.2016 06:35 5,8 C 5,8 C 97 % 1025,2 hPa 0,0 mm 0,9 km/h (0 Bft) S 182 0 min 0,000 mm 0,0 UV-I 0 W/m 5,4 C 1,6 km/h (1 Bft)
24.09.2016 06:36 6,0 C 6,0 C 97 % 1025,2 hPa 0,0 mm 1,3 km/h (1 Bft) S 182 0 min 0,000 mm 0,0 UV-I 0 W/m 5,6 C 3,2 km/h (1 Bft)
24.09.2016 06:37 6,2 C 6,2 C 97 % 1025,2 hPa 0,0 mm 1,7 km/h (1 Bft) S 182 0 min 0,000 mm 0,0 UV-I 0 W/m 5,8 C 3,2 km/h (1 Bft)
24.09.2016 06:38 6,3 C 6,3 C 97 % 1025,2 hPa 0,0 mm 2,9 km/h (1 Bft) S 182 0 min 0,000 mm 0,0 UV-I 0 W/m 5,9 C 3,2 km/h (1 Bft)
24.09.2016 06:39 6,3 C 6,3 C 97 % 1025,1 hPa 0,0 mm 2,5 km/h (1 Bft) S 182 0 min 0,000 mm 0,0 UV-I 0 W/m 5,9 C 3,2 km/h (1 Bft)
24.09.2016 06:40 6,2 C 6,3 C 97 % 1025,1 hPa 0,0 mm 1,5 km/h (1 Bft) S 182 0 min 0,000 mm 0,0 UV-I 0 W/m 5,8 C 1,6 km/h (1 Bft)
24.09.2016 06:41 6,1 C 6,2 C 97 % 1025,1 hPa 0,0 mm 0,5 km/h (0 Bft) S 182 0 min 0,000 mm 0,0 UV-I 0 W/m 5,7 C 1,6 km/h (1 Bft)
24.09.2016 06:42 5,8 C 6,1 C 97 % 1025,2 hPa 0,0 mm 0,2 km/h (0 Bft) S 182 0 min 0,000 mm 0,0 UV-I 0 W/m 5,4 C 1,6 km/h (1 Bft)
24.09.2016 06:43 5,7 C 5,8 C 97 % 1025,2 hPa 0,0 mm 0,7 km/h (0 Bft) S 182 0 min 0,000 mm 0,0 UV-I 0 W/m 5,3 C 1,6 km/h (1 Bft)
24.09.2016 06:44 5,5 C 5,7 C 97 % 1025,2 hPa 0,0 mm 0,7 km/h (0 Bft) S 182 0 min 0,000 mm 0,0 UV-I 0 W/m 5,1 C 1,6 km/h (1 Bft)
24.09.2016 06:45 5,4 C 5,5 C 97 % 1025,2 hPa 0,0 mm 0,0 km/h (0 Bft) S 182 0 min 0,000 mm 0,0 UV-I 0 W/m 5,0 C 0,0 km/h (0 Bft)
24.09.2016 06:46 5,3 C 5,4 C 97 % 1025,2 hPa 0,0 mm 0,0 km/h (0 Bft) S 182 0 min 0,000 mm 0,0 UV-I 0 W/m 4,9 C 0,0 km/h (0 Bft)
24.09.2016 06:47 5,3 C 5,3 C 96 % 1025,2 hPa 0,0 mm 0,0 km/h (0 Bft) S 182 0 min 0,000 mm 0,0 UV-I 0 W/m 4,7 C 0,0 km/h (0 Bft)
24.09.2016 06:48 5,2 C 5,3 C 96 % 1025,3 hPa 0,0 mm 0,0 km/h (0 Bft) S 182 0 min 0,000 mm 0,0 UV-I 0 W/m 4,6 C 0,0 km/h (0 Bft)
24.09.2016 06:49 5,1 C 5,2 C 96 % 1025,3 hPa 0,0 mm 0,0 km/h (0 Bft) S 182 0 min 0,000 mm 0,0 UV-I 0 W/m 4,5 C 0,0 km/h (0 Bft)
24.09.2016 06:50 5,0 C 5,1 C 96 % 1025,2 hPa 0,0 mm 0,0 km/h (0 Bft) S 182 0 min 0,000 mm 0,0 UV-I 0 W/m 4,4 C 0,0 km/h (0 Bft)
24.09.2016 06:51 4,9 C 5,0 C 96 % 1025,3 hPa 0,0 mm 0,0 km/h (0 Bft) S 182 0 min 0,000 mm 0,0 UV-I 0 W/m 4,3 C 0,0 km/h (0 Bft)
24.09.2016 06:52 4,9 C 4,9 C 96 % 1025,3 hPa 0,0 mm 1,3 km/h (1 Bft) S 182 0 min 0,000 mm 0,0 UV-I 0 W/m 4,3 C 1,6 km/h (1 Bft)
24.09.2016 06:53 4,8 C 4,9 C 96 % 1025,3 hPa 0,0 mm 1,3 km/h (1 Bft) S 182 0 min 0,000 mm 0,0 UV-I 0 W/m 4,2 C 1,6 km/h (1 Bft)
24.09.2016 06:54 4,8 C 4,9 C 96 % 1025,2 hPa 0,0 mm 1,3 km/h (1 Bft) S 182 0 min 0,000 mm 0,0 UV-I 0 W/m 4,2 C 1,6 km/h (1 Bft)
24.09.2016 06:55 4,9 C 4,9 C 96 % 1025,2 hPa 0,0 mm 1,1 km/h (1 Bft) S 182 0 min 0,000 mm 0,0 UV-I 0 W/m 4,3 C 1,6 km/h (1 Bft)
24.09.2016 06:56 5,0 C 5,0 C 96 % 1025,2 hPa 0,0 mm 1,1 km/h (1 Bft) S 182 0 min 0,000 mm 0,0 UV-I 0 W/m 4,4 C 1,6 km/h (1 Bft)
24.09.2016 06:57 5,1 C 5,1 C 97 % 1025,2 hPa 0,0 mm 1,0 km/h (0 Bft) S 182 0 min 0,000 mm 0,0 UV-I 0 W/m 4,7 C 1,6 km/h (1 Bft)
24.09.2016 06:58 5,1 C 5,1 C 97 % 1025,2 hPa 0,0 mm 0,5 km/h (0 Bft) S 182 0 min 0,000 mm 0,0 UV-I 0 W/m 4,7 C 1,6 km/h (1 Bft)
24.09.2016 06:59 5,2 C 5,2 C 97 % 1025,3 hPa 0,0 mm 0,0 km/h (0 Bft) S 182 0 min 0,000 mm 0,0 UV-I 0 W/m 4,8 C 0,0 km/h (0 Bft)
24.09.2016 07:00 5,2 C 5,2 C 97 % 1025,3 hPa 0,0 mm 0,0 km/h (0 Bft) S 182 0 min 0,000 mm 0,0 UV-I 0 W/m 4,8 C 0,0 km/h (0 Bft)
24.09.2016 07:01 5,2 C 5,2 C 97 % 1025,3 hPa 0,0 mm 0,3 km/h (0 Bft) S 182 0 min 0,000 mm 0,0 UV-I 0 W/m 4,8 C 1,6 km/h (1 Bft)
24.09.2016 07:02 5,2 C 5,2 C 97 % 1025,3 hPa 0,0 mm 0,9 km/h (0 Bft) S 182 0 min 0,000 mm 0,0 UV-I 0 W/m 4,8 C 1,6 km/h (1 Bft)
24.09.2016 07:03 5,2 C 5,2 C 97 % 1025,3 hPa 0,0 mm 0,7 km/h (0 Bft) S 182 0 min 0,000 mm 0,0 UV-I 0 W/m 4,8 C 1,6 km/h (1 Bft)
24.09.2016 07:04 5,2 C 5,2 C 97 % 1025,3 hPa 0,0 mm 0,1 km/h (0 Bft) S 182 0 min 0,000 mm 0,0 UV-I 0 W/m 4,8 C 1,6 km/h (1 Bft)
24.09.2016 07:05 5,3 C 5,3 C 97 % 1025,3 hPa 0,0 mm 0,4 km/h (0 Bft) S 182 0 min 0,000 mm 0,0 UV-I 0 W/m 4,9 C 1,6 km/h (1 Bft)
24.09.2016 07:06 5,4 C 5,4 C 97 % 1025,3 hPa 0,0 mm 0,3 km/h (0 Bft) S 182 0 min 0,000 mm 0,0 UV-I 0 W/m 5,0 C 1,6 km/h (1 Bft)
24.09.2016 07:07 5,4 C 5,4 C 97 % 1025,4 hPa 0,0 mm 0,1 km/h (0 Bft) S 182 0 min 0,000 mm 0,0 UV-I 0 W/m 5,0 C 1,6 km/h (1 Bft)
24.09.2016 07:08 5,6 C 5,6 C 97 % 1025,4 hPa 0,0 mm 0,2 km/h (0 Bft) S 182 0 min 0,000 mm 0,0 UV-I 5 W/m 5,2 C 1,6 km/h (1 Bft)
24.09.2016 07:09 5,6 C 5,6 C 97 % 1025,4 hPa 0,0 mm 0,4 km/h (0 Bft) S 182 0 min 0,000 mm 0,0 UV-I 5 W/m 5,2 C 1,6 km/h (1 Bft)
24.09.2016 07:10 5,7 C 5,7 C 97 % 1025,4 hPa 0,0 mm 0,6 km/h (0 Bft) S 182 0 min 0,000 mm 0,0 UV-I 5 W/m 5,3 C 1,6 km/h (1 Bft)
24.09.2016 07:11 5,8 C 5,8 C 97 % 1025,4 hPa 0,0 mm 0,5 km/h (0 Bft) S 182 0 min 0,000 mm 0,0 UV-I 5 W/m 5,4 C 1,6 km/h (1 Bft)
24.09.2016 07:12 5,8 C 5,8 C 97 % 1025,4 hPa 0,0 mm 0,0 km/h (0 Bft) S 182 0 min 0,000 mm 0,0 UV-I 5 W/m 5,4 C 0,0 km/h (0 Bft)
24.09.2016 07:13 5,8 C 5,8 C 97 % 1025,4 hPa 0,0 mm 0,0 km/h (0 Bft) S 182 0 min 0,000 mm 0,0 UV-I 7 W/m 5,4 C 0,0 km/h (0 Bft)
24.09.2016 07:14 5,8 C 5,8 C 97 % 1025,4 hPa 0,0 mm 0,0 km/h (0 Bft) S 182 0 min 0,000 mm 0,0 UV-I 7 W/m 5,4 C 0,0 km/h (0 Bft)
24.09.2016 07:15 5,8 C 5,8 C 97 % 1025,4 hPa 0,0 mm 0,0 km/h (0 Bft) S 182 0 min 0,000 mm 0,0 UV-I 7 W/m 5,4 C 0,0 km/h (0 Bft)
24.09.2016 07:16 5,7 C 5,8 C 97 % 1025,4 hPa 0,0 mm 0,0 km/h (0 Bft) S 182 0 min 0,000 mm 0,0 UV-I 7 W/m 5,3 C 0,0 km/h (0 Bft)
24.09.2016 07:17 5,6 C 5,7 C 97 % 1025,4 hPa 0,0 mm 0,1 km/h (0 Bft) S 182 0 min 0,000 mm 0,0 UV-I 9 W/m 5,2 C 1,6 km/h (1 Bft)
24.09.2016 07:18 5,4 C 5,6 C 97 % 1025,4 hPa 0,0 mm 0,0 km/h (0 Bft) S 182 0 min 0,000 mm 0,0 UV-I 9 W/m 5,0 C 0,0 km/h (0 Bft)
24.09.2016 07:19 5,4 C 5,4 C 97 % 1025,5 hPa 0,0 mm 0,0 km/h (0 Bft) S 182 0 min 0,000 mm 0,0 UV-I 9 W/m 5,0 C 0,0 km/h (0 Bft)
24.09.2016 07:20 5,4 C 5,4 C 97 % 1025,4 hPa 0,0 mm 0,0 km/h (0 Bft) S 182 0 min 0,000 mm 0,0 UV-I 11 W/m 5,0 C 0,0 km/h (0 Bft)
24.09.2016 07:21 5,4 C 5,4 C 97 % 1025,5 hPa 0,0 mm 0,1 km/h (0 Bft) S 182 0 min 0,000 mm 0,0 UV-I 11 W/m 5,0 C 1,6 km/h (1 Bft)
24.09.2016 07:22 5,5 C 5,5 C 97 % 1025,5 hPa 0,0 mm 0,4 km/h (0 Bft) S 182 0 min 0,000 mm 0,0 UV-I 11 W/m 5,1 C 1,6 km/h (1 Bft)
24.09.2016 07:23 5,7 C 5,7 C 97 % 1025,5 hPa 0,0 mm 0,9 km/h (0 Bft) S 182 0 min 0,000 mm 0,0 UV-I 11 W/m 5,3 C 1,6 km/h (1 Bft)
24.09.2016 07:24 5,8 C 5,8 C 97 % 1025,4 hPa 0,0 mm 0,0 km/h (0 Bft) S 182 0 min 0,000 mm 0,0 UV-I 12 W/m 5,4 C 0,0 km/h (0 Bft)
24.09.2016 07:25 5,9 C 5,9 C 97 % 1025,4 hPa 0,0 mm 0,0 km/h (0 Bft) S 182 0 min 0,000 mm 0,0 UV-I 12 W/m 5,5 C 0,0 km/h (0 Bft)
24.09.2016 07:26 5,9 C 5,9 C 97 % 1025,5 hPa 0,0 mm 0,0 km/h (0 Bft) S 182 0 min 0,000 mm 0,0 UV-I 12 W/m 5,5 C 0,0 km/h (0 Bft)
24.09.2016 07:27 5,8 C 5,9 C 97 % 1025,5 hPa 0,0 mm 0,0 km/h (0 Bft) S 182 0 min 0,000 mm 0,0 UV-I 12 W/m 5,4 C 0,0 km/h (0 Bft)
24.09.2016 07:28 5,6 C 5,8 C 97 % 1025,5 hPa 0,0 mm 0,0 km/h (0 Bft) S 182 0 min 0,000 mm 0,0 UV-I 14 W/m 5,2 C 0,0 km/h (0 Bft)
24.09.2016 07:29 5,5 C 5,6 C 97 % 1025,5 hPa 0,0 mm 0,3 km/h (0 Bft) S 182 0 min 0,000 mm 0,0 UV-I 14 W/m 5,1 C 1,6 km/h (1 Bft)
24.09.2016 07:30 5,4 C 5,5 C 97 % 1025,5 hPa 0,0 mm 0,0 km/h (0 Bft) S 182 0 min 0,000 mm 0,0 UV-I 14 W/m 5,0 C 0,0 km/h (0 Bft)
24.09.2016 07:31 5,3 C 5,4 C 97 % 1025,5 hPa 0,0 mm 0,0 km/h (0 Bft) S 182 0 min 0,000 mm 0,0 UV-I 16 W/m 4,9 C 0,0 km/h (0 Bft)
24.09.2016 07:32 5,3 C 5,3 C 96 % 1025,5 hPa 0,0 mm 0,0 km/h (0 Bft) S 182 0 min 0,000 mm 0,0 UV-I 16 W/m 4,7 C 0,0 km/h (0 Bft)
24.09.2016 07:33 5,2 C 5,3 C 96 % 1025,5 hPa 0,0 mm 0,0 km/h (0 Bft) S 182 0 min 0,000 mm 0,0 UV-I 16 W/m 4,6 C 0,0 km/h (0 Bft)
24.09.2016 07:34 5,2 C 5,3 C 96 % 1025,5 hPa 0,0 mm 0,0 km/h (0 Bft) S 182 0 min 0,000 mm 0,0 UV-I 16 W/m 4,6 C 0,0 km/h (0 Bft)
24.09.2016 07:35 5,2 C 5,2 C 96 % 1025,5 hPa 0,0 mm 0,0 km/h (0 Bft) S 182 0 min 0,000 mm 0,0 UV-I 18 W/m 4,6 C 0,0 km/h (0 Bft)
24.09.2016 07:36 5,3 C 5,3 C 96 % 1025,5 hPa 0,0 mm 0,0 km/h (0 Bft) S 182 0 min 0,000 mm 0,0 UV-I 18 W/m 4,7 C 0,0 km/h (0 Bft)
24.09.2016 07:37 5,3 C 5,3 C 96 % 1025,5 hPa 0,0 mm 0,0 km/h (0 Bft) S 182 0 min 0,000 mm 0,0 UV-I 18 W/m 4,7 C 0,0 km/h (0 Bft)
24.09.2016 07:38 5,3 C 5,3 C 96 % 1025,6 hPa 0,0 mm 0,0 km/h (0 Bft) S 182 0 min 0,000 mm 0,0 UV-I 19 W/m 4,7 C 0,0 km/h (0 Bft)
24.09.2016 07:39 5,4 C 5,4 C 97 % 1025,6 hPa 0,0 mm 0,0 km/h (0 Bft) S 182 0 min 0,000 mm 0,0 UV-I 19 W/m 5,0 C 0,0 km/h (0 Bft)
24.09.2016 07:40 5,3 C 5,4 C 97 % 1025,6 hPa 0,0 mm 0,0 km/h (0 Bft) S 182 0 min 0,000 mm 0,0 UV-I 19 W/m 4,9 C 0,0 km/h (0 Bft)
24.09.2016 07:41 5,2 C 5,3 C 97 % 1025,6 hPa 0,0 mm 0,0 km/h (0 Bft) S 182 0 min 0,000 mm 0,0 UV-I 19 W/m 4,8 C 0,0 km/h (0 Bft)
24.09.2016 07:42 5,1 C 5,2 C 97 % 1025,6 hPa 0,0 mm 0,0 km/h (0 Bft) S 182 0 min 0,000 mm 0,0 UV-I 21 W/m 4,7 C 0,0 km/h (0 Bft)
24.09.2016 07:43 5,2 C 5,2 C 97 % 1025,6 hPa 0,0 mm 0,0 km/h (0 Bft) S 182 0 min 0,000 mm 0,0 UV-I 21 W/m 4,8 C 0,0 km/h (0 Bft)
24.09.2016 07:44 5,2 C 5,2 C 97 % 1025,6 hPa 0,0 mm 0,0 km/h (0 Bft) S 182 0 min 0,000 mm 0,0 UV-I 21 W/m 4,8 C 0,0 km/h (0 Bft)
24.09.2016 07:45 5,2 C 5,2 C 97 % 1025,7 hPa 0,0 mm 0,0 km/h (0 Bft) S 182 0 min 0,000 mm 0,0 UV-I 21 W/m 4,8 C 0,0 km/h (0 Bft)
24.09.2016 07:46 5,3 C 5,3 C 97 % 1025,7 hPa 0,0 mm 0,0 km/h (0 Bft) S 182 0 min 0,000 mm 0,0 UV-I 23 W/m 4,9 C 0,0 km/h (0 Bft)
24.09.2016 07:47 5,4 C 5,4 C 97 % 1025,7 hPa 0,0 mm 0,0 km/h (0 Bft) S 182 0 min 0,000 mm 0,0 UV-I 23 W/m 5,0 C 0,0 km/h (0 Bft)
24.09.2016 07:48 5,4 C 5,4 C 97 % 1025,7 hPa 0,0 mm 0,0 km/h (0 Bft) S 182 0 min 0,000 mm 0,0 UV-I 23 W/m 5,0 C 0,0 km/h (0 Bft)
24.09.2016 07:49 5,5 C 5,5 C 97 % 1025,8 hPa 0,0 mm 0,0 km/h (0 Bft) S 182 0 min 0,000 mm 0,0 UV-I 23 W/m 5,1 C 0,0 km/h (0 Bft)
24.09.2016 07:50 5,6 C 5,6 C 97 % 1025,7 hPa 0,0 mm 0,0 km/h (0 Bft) S 182 0 min 0,000 mm 0,0 UV-I 25 W/m 5,2 C 0,0 km/h (0 Bft)
24.09.2016 07:51 5,7 C 5,7 C 97 % 1025,7 hPa 0,0 mm 0,0 km/h (0 Bft) S 182 0 min 0,000 mm 0,0 UV-I 25 W/m 5,3 C 0,0 km/h (0 Bft)
24.09.2016 07:52 5,8 C 5,8 C 97 % 1025,8 hPa 0,0 mm 0,0 km/h (0 Bft) S 182 0 min 0,000 mm 0,0 UV-I 25 W/m 5,4 C 0,0 km/h (0 Bft)
24.09.2016 07:53 5,9 C 5,9 C 97 % 1025,7 hPa 0,0 mm 0,0 km/h (0 Bft) S 182 0 min 0,000 mm 0,0 UV-I 25 W/m 5,5 C 0,0 km/h (0 Bft)
24.09.2016 07:54 6,1 C 6,1 C 97 % 1025,8 hPa 0,0 mm 0,0 km/h (0 Bft) S 182 0 min 0,000 mm 0,0 UV-I 26 W/m 5,7 C 0,0 km/h (0 Bft)
24.09.2016 07:55 6,2 C 6,2 C 97 % 1025,8 hPa 0,0 mm 0,3 km/h (0 Bft) S 182 0 min 0,000 mm 0,0 UV-I 26 W/m 5,8 C 1,6 km/h (1 Bft)
24.09.2016 07:56 6,2 C 6,2 C 97 % 1025,8 hPa 0,0 mm 0,6 km/h (0 Bft) S 182 0 min 0,000 mm 0,0 UV-I 26 W/m 5,8 C 1,6 km/h (1 Bft)
24.09.2016 07:57 6,3 C 6,3 C 97 % 1025,8 hPa 0,0 mm 0,5 km/h (0 Bft) S 182 0 min 0,000 mm 0,0 UV-I 26 W/m 5,9 C 1,6 km/h (1 Bft)
24.09.2016 07:58 6,5 C 6,5 C 97 % 1025,8 hPa 0,0 mm 0,3 km/h (0 Bft) S 182 0 min 0,000 mm 0,0 UV-I 26 W/m 6,1 C 1,6 km/h (1 Bft)
24.09.2016 07:59 6,6 C 6,6 C 97 % 1025,8 hPa 0,0 mm 0,0 km/h (0 Bft) S 182 0 min 0,000 mm 0,0 UV-I 28 W/m 6,2 C 0,0 km/h (0 Bft)
24.09.2016 08:00 6,7 C 6,7 C 97 % 1025,7 hPa 0,0 mm 0,0 km/h (0 Bft) S 182 0 min 0,000 mm 0,0 UV-I 28 W/m 6,3 C 0,0 km/h (0 Bft)
24.09.2016 08:01 6,7 C 6,7 C 97 % 1025,8 hPa 0,0 mm 0,0 km/h (0 Bft) S 182 0 min 0,000 mm 0,0 UV-I 28 W/m 6,3 C 0,0 km/h (0 Bft)
24.09.2016 08:02 6,6 C 6,7 C 97 % 1025,8 hPa 0,0 mm 0,0 km/h (0 Bft) S 182 0 min 0,000 mm 0,0 UV-I 28 W/m 6,2 C 0,0 km/h (0 Bft)
24.09.2016 08:03 6,4 C 6,6 C 97 % 1025,8 hPa 0,0 mm 0,0 km/h (0 Bft) S 182 0 min 0,000 mm 0,0 UV-I 30 W/m 6,0 C 0,0 km/h (0 Bft)
24.09.2016 08:04 6,2 C 6,4 C 97 % 1025,8 hPa 0,0 mm 0,0 km/h (0 Bft) S 182 0 min 0,000 mm 0,0 UV-I 30 W/m 5,8 C 0,0 km/h (0 Bft)
24.09.2016 08:05 6,1 C 6,2 C 97 % 1025,8 hPa 0,0 mm 0,0 km/h (0 Bft) S 182 0 min 0,000 mm 0,0 UV-I 30 W/m 5,7 C 0,0 km/h (0 Bft)
24.09.2016 08:06 6,1 C 6,1 C 97 % 1025,8 hPa 0,0 mm 0,0 km/h (0 Bft) S 182 0 min 0,000 mm 0,0 UV-I 30 W/m 5,7 C 0,0 km/h (0 Bft)
24.09.2016 08:07 6,1 C 6,1 C 97 % 1025,8 hPa 0,0 mm 0,0 km/h (0 Bft) S 182 0 min 0,000 mm 0,0 UV-I 32 W/m 5,7 C 0,0 km/h (0 Bft)
24.09.2016 08:08 6,1 C 6,1 C 97 % 1025,8 hPa 0,0 mm 0,0 km/h (0 Bft) S 182 0 min 0,000 mm 0,0 UV-I 32 W/m 5,7 C 0,0 km/h (0 Bft)
24.09.2016 08:09 6,1 C 6,1 C 97 % 1025,8 hPa 0,0 mm 0,0 km/h (0 Bft) S 182 0 min 0,000 mm 0,0 UV-I 32 W/m 5,7 C 0,0 km/h (0 Bft)
24.09.2016 08:10 6,1 C 6,1 C 97 % 1025,8 hPa 0,0 mm 0,0 km/h (0 Bft) S 182 0 min 0,000 mm 0,0 UV-I 32 W/m 5,7 C 0,0 km/h (0 Bft)
24.09.2016 08:11 6,1 C 6,1 C 97 % 1025,8 hPa 0,0 mm 0,0 km/h (0 Bft) S 182 0 min 0,000 mm 0,0 UV-I 32 W/m 5,7 C 0,0 km/h (0 Bft)
24.09.2016 08:12 6,1 C 6,1 C 97 % 1025,9 hPa 0,0 mm 0,0 km/h (0 Bft) S 182 0 min 0,000 mm 0,0 UV-I 33 W/m 5,7 C 0,0 km/h (0 Bft)
24.09.2016 08:13 6,2 C 6,2 C 97 % 1025,8 hPa 0,0 mm 0,0 km/h (0 Bft) S 182 0 min 0,000 mm 0,0 UV-I 33 W/m 5,8 C 0,0 km/h (0 Bft)
24.09.2016 08:14 6,4 C 6,4 C 97 % 1025,8 hPa 0,0 mm 1,1 km/h (1 Bft) S 182 0 min 0,000 mm 0,0 UV-I 33 W/m 6,0 C 1,6 km/h (1 Bft)
24.09.2016 08:15 6,7 C 6,7 C 97 % 1025,9 hPa 0,0 mm 1,6 km/h (1 Bft) S 182 0 min 0,000 mm 0,0 UV-I 33 W/m 6,3 C 3,2 km/h (1 Bft)
24.09.2016 08:16 6,8 C 6,8 C 97 % 1025,9 hPa 0,0 mm 1,3 km/h (1 Bft) S 182 0 min 0,000 mm 0,0 UV-I 33 W/m 6,4 C 1,6 km/h (1 Bft)
24.09.2016 08:17 6,9 C 6,9 C 97 % 1025,9 hPa 0,0 mm 0,3 km/h (0 Bft) S 182 0 min 0,000 mm 0,0 UV-I 33 W/m 6,5 C 1,6 km/h (1 Bft)
24.09.2016 08:18 6,9 C 6,9 C 97 % 1025,9 hPa 0,0 mm 0,0 km/h (0 Bft) S 182 0 min 0,000 mm 0,0 UV-I 33 W/m 6,5 C 0,0 km/h (0 Bft)
24.09.2016 08:19 6,8 C 6,9 C 97 % 1025,9 hPa 0,0 mm 0,0 km/h (0 Bft) S 182 0 min 0,000 mm 0,0 UV-I 33 W/m 6,4 C 0,0 km/h (0 Bft)
24.09.2016 08:20 6,7 C 6,8 C 97 % 1025,9 hPa 0,0 mm 0,0 km/h (0 Bft) S 182 0 min 0,000 mm 0,0 UV-I 35 W/m 6,3 C 0,0 km/h (0 Bft)
24.09.2016 08:21 6,7 C 6,7 C 97 % 1025,8 hPa 0,0 mm 0,0 km/h (0 Bft) S 182 0 min 0,000 mm 0,0 UV-I 35 W/m 6,3 C 0,0 km/h (0 Bft)
24.09.2016 08:22 6,7 C 6,7 C 97 % 1025,8 hPa 0,0 mm 0,0 km/h (0 Bft) S 182 0 min 0,000 mm 0,0 UV-I 35 W/m 6,3 C 0,0 km/h (0 Bft)
24.09.2016 08:23 6,7 C 6,7 C 97 % 1025,8 hPa 0,0 mm 0,0 km/h (0 Bft) S 182 0 min 0,000 mm 0,0 UV-I 35 W/m 6,3 C 0,0 km/h (0 Bft)
24.09.2016 08:24 6,7 C 6,7 C 97 % 1025,8 hPa 0,0 mm 0,0 km/h (0 Bft) S 182 0 min 0,000 mm 0,0 UV-I 35 W/m 6,3 C 0,0 km/h (0 Bft)
24.09.2016 08:25 6,8 C 6,8 C 97 % 1025,8 hPa 0,0 mm 0,0 km/h (0 Bft) S 182 0 min 0,000 mm 0,0 UV-I 35 W/m 6,4 C 0,0 km/h (0 Bft)
24.09.2016 08:26 6,8 C 6,8 C 97 % 1025,8 hPa 0,0 mm 0,0 km/h (0 Bft) S 182 0 min 0,000 mm 0,0 UV-I 35 W/m 6,4 C 0,0 km/h (0 Bft)
24.09.2016 08:27 6,8 C 6,8 C 97 % 1025,8 hPa 0,0 mm 0,0 km/h (0 Bft) S 182 0 min 0,000 mm 0,0 UV-I 35 W/m 6,4 C 0,0 km/h (0 Bft)
24.09.2016 08:28 6,9 C 6,9 C 97 % 1025,8 hPa 0,0 mm 0,0 km/h (0 Bft) S 182 0 min 0,000 mm 0,0 UV-I 37 W/m 6,5 C 0,0 km/h (0 Bft)
24.09.2016 08:29 6,9 C 6,9 C 97 % 1025,8 hPa 0,0 mm 0,0 km/h (0 Bft) S 182 0 min 0,000 mm 0,0 UV-I 37 W/m 6,5 C 0,0 km/h (0 Bft)
24.09.2016 08:30 6,9 C 6,9 C 97 % 1025,8 hPa 0,0 mm 0,0 km/h (0 Bft) S 182 0 min 0,000 mm 0,0 UV-I 37 W/m 6,5 C 0,0 km/h (0 Bft)
24.09.2016 08:31 7,0 C 7,0 C 97 % 1025,8 hPa 0,0 mm 0,0 km/h (0 Bft) S 182 0 min 0,000 mm 0,0 UV-I 37 W/m 6,6 C 0,0 km/h (0 Bft)
24.09.2016 08:32 7,1 C 7,1 C 97 % 1025,8 hPa 0,0 mm 0,0 km/h (0 Bft) S 182 0 min 0,000 mm 0,0 UV-I 37 W/m 6,7 C 0,0 km/h (0 Bft)
24.09.2016 08:33 7,1 C 7,1 C 97 % 1025,8 hPa 0,0 mm 0,5 km/h (0 Bft) S 182 0 min 0,000 mm 0,0 UV-I 37 W/m 6,7 C 1,6 km/h (1 Bft)
24.09.2016 08:34 7,2 C 7,2 C 97 % 1025,8 hPa 0,0 mm 1,0 km/h (0 Bft) S 182 0 min 0,000 mm 0,0 UV-I 39 W/m 6,8 C 1,6 km/h (1 Bft)
24.09.2016 08:35 7,2 C 7,2 C 97 % 1025,8 hPa 0,0 mm 0,8 km/h (0 Bft) S 182 0 min 0,000 mm 0,0 UV-I 39 W/m 6,8 C 1,6 km/h (1 Bft)
24.09.2016 08:36 7,3 C 7,3 C 97 % 1025,8 hPa 0,0 mm 0,5 km/h (0 Bft) S 182 0 min 0,000 mm 0,0 UV-I 39 W/m 6,9 C 1,6 km/h (1 Bft)
24.09.2016 08:37 7,3 C 7,3 C 97 % 1025,7 hPa 0,0 mm 0,0 km/h (0 Bft) S 182 0 min 0,000 mm 0,0 UV-I 39 W/m 6,9 C 0,0 km/h (0 Bft)
24.09.2016 08:38 7,4 C 7,4 C 97 % 1025,7 hPa 0,0 mm 0,0 km/h (0 Bft) S 182 0 min 0,000 mm 0,0 UV-I 39 W/m 7,0 C 0,0 km/h (0 Bft)
24.09.2016 08:39 7,6 C 7,6 C 97 % 1025,7 hPa 0,0 mm 0,0 km/h (0 Bft) S 182 0 min 0,000 mm 0,0 UV-I 39 W/m 7,2 C 0,0 km/h (0 Bft)
24.09.2016 08:40 7,6 C 7,6 C 97 % 1025,7 hPa 0,0 mm 0,0 km/h (0 Bft) S 182 0 min 0,000 mm 0,0 UV-I 39 W/m 7,2 C 0,0 km/h (0 Bft)
24.09.2016 08:41 7,6 C 7,6 C 97 % 1025,7 hPa 0,0 mm 0,0 km/h (0 Bft) S 182 0 min 0,000 mm 0,0 UV-I 39 W/m 7,2 C 0,0 km/h (0 Bft)
24.09.2016 08:42 7,6 C 7,6 C 97 % 1025,7 hPa 0,0 mm 0,0 km/h (0 Bft) S 182 0 min 0,000 mm 0,0 UV-I 39 W/m 7,2 C 0,0 km/h (0 Bft)
24.09.2016 08:43 7,6 C 7,6 C 97 % 1025,6 hPa 0,0 mm 0,0 km/h (0 Bft) S 182 0 min 0,000 mm 0,0 UV-I 39 W/m 7,2 C 0,0 km/h (0 Bft)
24.09.2016 08:44 7,6 C 7,6 C 97 % 1025,6 hPa 0,0 mm 0,0 km/h (0 Bft) S 182 0 min 0,000 mm 0,0 UV-I 39 W/m 7,2 C 0,0 km/h (0 Bft)
24.09.2016 08:45 7,6 C 7,6 C 97 % 1025,6 hPa 0,0 mm 0,0 km/h (0 Bft) S 182 0 min 0,000 mm 0,0 UV-I 39 W/m 7,2 C 0,0 km/h (0 Bft)
24.09.2016 08:46 7,6 C 7,6 C 97 % 1025,6 hPa 0,0 mm 0,0 km/h (0 Bft) S 182 0 min 0,000 mm 0,0 UV-I 39 W/m 7,2 C 0,0 km/h (0 Bft)
24.09.2016 08:47 7,7 C 7,7 C 97 % 1025,6 hPa 0,0 mm 0,0 km/h (0 Bft) S 182 0 min 0,000 mm 0,0 UV-I 39 W/m 7,3 C 0,0 km/h (0 Bft)
24.09.2016 08:48 7,7 C 7,7 C 97 % 1025,6 hPa 0,0 mm 0,0 km/h (0 Bft) S 182 0 min 0,000 mm 0,0 UV-I 39 W/m 7,3 C 0,0 km/h (0 Bft)
24.09.2016 08:49 7,8 C 7,8 C 97 % 1025,6 hPa 0,0 mm 0,1 km/h (0 Bft) S 182 0 min 0,000 mm 0,0 UV-I 40 W/m 7,4 C 1,6 km/h (1 Bft)
24.09.2016 08:50 7,8 C 7,8 C 97 % 1025,6 hPa 0,0 mm 0,9 km/h (0 Bft) S 182 0 min 0,000 mm 0,0 UV-I 40 W/m 7,4 C 1,6 km/h (1 Bft)
24.09.2016 08:51 7,9 C 7,9 C 97 % 1025,6 hPa 0,0 mm 0,8 km/h (0 Bft) S 182 0 min 0,000 mm 0,0 UV-I 40 W/m 7,5 C 1,6 km/h (1 Bft)
24.09.2016 08:52 8,0 C 8,1 C 97 % 1025,6 hPa 0,0 mm 1,2 km/h (1 Bft) S 182 0 min 0,000 mm 0,0 UV-I 40 W/m 7,6 C 1,6 km/h (1 Bft)
24.09.2016 08:53 8,1 C 8,1 C 97 % 1025,6 hPa 0,0 mm 0,9 km/h (0 Bft) S 182 0 min 0,000 mm 0,0 UV-I 42 W/m 7,7 C 1,6 km/h (1 Bft)
24.09.2016 08:54 8,2 C 8,2 C 97 % 1025,6 hPa 0,0 mm 0,3 km/h (0 Bft) S 182 0 min 0,000 mm 0,0 UV-I 42 W/m 7,8 C 1,6 km/h (1 Bft)
24.09.2016 08:55 8,3 C 8,3 C 97 % 1025,6 hPa 0,0 mm 0,4 km/h (0 Bft) S 182 0 min 0,000 mm 0,0 UV-I 42 W/m 7,9 C 1,6 km/h (1 Bft)
24.09.2016 08:56 8,3 C 8,3 C 97 % 1025,6 hPa 0,0 mm 0,3 km/h (0 Bft) S 182 0 min 0,000 mm 0,0 UV-I 42 W/m 7,9 C 1,6 km/h (1 Bft)
24.09.2016 08:57 8,3 C 8,3 C 97 % 1025,6 hPa 0,0 mm 0,0 km/h (0 Bft) S 182 0 min 0,000 mm 0,0 UV-I 40 W/m 7,9 C 0,0 km/h (0 Bft)
24.09.2016 08:58 8,4 C 8,4 C 97 % 1025,6 hPa 0,0 mm 0,0 km/h (0 Bft) S 182 0 min 0,000 mm 0,0 UV-I 40 W/m 8,0 C 0,0 km/h (0 Bft)
24.09.2016 08:59 8,4 C 8,4 C 97 % 1025,5 hPa 0,0 mm 0,0 km/h (0 Bft) S 182 0 min 0,000 mm 0,0 UV-I 40 W/m 8,0 C 0,0 km/h (0 Bft)
24.09.2016 09:00 8,5 C 8,5 C 97 % 1025,6 hPa 0,0 mm 0,0 km/h (0 Bft) S 182 0 min 0,000 mm 0,0 UV-I 40 W/m 8,1 C 0,0 km/h (0 Bft)
24.09.2016 09:01 8,6 C 8,6 C 97 % 1025,6 hPa 0,0 mm 0,0 km/h (0 Bft) S 182 0 min 0,025 mm 0,0 UV-I 40 W/m 8,2 C 0,0 km/h (0 Bft)
24.09.2016 09:02 8,6 C 8,6 C 97 % 1025,6 hPa 0,0 mm 0,0 km/h (0 Bft) S 182 0 min 0,000 mm 0,0 UV-I 40 W/m 8,2 C 0,0 km/h (0 Bft)
24.09.2016 09:03 8,7 C 8,7 C 97 % 1025,6 hPa 0,0 mm 0,0 km/h (0 Bft) S 182 0 min 0,000 mm 0,0 UV-I 47 W/m 8,3 C 0,0 km/h (0 Bft)
24.09.2016 09:04 8,8 C 8,8 C 97 % 1025,5 hPa 0,0 mm 0,0 km/h (0 Bft) S 182 0 min 0,000 mm 0,8 UV-I 121 W/m 8,4 C 0,0 km/h (0 Bft)
24.09.2016 09:05 8,8 C 8,8 C 97 % 1025,5 hPa 0,0 mm 0,0 km/h (0 Bft) S 182 0 min 0,000 mm 0,9 UV-I 134 W/m 8,4 C 0,0 km/h (0 Bft)
24.09.2016 09:06 8,9 C 8,9 C 96 % 1025,5 hPa 0,0 mm 0,3 km/h (0 Bft) S 182 0 min 0,000 mm 0,9 UV-I 128 W/m 8,3 C 1,6 km/h (1 Bft)
24.09.2016 09:07 9,0 C 9,0 C 96 % 1025,5 hPa 0,0 mm 0,0 km/h (0 Bft) S 182 0 min 0,000 mm 0,9 UV-I 84 W/m 8,4 C 0,0 km/h (0 Bft)
24.09.2016 09:08 9,0 C 9,0 C 96 % 1025,5 hPa 0,0 mm 0,0 km/h (0 Bft) S 182 0 min 0,000 mm 0,0 UV-I 54 W/m 8,4 C 0,0 km/h (0 Bft)
24.09.2016 09:09 9,1 C 9,1 C 96 % 1025,5 hPa 0,0 mm 0,6 km/h (0 Bft) S 182 0 min 0,000 mm 0,0 UV-I 53 W/m 8,5 C 1,6 km/h (1 Bft)
24.09.2016 09:10 9,1 C 9,1 C 96 % 1025,5 hPa 0,0 mm 0,3 km/h (0 Bft) S 182 0 min 0,000 mm 0,0 UV-I 63 W/m 8,5 C 1,6 km/h (1 Bft)
24.09.2016 09:11 9,1 C 9,1 C 96 % 1025,5 hPa 0,0 mm 0,0 km/h (0 Bft) S 182 0 min 0,000 mm 0,9 UV-I 67 W/m 8,5 C 0,0 km/h (0 Bft)
24.09.2016 09:12 9,2 C 9,2 C 95 % 1025,5 hPa 0,0 mm 0,1 km/h (0 Bft) S 182 0 min 0,000 mm 0,9 UV-I 77 W/m 8,4 C 1,6 km/h (1 Bft)
24.09.2016 09:13 9,2 C 9,2 C 95 % 1025,5 hPa 0,0 mm 0,9 km/h (0 Bft) S 182 0 min 0,000 mm 0,9 UV-I 118 W/m 8,4 C 1,6 km/h (1 Bft)
24.09.2016 09:14 9,2 C 9,2 C 95 % 1025,5 hPa 0,0 mm 1,3 km/h (1 Bft) S 182 1 min 0,000 mm 1,0 UV-I 199 W/m 8,4 C 1,6 km/h (1 Bft)
24.09.2016 09:15 9,3 C 9,3 C 95 % 1025,5 hPa 0,0 mm 0,2 km/h (0 Bft) S 182 1 min 0,000 mm 1,1 UV-I 290 W/m 8,5 C 1,6 km/h (1 Bft)
24.09.2016 09:16 9,3 C 9,3 C 95 % 1025,5 hPa 0,0 mm 0,5 km/h (0 Bft) S 182 1 min 0,000 mm 1,2 UV-I 294 W/m 8,5 C 1,6 km/h (1 Bft)
24.09.2016 09:17 9,3 C 9,4 C 95 % 1025,5 hPa 0,0 mm 1,3 km/h (1 Bft) S 182 1 min 0,000 mm 1,2 UV-I 279 W/m 8,5 C 1,6 km/h (1 Bft)
24.09.2016 09:18 9,4 C 9,4 C 95 % 1025,5 hPa 0,0 mm 0,3 km/h (0 Bft) S 182 0 min 0,000 mm 1,1 UV-I 185 W/m 8,6 C 1,6 km/h (1 Bft)
24.09.2016 09:19 9,4 C 9,4 C 95 % 1025,4 hPa 0,0 mm 0,0 km/h (0 Bft) S 182 0 min 0,000 mm 1,0 UV-I 100 W/m 8,6 C 0,0 km/h (0 Bft)
24.09.2016 09:20 9,4 C 9,4 C 95 % 1025,5 hPa 0,0 mm 0,0 km/h (0 Bft) S 182 0 min 0,000 mm 1,0 UV-I 72 W/m 8,6 C 0,0 km/h (0 Bft)
24.09.2016 09:21 9,5 C 9,5 C 95 % 1025,5 hPa 0,0 mm 0,2 km/h (0 Bft) S 182 0 min 0,000 mm 1,0 UV-I 60 W/m 8,7 C 1,6 km/h (1 Bft)
24.09.2016 09:22 9,6 C 9,6 C 95 % 1025,4 hPa 0,0 mm 0,3 km/h (0 Bft) S 182 0 min 0,000 mm 1,0 UV-I 65 W/m 8,8 C 1,6 km/h (1 Bft)
24.09.2016 09:23 9,6 C 9,6 C 95 % 1025,5 hPa 0,0 mm 0,0 km/h (0 Bft) S 182 0 min 0,000 mm 1,0 UV-I 74 W/m 8,8 C 0,0 km/h (0 Bft)
24.09.2016 09:24 9,6 C 9,6 C 94 % 1025,5 hPa 0,0 mm 0,3 km/h (0 Bft) S 182 0 min 0,000 mm 1,0 UV-I 100 W/m 8,7 C 1,6 km/h (1 Bft)
24.09.2016 09:25 9,7 C 9,7 C 94 % 1025,5 hPa 0,0 mm 0,1 km/h (0 Bft) S 182 0 min 0,000 mm 1,1 UV-I 156 W/m 8,8 C 1,6 km/h (1 Bft)
24.09.2016 09:26 9,7 C 9,7 C 94 % 1025,5 hPa 0,0 mm 0,1 km/h (0 Bft) S 182 1 min 0,000 mm 1,2 UV-I 241 W/m 8,8 C 1,6 km/h (1 Bft)
24.09.2016 09:27 9,8 C 9,8 C 94 % 1025,5 hPa 0,0 mm 0,0 km/h (0 Bft) S 182 1 min 0,000 mm 1,3 UV-I 325 W/m 8,9 C 0,0 km/h (0 Bft)
24.09.2016 09:28 9,7 C 9,8 C 93 % 1025,5 hPa 0,0 mm 0,0 km/h (0 Bft) S 182 1 min 0,000 mm 1,4 UV-I 327 W/m 8,6 C 0,0 km/h (0 Bft)
24.09.2016 09:29 9,8 C 9,8 C 94 % 1025,5 hPa 0,0 mm 0,0 km/h (0 Bft) S 182 1 min 0,000 mm 1,4 UV-I 318 W/m 8,9 C 0,0 km/h (0 Bft)
24.09.2016 09:30 9,8 C 9,8 C 94 % 1025,5 hPa 0,0 mm 0,0 km/h (0 Bft) S 182 1 min 0,000 mm 1,3 UV-I 250 W/m 8,9 C 0,0 km/h (0 Bft)
24.09.2016 09:31 9,9 C 9,9 C 94 % 1025,5 hPa 0,0 mm 0,0 km/h (0 Bft) S 182 0 min 0,000 mm 1,2 UV-I 162 W/m 9,0 C 0,0 km/h (0 Bft)
24.09.2016 09:32 10,1 C 10,1 C 93 % 1025,4 hPa 0,0 mm 0,0 km/h (0 Bft) S 182 0 min 0,000 mm 1,1 UV-I 121 W/m 9,0 C 0,0 km/h (0 Bft)
24.09.2016 09:33 10,1 C 10,1 C 93 % 1025,5 hPa 0,0 mm 0,0 km/h (0 Bft) S 182 0 min 0,000 mm 1,1 UV-I 144 W/m 9,0 C 0,0 km/h (0 Bft)
24.09.2016 09:34 10,1 C 10,1 C 93 % 1025,5 hPa 0,0 mm 0,0 km/h (0 Bft) S 182 0 min 0,000 mm 1,2 UV-I 137 W/m 9,0 C 0,0 km/h (0 Bft)
24.09.2016 09:35 10,1 C 10,1 C 93 % 1025,5 hPa 0,0 mm 0,0 km/h (0 Bft) S 182 0 min 0,000 mm 1,1 UV-I 111 W/m 9,0 C 0,0 km/h (0 Bft)
24.09.2016 09:36 10,1 C 10,1 C 93 % 1025,5 hPa 0,0 mm 0,0 km/h (0 Bft) S 182 0 min 0,000 mm 1,2 UV-I 162 W/m 9,0 C 0,0 km/h (0 Bft)
24.09.2016 09:37 10,2 C 10,2 C 93 % 1025,5 hPa 0,0 mm 0,0 km/h (0 Bft) S 182 1 min 0,000 mm 1,3 UV-I 262 W/m 9,1 C 0,0 km/h (0 Bft)
24.09.2016 09:38 10,2 C 10,2 C 93 % 1025,5 hPa 0,0 mm 0,0 km/h (0 Bft) S 182 1 min 0,000 mm 1,5 UV-I 334 W/m 9,1 C 0,0 km/h (0 Bft)
24.09.2016 09:39 10,3 C 10,3 C 93 % 1025,5 hPa 0,0 mm 0,0 km/h (0 Bft) S 182 1 min 0,000 mm 1,5 UV-I 318 W/m 9,2 C 0,0 km/h (0 Bft)
24.09.2016 09:40 10,3 C 10,3 C 93 % 1025,5 hPa 0,0 mm 0,0 km/h (0 Bft) S 182 1 min 0,000 mm 1,5 UV-I 276 W/m 9,2 C 0,0 km/h (0 Bft)
24.09.2016 09:41 10,4 C 10,4 C 93 % 1025,4 hPa 0,0 mm 0,0 km/h (0 Bft) S 182 0 min 0,000 mm 1,4 UV-I 220 W/m 9,3 C 0,0 km/h (0 Bft)
24.09.2016 09:42 10,4 C 10,4 C 93 % 1025,4 hPa 0,0 mm 0,0 km/h (0 Bft) S 182 0 min 0,000 mm 1,4 UV-I 192 W/m 9,3 C 0,0 km/h (0 Bft)
24.09.2016 09:43 10,6 C 10,6 C 93 % 1025,5 hPa 0,0 mm 0,0 km/h (0 Bft) S 182 0 min 0,000 mm 1,3 UV-I 206 W/m 9,5 C 0,0 km/h (0 Bft)
24.09.2016 09:44 10,6 C 10,6 C 93 % 1025,4 hPa 0,0 mm 0,0 km/h (0 Bft) S 182 1 min 0,000 mm 1,5 UV-I 369 W/m 9,5 C 0,0 km/h (0 Bft)
24.09.2016 09:45 10,7 C 10,7 C 93 % 1025,4 hPa 0,0 mm 0,0 km/h (0 Bft) S 182 1 min 0,000 mm 1,6 UV-I 371 W/m 9,6 C 0,0 km/h (0 Bft)
24.09.2016 09:46 10,8 C 10,8 C 93 % 1025,5 hPa 0,0 mm 0,0 km/h (0 Bft) S 182 1 min 0,000 mm 1,7 UV-I 373 W/m 9,7 C 0,0 km/h (0 Bft)
24.09.2016 09:47 10,9 C 10,9 C 92 % 1025,5 hPa 0,0 mm 0,0 km/h (0 Bft) S 182 1 min 0,000 mm 1,7 UV-I 374 W/m 9,7 C 0,0 km/h (0 Bft)
24.09.2016 09:48 11,1 C 11,1 C 92 % 1025,5 hPa 0,0 mm 0,0 km/h (0 Bft) S 182 1 min 0,000 mm 1,7 UV-I 376 W/m 9,8 C 0,0 km/h (0 Bft)
24.09.2016 09:49 11,1 C 11,2 C 92 % 1025,5 hPa 0,0 mm 0,0 km/h (0 Bft) S 182 1 min 0,000 mm 1,7 UV-I 378 W/m 9,8 C 0,0 km/h (0 Bft)
24.09.2016 09:50 11,2 C 11,2 C 92 % 1025,5 hPa 0,0 mm 0,0 km/h (0 Bft) S 182 1 min 0,000 mm 1,7 UV-I 381 W/m 9,9 C 0,0 km/h (0 Bft)
24.09.2016 09:51 11,3 C 11,3 C 92 % 1025,5 hPa 0,0 mm 0,0 km/h (0 Bft) S 182 1 min 0,000 mm 1,7 UV-I 383 W/m 10,0 C 0,0 km/h (0 Bft)
24.09.2016 09:52 11,4 C 11,4 C 91 % 1025,4 hPa 0,0 mm 0,0 km/h (0 Bft) S 182 1 min 0,000 mm 1,8 UV-I 385 W/m 10,0 C 0,0 km/h (0 Bft)
24.09.2016 09:53 11,5 C 11,5 C 91 % 1025,5 hPa 0,0 mm 0,0 km/h (0 Bft) S 182 1 min 0,000 mm 1,8 UV-I 387 W/m 10,1 C 0,0 km/h (0 Bft)
24.09.2016 09:54 11,6 C 11,6 C 91 % 1025,5 hPa 0,0 mm 0,0 km/h (0 Bft) S 182 1 min 0,000 mm 1,8 UV-I 390 W/m 10,2 C 0,0 km/h (0 Bft)
24.09.2016 09:55 11,6 C 11,7 C 90 % 1025,4 hPa 0,0 mm 0,6 km/h (0 Bft) S 182 1 min 0,000 mm 1,8 UV-I 392 W/m 10,0 C 1,6 km/h (1 Bft)
24.09.2016 09:56 11,7 C 11,7 C 90 % 1025,5 hPa 0,0 mm 0,4 km/h (0 Bft) S 182 1 min 0,000 mm 1,8 UV-I 397 W/m 10,1 C 1,6 km/h (1 Bft)
24.09.2016 09:57 11,7 C 11,8 C 90 % 1025,4 hPa 0,0 mm 0,0 km/h (0 Bft) S 182 1 min 0,000 mm 1,9 UV-I 399 W/m 10,1 C 0,0 km/h (0 Bft)
24.09.2016 09:58 11,8 C 11,8 C 90 % 1025,5 hPa 0,0 mm 0,1 km/h (0 Bft) S 182 1 min 0,000 mm 1,9 UV-I 401 W/m 10,2 C 1,6 km/h (1 Bft)
24.09.2016 09:59 11,8 C 11,8 C 89 % 1025,4 hPa 0,0 mm 0,3 km/h (0 Bft) S 182 1 min 0,000 mm 1,9 UV-I 403 W/m 10,0 C 1,6 km/h (1 Bft)
24.09.2016 10:00 11,7 C 11,8 C 89 % 1025,4 hPa 0,0 mm 0,2 km/h (0 Bft) S 182 1 min 0,000 mm 1,9 UV-I 404 W/m 9,9 C 1,6 km/h (1 Bft)
24.09.2016 10:01 11,7 C 11,8 C 90 % 1025,5 hPa 0,0 mm 0,7 km/h (0 Bft) S 182 1 min 0,102 mm 1,9 UV-I 380 W/m 10,1 C 1,6 km/h (1 Bft)
24.09.2016 10:02 11,7 C 11,8 C 90 % 1025,5 hPa 0,0 mm 0,6 km/h (0 Bft) S 182 0 min 0,000 mm 1,9 UV-I 193 W/m 10,1 C 1,6 km/h (1 Bft)
24.09.2016 10:03 11,7 C 11,7 C 90 % 1025,4 hPa 0,0 mm 1,3 km/h (1 Bft) S 181 0 min 0,000 mm 1,7 UV-I 179 W/m 10,1 C 3,2 km/h (1 Bft)
24.09.2016 10:04 11,8 C 11,8 C 90 % 1025,5 hPa 0,0 mm 0,7 km/h (0 Bft) S 181 0 min 0,000 mm 1,4 UV-I 90 W/m 10,2 C 1,6 km/h (1 Bft)
24.09.2016 10:05 11,8 C 11,8 C 89 % 1025,5 hPa 0,0 mm 0,4 km/h (0 Bft) S 181 0 min 0,000 mm 1,3 UV-I 79 W/m 10,0 C 1,6 km/h (1 Bft)
24.09.2016 10:06 11,9 C 11,9 C 89 % 1025,5 hPa 0,0 mm 0,2 km/h (0 Bft) S 181 0 min 0,000 mm 1,3 UV-I 72 W/m 10,1 C 1,6 km/h (1 Bft)
24.09.2016 10:07 11,9 C 11,9 C 89 % 1025,5 hPa 0,0 mm 0,0 km/h (0 Bft) S 181 0 min 0,000 mm 1,3 UV-I 74 W/m 10,1 C 0,0 km/h (0 Bft)
24.09.2016 10:08 11,9 C 11,9 C 89 % 1025,5 hPa 0,0 mm 0,3 km/h (0 Bft) S 181 0 min 0,000 mm 1,4 UV-I 74 W/m 10,1 C 1,6 km/h (1 Bft)
24.09.2016 10:09 12,1 C 12,1 C 89 % 1025,5 hPa 0,0 mm 2,3 km/h (1 Bft) S-SO 153 1 min 0,000 mm 2,0 UV-I 420 W/m 10,3 C 4,8 km/h (1 Bft)
24.09.2016 10:10 12,1 C 12,1 C 89 % 1025,5 hPa 0,0 mm 2,1 km/h (1 Bft) S-SO 153 1 min 0,000 mm 2,1 UV-I 429 W/m 10,3 C 3,2 km/h (1 Bft)
24.09.2016 10:11 12,1 C 12,1 C 88 % 1025,5 hPa 0,0 mm 0,9 km/h (0 Bft) S-SO 153 1 min 0,000 mm 2,1 UV-I 432 W/m 10,2 C 3,2 km/h (1 Bft)
24.09.2016 10:12 12,2 C 12,2 C 88 % 1025,5 hPa 0,0 mm 4,0 km/h (1 Bft) O 97 1 min 0,000 mm 2,1 UV-I 434 W/m 10,3 C 6,4 km/h (2 Bft)
24.09.2016 10:13 12,3 C 12,3 C 88 % 1025,5 hPa 0,0 mm 5,5 km/h (1 Bft) O 88 1 min 0,000 mm 2,1 UV-I 436 W/m 10,4 C 6,4 km/h (2 Bft)
24.09.2016 10:14 12,4 C 12,4 C 87 % 1025,5 hPa 0,0 mm 3,2 km/h (1 Bft) O 89 1 min 0,000 mm 2,2 UV-I 439 W/m 10,3 C 4,8 km/h (1 Bft)
24.09.2016 10:15 12,4 C 12,4 C 87 % 1025,5 hPa 0,0 mm 2,6 km/h (1 Bft) O 89 1 min 0,000 mm 2,2 UV-I 443 W/m 10,3 C 3,2 km/h (1 Bft)
24.09.2016 10:16 12,4 C 12,4 C 87 % 1025,5 hPa 0,0 mm 1,9 km/h (1 Bft) O 89 1 min 0,000 mm 2,2 UV-I 443 W/m 10,3 C 3,2 km/h (1 Bft)
24.09.2016 10:17 12,4 C 12,4 C 88 % 1025,6 hPa 0,0 mm 1,7 km/h (1 Bft) N 360 1 min 0,000 mm 2,2 UV-I 446 W/m 10,5 C 4,8 km/h (1 Bft)
24.09.2016 10:18 12,5 C 12,5 C 89 % 1025,4 hPa 0,0 mm 2,3 km/h (1 Bft) N 360 1 min 0,000 mm 2,2 UV-I 448 W/m 10,7 C 3,2 km/h (1 Bft)
24.09.2016 10:19 12,4 C 12,5 C 88 % 1025,4 hPa 0,0 mm 1,3 km/h (1 Bft) N 360 1 min 0,000 mm 2,2 UV-I 452 W/m 10,5 C 3,2 km/h (1 Bft)
24.09.2016 10:20 12,4 C 12,4 C 88 % 1025,4 hPa 0,0 mm 1,5 km/h (1 Bft) NO 36 1 min 0,000 mm 2,3 UV-I 452 W/m 10,5 C 3,2 km/h (1 Bft)
24.09.2016 10:21 12,4 C 12,4 C 87 % 1025,5 hPa 0,0 mm 1,9 km/h (1 Bft) NO 37 1 min 0,000 mm 2,2 UV-I 378 W/m 10,3 C 4,8 km/h (1 Bft)
24.09.2016 10:22 12,6 C 12,6 C 87 % 1025,4 hPa 0,0 mm 2,6 km/h (1 Bft) NO 42 1 min 0,000 mm 2,1 UV-I 325 W/m 10,5 C 4,8 km/h (1 Bft)
24.09.2016 10:23 12,6 C 12,6 C 87 % 1025,4 hPa 0,0 mm 1,6 km/h (1 Bft) NO 42 1 min 0,000 mm 1,8 UV-I 325 W/m 10,5 C 3,2 km/h (1 Bft)
24.09.2016 10:24 12,7 C 12,7 C 86 % 1025,5 hPa 0,0 mm 3,4 km/h (1 Bft) NO 42 0 min 0,000 mm 1,7 UV-I 111 W/m 10,4 C 4,8 km/h (1 Bft)
24.09.2016 10:25 12,8 C 12,8 C 86 % 1025,4 hPa 0,0 mm 4,2 km/h (1 Bft) O-NO 71 0 min 0,000 mm 1,6 UV-I 109 W/m 10,5 C 6,4 km/h (2 Bft)
24.09.2016 10:26 12,9 C 12,9 C 87 % 1025,5 hPa 0,0 mm 5,0 km/h (1 Bft) O-NO 72 0 min 0,000 mm 1,6 UV-I 163 W/m 10,8 C 6,4 km/h (2 Bft)
24.09.2016 10:27 12,9 C 12,9 C 87 % 1025,5 hPa 0,0 mm 3,0 km/h (1 Bft) O-NO 58 0 min 0,000 mm 1,9 UV-I 255 W/m 10,8 C 4,8 km/h (1 Bft)
24.09.2016 10:28 12,9 C 12,9 C 87 % 1025,5 hPa 0,0 mm 3,4 km/h (1 Bft) O-NO 59 1 min 0,000 mm 2,0 UV-I 288 W/m 10,8 C 4,8 km/h (1 Bft)
24.09.2016 10:29 12,9 C 12,9 C 86 % 1025,5 hPa 0,0 mm 1,2 km/h (1 Bft) O-NO 59 0 min 0,000 mm 2,1 UV-I 278 W/m 10,6 C 1,6 km/h (1 Bft)
24.09.2016 10:30 12,8 C 12,9 C 86 % 1025,5 hPa 0,0 mm 0,3 km/h (0 Bft) O-NO 59 0 min 0,000 mm 2,0 UV-I 207 W/m 10,5 C 1,6 km/h (1 Bft)
24.09.2016 10:31 12,8 C 12,8 C 87 % 1025,5 hPa 0,0 mm 3,3 km/h (1 Bft) NO 53 0 min 0,000 mm 1,9 UV-I 174 W/m 10,7 C 6,4 km/h (2 Bft)
24.09.2016 10:32 12,8 C 12,8 C 87 % 1025,5 hPa 0,0 mm 0,5 km/h (0 Bft) NO 53 0 min 0,000 mm 1,9 UV-I 274 W/m 10,7 C 1,6 km/h (1 Bft)
24.09.2016 10:33 12,8 C 12,8 C 87 % 1025,5 hPa 0,0 mm 0,7 km/h (0 Bft) NO 53 0 min 0,000 mm 2,2 UV-I 274 W/m 10,7 C 1,6 km/h (1 Bft)
24.09.2016 10:34 12,9 C 12,9 C 87 % 1025,6 hPa 0,0 mm 2,4 km/h (1 Bft) NO 53 1 min 0,000 mm 2,5 UV-I 485 W/m 10,8 C 3,2 km/h (1 Bft)
24.09.2016 10:35 12,8 C 12,9 C 86 % 1025,6 hPa 0,0 mm 3,2 km/h (1 Bft) O-NO 71 1 min 0,000 mm 2,5 UV-I 438 W/m 10,5 C 4,8 km/h (1 Bft)
24.09.2016 10:36 12,9 C 12,9 C 86 % 1025,5 hPa 0,0 mm 5,1 km/h (1 Bft) O-NO 57 1 min 0,000 mm 2,6 UV-I 485 W/m 10,6 C 11,3 km/h (2 Bft)
24.09.2016 10:37 13,1 C 13,1 C 87 % 1025,5 hPa 0,0 mm 4,0 km/h (1 Bft) O 98 1 min 0,000 mm 2,6 UV-I 492 W/m 11,0 C 6,4 km/h (2 Bft)
24.09.2016 10:38 13,2 C 13,2 C 85 % 1025,5 hPa 0,0 mm 2,4 km/h (1 Bft) O 98 1 min 0,000 mm 2,6 UV-I 496 W/m 10,7 C 6,4 km/h (2 Bft)
24.09.2016 10:39 13,2 C 13,2 C 85 % 1025,5 hPa 0,0 mm 2,1 km/h (1 Bft) O 98 1 min 0,000 mm 2,6 UV-I 499 W/m 10,7 C 3,2 km/h (1 Bft)
24.09.2016 10:40 13,1 C 13,2 C 85 % 1025,5 hPa 0,0 mm 0,9 km/h (0 Bft) O 98 1 min 0,000 mm 2,7 UV-I 503 W/m 10,6 C 3,2 km/h (1 Bft)
24.09.2016 10:41 13,1 C 13,1 C 85 % 1025,5 hPa 0,0 mm 3,8 km/h (1 Bft) O-SO 111 1 min 0,000 mm 2,7 UV-I 504 W/m 10,6 C 4,8 km/h (1 Bft)
24.09.2016 10:42 13,2 C 13,2 C 85 % 1025,6 hPa 0,0 mm 1,2 km/h (1 Bft) O-SO 111 1 min 0,000 mm 2,7 UV-I 506 W/m 10,7 C 3,2 km/h (1 Bft)
24.09.2016 10:43 13,3 C 13,3 C 85 % 1025,5 hPa 0,0 mm 2,0 km/h (1 Bft) NO 42 1 min 0,000 mm 2,7 UV-I 508 W/m 10,8 C 3,2 km/h (1 Bft)
24.09.2016 10:44 13,3 C 13,3 C 85 % 1025,6 hPa 0,0 mm 3,2 km/h (1 Bft) O-SO 109 1 min 0,000 mm 2,8 UV-I 512 W/m 10,8 C 4,8 km/h (1 Bft)
24.09.2016 10:45 13,3 C 13,3 C 85 % 1025,6 hPa 0,0 mm 4,7 km/h (1 Bft) N-NO 26 1 min 0,000 mm 2,8 UV-I 513 W/m 10,8 C 6,4 km/h (2 Bft)
24.09.2016 10:46 13,4 C 13,4 C 85 % 1025,6 hPa 0,0 mm 3,5 km/h (1 Bft) O-SO 107 1 min 0,000 mm 2,9 UV-I 515 W/m 10,9 C 6,4 km/h (2 Bft)
24.09.2016 10:47 13,4 C 13,4 C 84 % 1025,6 hPa 0,0 mm 2,2 km/h (1 Bft) O-SO 107 1 min 0,000 mm 2,9 UV-I 517 W/m 10,8 C 3,2 km/h (1 Bft)
24.09.2016 10:48 13,5 C 13,5 C 85 % 1025,5 hPa 0,0 mm 2,3 km/h (1 Bft) O-SO 106 1 min 0,000 mm 2,9 UV-I 520 W/m 11,0 C 3,2 km/h (1 Bft)
24.09.2016 10:49 13,7 C 13,7 C 85 % 1025,6 hPa 0,0 mm 2,5 km/h (1 Bft) O-NO 59 1 min 0,000 mm 2,9 UV-I 522 W/m 11,2 C 4,8 km/h (1 Bft)
24.09.2016 10:50 13,7 C 13,7 C 86 % 1025,6 hPa 0,0 mm 4,1 km/h (1 Bft) N 9 1 min 0,000 mm 3,0 UV-I 522 W/m 11,4 C 11,3 km/h (2 Bft)
24.09.2016 10:51 13,9 C 13,9 C 87 % 1025,6 hPa 0,0 mm 5,6 km/h (1 Bft) SO 126 1 min 0,000 mm 3,0 UV-I 524 W/m 11,8 C 9,7 km/h (2 Bft)
24.09.2016 10:52 14,1 C 14,1 C 83 % 1025,6 hPa 0,0 mm 2,5 km/h (1 Bft) O-SO 105 1 min 0,000 mm 3,0 UV-I 531 W/m 11,3 C 4,8 km/h (1 Bft)
24.09.2016 10:53 14,0 C 14,1 C 83 % 1025,6 hPa 0,0 mm 3,4 km/h (1 Bft) O-NO 78 1 min 0,000 mm 3,0 UV-I 529 W/m 11,2 C 6,4 km/h (2 Bft)
24.09.2016 10:54 14,0 C 14,0 C 85 % 1025,6 hPa 0,0 mm 4,2 km/h (1 Bft) NO 51 1 min 0,000 mm 3,0 UV-I 529 W/m 11,5 C 6,4 km/h (2 Bft)
24.09.2016 10:55 13,9 C 14,0 C 83 % 1025,6 hPa 0,0 mm 4,3 km/h (1 Bft) N-NO 32 1 min 0,000 mm 3,0 UV-I 531 W/m 11,1 C 6,4 km/h (2 Bft)
24.09.2016 10:56 14,0 C 14,0 C 84 % 1025,6 hPa 0,0 mm 6,5 km/h (2 Bft) N-NO 12 1 min 0,000 mm 3,1 UV-I 534 W/m 11,3 C 8,0 km/h (2 Bft)
24.09.2016 10:57 14,2 C 14,2 C 84 % 1025,6 hPa 0,0 mm 3,4 km/h (1 Bft) NO 36 1 min 0,000 mm 3,1 UV-I 534 W/m 11,5 C 4,8 km/h (1 Bft)
24.09.2016 10:58 14,1 C 14,2 C 82 % 1025,6 hPa 0,0 mm 3,0 km/h (1 Bft) O-SO 119 1 min 0,000 mm 3,1 UV-I 529 W/m 11,1 C 6,4 km/h (2 Bft)
24.09.2016 10:59 14,1 C 14,1 C 84 % 1025,6 hPa 0,0 mm 4,1 km/h (1 Bft) N-NO 32 1 min 0,000 mm 3,1 UV-I 531 W/m 11,4 C 6,4 km/h (2 Bft)
24.09.2016 11:00 14,1 C 14,1 C 84 % 1025,6 hPa 0,0 mm 4,5 km/h (1 Bft) N-NO 15 1 min 0,000 mm 3,1 UV-I 538 W/m 11,4 C 8,0 km/h (2 Bft)
24.09.2016 11:01 14,2 C 14,2 C 83 % 1025,7 hPa 0,0 mm 5,0 km/h (1 Bft) N-NO 20 1 min 0,203 mm 3,1 UV-I 543 W/m 11,4 C 9,7 km/h (2 Bft)
24.09.2016 11:02 14,3 C 14,3 C 83 % 1025,7 hPa 0,0 mm 3,5 km/h (1 Bft) NO 55 1 min 0,000 mm 3,1 UV-I 543 W/m 11,5 C 4,8 km/h (1 Bft)
24.09.2016 11:03 14,4 C 14,4 C 85 % 1025,6 hPa 0,0 mm 3,0 km/h (1 Bft) NO 44 1 min 0,000 mm 3,1 UV-I 543 W/m 11,9 C 9,7 km/h (2 Bft)
24.09.2016 11:04 14,4 C 14,4 C 82 % 1025,6 hPa 0,0 mm 7,6 km/h (2 Bft) NO 49 1 min 0,000 mm 3,2 UV-I 548 W/m 11,4 C 14,5 km/h (3 Bft)
24.09.2016 11:05 14,3 C 14,4 C 82 % 1025,7 hPa 0,0 mm 4,2 km/h (1 Bft) N 5 1 min 0,000 mm 3,2 UV-I 548 W/m 11,3 C 6,4 km/h (2 Bft)
24.09.2016 11:06 14,3 C 14,3 C 83 % 1025,7 hPa 0,0 mm 4,8 km/h (1 Bft) NW 324 1 min 0,000 mm 3,2 UV-I 548 W/m 11,5 C 8,0 km/h (2 Bft)
24.09.2016 11:07 14,5 C 14,5 C 85 % 1025,6 hPa 0,0 mm 5,9 km/h (2 Bft) N 360 1 min 0,000 mm 3,2 UV-I 548 W/m 12,0 C 8,0 km/h (2 Bft)
24.09.2016 11:08 14,6 C 14,6 C 83 % 1025,6 hPa 0,0 mm 3,6 km/h (1 Bft) N-NW 334 1 min 0,000 mm 3,2 UV-I 548 W/m 11,7 C 6,4 km/h (2 Bft)
24.09.2016 11:09 14,6 C 14,6 C 82 % 1025,7 hPa 0,0 mm 5,2 km/h (1 Bft) N 351 1 min 0,000 mm 3,2 UV-I 550 W/m 11,6 C 8,0 km/h (2 Bft)
24.09.2016 11:10 14,6 C 14,6 C 82 % 1025,7 hPa 0,0 mm 9,3 km/h (2 Bft) N 355 1 min 0,000 mm 3,2 UV-I 555 W/m 11,6 C 14,5 km/h (3 Bft)
24.09.2016 11:11 14,6 C 14,6 C 83 % 1025,7 hPa 0,0 mm 5,0 km/h (1 Bft) N-NW 339 1 min 0,000 mm 3,3 UV-I 557 W/m 11,7 C 8,0 km/h (2 Bft)
24.09.2016 11:12 14,7 C 14,7 C 84 % 1025,6 hPa 0,0 mm 2,0 km/h (1 Bft) NW 322 1 min 0,000 mm 3,2 UV-I 564 W/m 12,0 C 4,8 km/h (1 Bft)
24.09.2016 11:13 14,7 C 14,7 C 83 % 1025,6 hPa 0,0 mm 3,4 km/h (1 Bft) O 96 1 min 0,000 mm 3,3 UV-I 563 W/m 11,8 C 6,4 km/h (2 Bft)
24.09.2016 11:14 14,7 C 14,7 C 80 % 1025,6 hPa 0,0 mm 2,7 km/h (1 Bft) O 96 1 min 0,000 mm 3,3 UV-I 559 W/m 11,3 C 4,8 km/h (1 Bft)
24.09.2016 11:15 14,6 C 14,7 C 80 % 1025,6 hPa 0,0 mm 1,1 km/h (1 Bft) NO 55 1 min 0,000 mm 3,3 UV-I 566 W/m 11,2 C 3,2 km/h (1 Bft)
24.09.2016 11:16 14,5 C 14,6 C 83 % 1025,6 hPa 0,0 mm 2,3 km/h (1 Bft) NO 50 1 min 0,000 mm 3,4 UV-I 568 W/m 11,6 C 3,2 km/h (1 Bft)
24.09.2016 11:17 14,6 C 14,6 C 84 % 1025,5 hPa 0,0 mm 4,2 km/h (1 Bft) N-NO 19 1 min 0,000 mm 3,3 UV-I 570 W/m 11,9 C 6,4 km/h (2 Bft)
24.09.2016 11:18 14,6 C 14,6 C 81 % 1025,5 hPa 0,0 mm 3,0 km/h (1 Bft) NO 40 1 min 0,000 mm 3,4 UV-I 570 W/m 11,4 C 3,2 km/h (1 Bft)
24.09.2016 11:19 14,7 C 14,7 C 83 % 1025,6 hPa 0,0 mm 4,8 km/h (1 Bft) NO 42 1 min 0,000 mm 3,4 UV-I 570 W/m 11,8 C 8,0 km/h (2 Bft)
24.09.2016 11:20 14,8 C 14,8 C 81 % 1025,6 hPa 0,0 mm 9,3 km/h (2 Bft) NO 42 1 min 0,000 mm 3,4 UV-I 570 W/m 11,6 C 14,5 km/h (3 Bft)
24.09.2016 11:21 14,8 C 14,8 C 80 % 1025,5 hPa 0,0 mm 4,9 km/h (1 Bft) NO 46 1 min 0,000 mm 3,4 UV-I 577 W/m 11,4 C 9,7 km/h (2 Bft)
24.09.2016 11:22 14,8 C 14,8 C 80 % 1025,5 hPa 0,0 mm 4,0 km/h (1 Bft) O-NO 58 1 min 0,000 mm 3,4 UV-I 570 W/m 11,4 C 4,8 km/h (1 Bft)
24.09.2016 11:23 14,8 C 14,8 C 81 % 1025,5 hPa 0,0 mm 5,8 km/h (2 Bft) N-NO 23 1 min 0,000 mm 3,4 UV-I 580 W/m 11,6 C 14,5 km/h (3 Bft)
24.09.2016 11:24 14,8 C 14,8 C 78 % 1025,5 hPa 0,0 mm 9,8 km/h (2 Bft) N-NO 30 1 min 0,000 mm 3,5 UV-I 584 W/m 11,0 C 14,5 km/h (3 Bft)
24.09.2016 11:25 14,9 C 14,9 C 79 % 1025,5 hPa 0,0 mm 7,5 km/h (2 Bft) O-NO 62 1 min 0,000 mm 3,4 UV-I 571 W/m 11,3 C 11,3 km/h (2 Bft)
24.09.2016 11:26 14,9 C 14,9 C 78 % 1025,5 hPa 0,0 mm 6,7 km/h (2 Bft) N-NO 20 1 min 0,000 mm 2,5 UV-I 571 W/m 11,1 C 11,3 km/h (2 Bft)
24.09.2016 11:27 15,1 C 15,1 C 79 % 1025,5 hPa 0,0 mm 6,0 km/h (2 Bft) O-NO 74 0 min 0,000 mm 3,2 UV-I 251 W/m 11,5 C 9,7 km/h (2 Bft)
24.09.2016 11:28 15,0 C 15,1 C 80 % 1025,5 hPa 0,0 mm 4,4 km/h (1 Bft) NO 45 0 min 0,000 mm 3,5 UV-I 251 W/m 11,6 C 11,3 km/h (2 Bft)
24.09.2016 11:29 14,9 C 15,0 C 80 % 1025,5 hPa 0,0 mm 8,5 km/h (2 Bft) O-SO 122 1 min 0,000 mm 3,5 UV-I 589 W/m 11,5 C 11,3 km/h (2 Bft)
24.09.2016 11:30 14,9 C 14,9 C 81 % 1025,5 hPa 0,0 mm 2,8 km/h (1 Bft) NO 55 1 min 0,000 mm 3,5 UV-I 592 W/m 11,7 C 4,8 km/h (1 Bft)
24.09.2016 11:31 14,9 C 14,9 C 80 % 1025,6 hPa 0,0 mm 2,5 km/h (1 Bft) O-NO 76 1 min 0,000 mm 3,5 UV-I 557 W/m 11,5 C 4,8 km/h (1 Bft)
24.09.2016 11:32 14,9 C 14,9 C 80 % 1025,6 hPa 0,0 mm 5,2 km/h (1 Bft) NO 38 1 min 0,000 mm 3,5 UV-I 603 W/m 11,5 C 8,0 km/h (2 Bft)
24.09.2016 11:33 14,9 C 15,0 C 80 % 1025,6 hPa 0,0 mm 7,0 km/h (2 Bft) NO 49 1 min 0,000 mm 2,9 UV-I 603 W/m 11,5 C 9,7 km/h (2 Bft)
24.09.2016 11:34 14,7 C 14,9 C 78 % 1025,6 hPa 0,0 mm 5,0 km/h (1 Bft) O-NO 78 1 min 0,000 mm 3,2 UV-I 603 W/m 10,9 C 6,4 km/h (2 Bft)
24.09.2016 11:35 14,7 C 14,7 C 79 % 1025,5 hPa 0,0 mm 4,3 km/h (1 Bft) NO 38 1 min 0,000 mm 3,6 UV-I 603 W/m 11,1 C 6,4 km/h (2 Bft)
24.09.2016 11:36 14,7 C 14,7 C 79 % 1025,6 hPa 0,0 mm 4,7 km/h (1 Bft) NO 43 1 min 0,000 mm 3,5 UV-I 596 W/m 11,1 C 8,0 km/h (2 Bft)
24.09.2016 11:37 14,8 C 14,8 C 78 % 1025,6 hPa 0,0 mm 4,6 km/h (1 Bft) NO 49 1 min 0,000 mm 3,6 UV-I 599 W/m 11,0 C 8,0 km/h (2 Bft)
24.09.2016 11:38 14,9 C 14,9 C 80 % 1025,6 hPa 0,0 mm 5,4 km/h (1 Bft) O-NO 64 1 min 0,000 mm 3,6 UV-I 599 W/m 11,5 C 8,0 km/h (2 Bft)
24.09.2016 11:39 15,0 C 15,0 C 74 % 1025,5 hPa 0,0 mm 4,0 km/h (1 Bft) N-NO 29 1 min 0,000 mm 3,6 UV-I 596 W/m 10,4 C 6,4 km/h (2 Bft)
24.09.2016 11:40 15,0 C 15,0 C 77 % 1025,5 hPa 0,0 mm 6,3 km/h (2 Bft) NO 45 1 min 0,000 mm 3,6 UV-I 594 W/m 11,0 C 8,0 km/h (2 Bft)
24.09.2016 11:41 14,9 C 15,0 C 75 % 1025,6 hPa 0,0 mm 5,4 km/h (1 Bft) N 9 1 min 0,000 mm 3,6 UV-I 603 W/m 10,5 C 11,3 km/h (2 Bft)
24.09.2016 11:42 15,1 C 15,1 C 76 % 1025,4 hPa 0,0 mm 5,6 km/h (1 Bft) O-NO 61 1 min 0,000 mm 3,7 UV-I 605 W/m 10,9 C 9,7 km/h (2 Bft)
24.09.2016 11:43 15,1 C 15,1 C 77 % 1025,4 hPa 0,0 mm 7,4 km/h (2 Bft) O-NO 67 1 min 0,000 mm 3,7 UV-I 608 W/m 11,1 C 9,7 km/h (2 Bft)
24.09.2016 11:44 15,0 C 15,1 C 75 % 1025,4 hPa 0,0 mm 5,7 km/h (1 Bft) O-NO 71 1 min 0,000 mm 3,7 UV-I 610 W/m 10,6 C 11,3 km/h (2 Bft)
24.09.2016 11:45 14,9 C 15,0 C 77 % 1025,4 hPa 0,0 mm 4,6 km/h (1 Bft) O-NO 70 1 min 0,000 mm 3,8 UV-I 610 W/m 10,9 C 6,4 km/h (2 Bft)
24.09.2016 11:46 14,8 C 14,9 C 77 % 1025,4 hPa 0,0 mm 4,6 km/h (1 Bft) NO 55 1 min 0,000 mm 3,8 UV-I 612 W/m 10,8 C 6,4 km/h (2 Bft)
24.09.2016 11:47 14,8 C 14,9 C 76 % 1025,4 hPa 0,0 mm 5,9 km/h (2 Bft) NO 54 1 min 0,000 mm 3,8 UV-I 610 W/m 10,6 C 8,0 km/h (2 Bft)
24.09.2016 11:48 14,8 C 14,9 C 78 % 1025,4 hPa 0,0 mm 7,9 km/h (2 Bft) O-NO 77 1 min 0,000 mm 3,8 UV-I 612 W/m 11,0 C 12,9 km/h (3 Bft)
24.09.2016 11:49 14,8 C 14,8 C 76 % 1025,4 hPa 0,0 mm 3,8 km/h (1 Bft) NO 35 1 min 0,000 mm 3,8 UV-I 615 W/m 10,6 C 8,0 km/h (2 Bft)
24.09.2016 11:50 14,9 C 14,9 C 77 % 1025,4 hPa 0,0 mm 7,4 km/h (2 Bft) O-NO 57 1 min 0,000 mm 3,8 UV-I 615 W/m 10,9 C 12,9 km/h (3 Bft)
24.09.2016 11:51 14,9 C 14,9 C 77 % 1025,4 hPa 0,0 mm 6,3 km/h (2 Bft) NO 54 1 min 0,000 mm 3,8 UV-I 617 W/m 10,9 C 8,0 km/h (2 Bft)
24.09.2016 11:52 15,0 C 15,0 C 76 % 1025,3 hPa 0,0 mm 4,7 km/h (1 Bft) NO 45 1 min 0,000 mm 3,8 UV-I 619 W/m 10,8 C 8,0 km/h (2 Bft)
24.09.2016 11:53 15,0 C 15,0 C 77 % 1025,4 hPa 0,0 mm 6,5 km/h (2 Bft) N-NO 33 1 min 0,000 mm 3,8 UV-I 617 W/m 11,0 C 8,0 km/h (2 Bft)
24.09.2016 11:54 15,1 C 15,1 C 76 % 1025,3 hPa 0,0 mm 3,6 km/h (1 Bft) N-NO 18 1 min 0,000 mm 3,8 UV-I 615 W/m 10,9 C 6,4 km/h (2 Bft)
24.09.2016 11:55 15,2 C 15,2 C 76 % 1025,3 hPa 0,0 mm 5,0 km/h (1 Bft) NO 51 1 min 0,000 mm 3,8 UV-I 619 W/m 11,0 C 8,0 km/h (2 Bft)
24.09.2016 11:56 15,2 C 15,2 C 76 % 1025,3 hPa 0,0 mm 4,4 km/h (1 Bft) N-NW 335 1 min 0,000 mm 3,8 UV-I 617 W/m 11,0 C 6,4 km/h (2 Bft)
24.09.2016 11:57 15,2 C 15,2 C 75 % 1025,3 hPa 0,0 mm 2,1 km/h (1 Bft) N 5 1 min 0,000 mm 3,9 UV-I 621 W/m 10,8 C 4,8 km/h (1 Bft)
24.09.2016 11:58 15,2 C 15,2 C 81 % 1025,3 hPa 0,0 mm 4,0 km/h (1 Bft) N-NO 18 1 min 0,000 mm 3,9 UV-I 622 W/m 12,0 C 6,4 km/h (2 Bft)
24.09.2016 11:59 15,4 C 15,4 C 77 % 1025,3 hPa 0,0 mm 6,4 km/h (2 Bft) N-NO 33 1 min 0,000 mm 3,9 UV-I 626 W/m 11,4 C 11,3 km/h (2 Bft)
24.09.2016 12:00 15,4 C 15,4 C 75 % 1025,3 hPa 0,0 mm 6,9 km/h (2 Bft) NO 53 1 min 0,000 mm 3,9 UV-I 626 W/m 11,0 C 11,3 km/h (2 Bft)
24.09.2016 12:01 15,4 C 15,4 C 74 % 1025,3 hPa 0,0 mm 5,2 km/h (1 Bft) O 80 1 min 0,305 mm 3,9 UV-I 626 W/m 10,8 C 6,4 km/h (2 Bft)
24.09.2016 12:02 15,3 C 15,4 C 76 % 1025,2 hPa 0,0 mm 6,2 km/h (2 Bft) NO 49 1 min 0,000 mm 3,9 UV-I 628 W/m 11,1 C 8,0 km/h (2 Bft)
24.09.2016 12:03 15,3 C 15,3 C 75 % 1025,3 hPa 0,0 mm 6,1 km/h (2 Bft) N-NO 22 1 min 0,000 mm 3,9 UV-I 629 W/m 10,9 C 8,0 km/h (2 Bft)
24.09.2016 12:04 15,2 C 15,3 C 77 % 1025,2 hPa 0,0 mm 3,1 km/h (1 Bft) NO 39 1 min 0,000 mm 3,9 UV-I 629 W/m 11,2 C 4,8 km/h (1 Bft)
24.09.2016 12:05 15,3 C 15,3 C 78 % 1025,3 hPa 0,0 mm 3,8 km/h (1 Bft) N-NW 342 1 min 0,000 mm 3,9 UV-I 629 W/m 11,5 C 6,4 km/h (2 Bft)
24.09.2016 12:06 15,6 C 15,6 C 81 % 1025,2 hPa 0,0 mm 5,2 km/h (1 Bft) N-NO 22 1 min 0,000 mm 4,0 UV-I 635 W/m 12,3 C 8,0 km/h (2 Bft)
24.09.2016 12:07 15,7 C 15,7 C 78 % 1025,2 hPa 0,0 mm 6,4 km/h (2 Bft) NO 49 1 min 0,000 mm 4,0 UV-I 633 W/m 11,9 C 11,3 km/h (2 Bft)
24.09.2016 12:08 15,8 C 15,8 C 75 % 1025,2 hPa 0,0 mm 5,3 km/h (1 Bft) NO 40 1 min 0,000 mm 4,0 UV-I 633 W/m 11,4 C 11,3 km/h (2 Bft)
24.09.2016 12:09 15,7 C 15,8 C 76 % 1025,2 hPa 0,0 mm 4,5 km/h (1 Bft) O-NO 59 1 min 0,000 mm 4,0 UV-I 631 W/m 11,5 C 6,4 km/h (2 Bft)
24.09.2016 12:10 15,8 C 15,8 C 78 % 1025,2 hPa 0,0 mm 7,1 km/h (2 Bft) NO 43 1 min 0,000 mm 4,0 UV-I 635 W/m 12,0 C 8,0 km/h (2 Bft)
24.09.2016 12:11 15,7 C 15,8 C 78 % 1025,3 hPa 0,0 mm 5,5 km/h (1 Bft) N-NW 333 1 min 0,000 mm 4,0 UV-I 635 W/m 11,9 C 8,0 km/h (2 Bft)
24.09.2016 12:12 15,7 C 15,8 C 76 % 1025,3 hPa 0,0 mm 6,4 km/h (2 Bft) N 9 1 min 0,000 mm 4,0 UV-I 638 W/m 11,5 C 8,0 km/h (2 Bft)
24.09.2016 12:13 15,8 C 15,8 C 76 % 1025,2 hPa 0,0 mm 5,6 km/h (1 Bft) N-NW 335 1 min 0,000 mm 4,0 UV-I 638 W/m 11,6 C 8,0 km/h (2 Bft)
24.09.2016 12:14 15,8 C 15,8 C 78 % 1025,2 hPa 0,0 mm 2,2 km/h (1 Bft) NO 54 1 min 0,000 mm 4,0 UV-I 636 W/m 12,0 C 6,4 km/h (2 Bft)
24.09.2016 12:15 15,8 C 15,9 C 78 % 1025,3 hPa 0,0 mm 7,0 km/h (2 Bft) O 80 1 min 0,000 mm 4,0 UV-I 638 W/m 12,0 C 9,7 km/h (2 Bft)
24.09.2016 12:16 15,6 C 15,8 C 77 % 1025,2 hPa 0,0 mm 5,6 km/h (1 Bft) NO 49 1 min 0,000 mm 4,0 UV-I 640 W/m 11,6 C 8,0 km/h (2 Bft)
24.09.2016 12:17 15,6 C 15,6 C 78 % 1025,2 hPa 0,0 mm 4,9 km/h (1 Bft) O-NO 58 1 min 0,000 mm 4,0 UV-I 642 W/m 11,8 C 8,0 km/h (2 Bft)
24.09.2016 12:18 15,7 C 15,7 C 77 % 1025,3 hPa 0,0 mm 5,2 km/h (1 Bft) NO 35 1 min 0,000 mm 4,0 UV-I 638 W/m 11,7 C 6,4 km/h (2 Bft)
24.09.2016 12:19 15,7 C 15,7 C 78 % 1025,3 hPa 0,0 mm 5,6 km/h (1 Bft) NO 48 1 min 0,000 mm 4,0 UV-I 638 W/m 11,9 C 9,7 km/h (2 Bft)
24.09.2016 12:20 15,8 C 15,8 C 76 % 1025,3 hPa 0,0 mm 6,2 km/h (2 Bft) NO 54 1 min 0,000 mm 4,1 UV-I 640 W/m 11,6 C 9,7 km/h (2 Bft)
24.09.2016 12:21 15,8 C 15,8 C 77 % 1025,2 hPa 0,0 mm 5,9 km/h (2 Bft) NO 44 1 min 0,000 mm 4,1 UV-I 640 W/m 11,8 C 9,7 km/h (2 Bft)
24.09.2016 12:22 15,9 C 15,9 C 76 % 1025,2 hPa 0,0 mm 6,3 km/h (2 Bft) N-NO 13 1 min 0,000 mm 4,1 UV-I 640 W/m 11,7 C 8,0 km/h (2 Bft)
24.09.2016 12:23 15,8 C 15,9 C 76 % 1025,2 hPa 0,0 mm 5,4 km/h (1 Bft) O-NO 60 1 min 0,000 mm 4,1 UV-I 643 W/m 11,6 C 8,0 km/h (2 Bft)
24.09.2016 12:24 15,8 C 15,8 C 78 % 1025,2 hPa 0,0 mm 3,1 km/h (1 Bft) NO 38 1 min 0,000 mm 4,1 UV-I 649 W/m 12,0 C 4,8 km/h (1 Bft)
24.09.2016 12:25 15,9 C 15,9 C 77 % 1025,3 hPa 0,0 mm 5,8 km/h (2 Bft) N-NO 13 1 min 0,000 mm 4,1 UV-I 643 W/m 11,9 C 8,0 km/h (2 Bft)
24.09.2016 12:26 15,9 C 15,9 C 76 % 1025,2 hPa 0,0 mm 5,3 km/h (1 Bft) N-NW 344 1 min 0,000 mm 4,1 UV-I 645 W/m 11,7 C 9,7 km/h (2 Bft)
24.09.2016 12:27 15,9 C 15,9 C 78 % 1025,3 hPa 0,0 mm 3,3 km/h (1 Bft) O-NO 66 1 min 0,000 mm 4,1 UV-I 645 W/m 12,1 C 4,8 km/h (1 Bft)
24.09.2016 12:28 16,1 C 16,1 C 78 % 1025,2 hPa 0,0 mm 3,8 km/h (1 Bft) NO 46 1 min 0,000 mm 4,1 UV-I 636 W/m 12,3 C 6,4 km/h (2 Bft)
24.09.2016 12:29 16,2 C 16,2 C 80 % 1025,2 hPa 0,0 mm 5,8 km/h (2 Bft) N 9 1 min 0,000 mm 4,1 UV-I 645 W/m 12,7 C 9,7 km/h (2 Bft)
24.09.2016 12:30 16,3 C 16,3 C 76 % 1025,2 hPa 0,0 mm 5,7 km/h (1 Bft) NO 39 1 min 0,000 mm 4,1 UV-I 643 W/m 12,1 C 9,7 km/h (2 Bft)
24.09.2016 12:31 16,4 C 16,4 C 78 % 1025,2 hPa 0,0 mm 5,1 km/h (1 Bft) O-NO 62 1 min 0,000 mm 4,1 UV-I 640 W/m 12,6 C 8,0 km/h (2 Bft)
24.09.2016 12:32 16,3 C 16,4 C 75 % 1025,2 hPa 0,0 mm 4,8 km/h (1 Bft) NW 312 1 min 0,000 mm 4,1 UV-I 647 W/m 11,9 C 8,0 km/h (2 Bft)
24.09.2016 12:33 16,3 C 16,3 C 77 % 1025,2 hPa 0,0 mm 7,2 km/h (2 Bft) O-NO 63 1 min 0,000 mm 4,1 UV-I 649 W/m 12,3 C 12,9 km/h (3 Bft)
24.09.2016 12:34 16,3 C 16,3 C 76 % 1025,2 hPa 0,0 mm 5,4 km/h (1 Bft) N 11 1 min 0,000 mm 4,1 UV-I 633 W/m 12,1 C 8,0 km/h (2 Bft)
24.09.2016 12:35 16,3 C 16,3 C 77 % 1025,2 hPa 0,0 mm 3,2 km/h (1 Bft) N 360 1 min 0,000 mm 4,1 UV-I 647 W/m 12,3 C 6,4 km/h (2 Bft)
24.09.2016 12:36 16,2 C 16,3 C 75 % 1025,2 hPa 0,0 mm 3,7 km/h (1 Bft) N-NO 28 1 min 0,000 mm 4,2 UV-I 654 W/m 11,8 C 6,4 km/h (2 Bft)
24.09.2016 12:37 16,2 C 16,2 C 75 % 1025,2 hPa 0,0 mm 5,1 km/h (1 Bft) NO 45 1 min 0,000 mm 4,2 UV-I 650 W/m 11,8 C 8,0 km/h (2 Bft)
24.09.2016 12:38 16,2 C 16,2 C 75 % 1025,2 hPa 0,0 mm 3,8 km/h (1 Bft) N-NO 30 1 min 0,000 mm 4,1 UV-I 643 W/m 11,8 C 8,0 km/h (2 Bft)
24.09.2016 12:39 16,1 C 16,2 C 76 % 1025,2 hPa 0,0 mm 6,6 km/h (2 Bft) NO 40 1 min 0,000 mm 4,1 UV-I 640 W/m 11,9 C 16,1 km/h (3 Bft)
24.09.2016 12:40 16,0 C 16,1 C 76 % 1025,2 hPa 0,0 mm 4,8 km/h (1 Bft) NO 39 1 min 0,000 mm 4,1 UV-I 647 W/m 11,8 C 9,7 km/h (2 Bft)
24.09.2016 12:41 16,0 C 16,0 C 76 % 1025,2 hPa 0,0 mm 4,9 km/h (1 Bft) NO 56 1 min 0,000 mm 4,2 UV-I 650 W/m 11,8 C 8,0 km/h (2 Bft)
24.09.2016 12:42 15,9 C 16,0 C 75 % 1025,2 hPa 0,0 mm 2,5 km/h (1 Bft) NO 46 1 min 0,000 mm 4,2 UV-I 650 W/m 11,5 C 3,2 km/h (1 Bft)
24.09.2016 12:43 15,9 C 16,0 C 78 % 1025,2 hPa 0,0 mm 3,9 km/h (1 Bft) O 79 1 min 0,000 mm 4,2 UV-I 649 W/m 12,1 C 6,4 km/h (2 Bft)
24.09.2016 12:44 16,1 C 16,1 C 78 % 1025,2 hPa 0,0 mm 3,9 km/h (1 Bft) NO 47 1 min 0,000 mm 4,2 UV-I 650 W/m 12,3 C 6,4 km/h (2 Bft)
24.09.2016 12:45 16,2 C 16,2 C 76 % 1025,2 hPa 0,0 mm 6,5 km/h (2 Bft) N-NO 22 1 min 0,000 mm 4,1 UV-I 645 W/m 12,0 C 11,3 km/h (2 Bft)
24.09.2016 12:46 16,1 C 16,2 C 75 % 1025,2 hPa 0,0 mm 4,3 km/h (1 Bft) N 5 1 min 0,000 mm 4,2 UV-I 652 W/m 11,7 C 6,4 km/h (2 Bft)
24.09.2016 12:47 16,1 C 16,1 C 76 % 1025,2 hPa 0,0 mm 2,5 km/h (1 Bft) N 360 1 min 0,000 mm 4,2 UV-I 654 W/m 11,9 C 4,8 km/h (1 Bft)
24.09.2016 12:48 16,2 C 16,2 C 76 % 1025,2 hPa 0,0 mm 3,8 km/h (1 Bft) O-NO 58 1 min 0,000 mm 4,2 UV-I 652 W/m 12,0 C 6,4 km/h (2 Bft)
24.09.2016 12:49 16,1 C 16,2 C 75 % 1025,1 hPa 0,0 mm 1,7 km/h (1 Bft) NO 36 1 min 0,000 mm 4,2 UV-I 650 W/m 11,7 C 6,4 km/h (2 Bft)
24.09.2016 12:50 16,1 C 16,1 C 75 % 1025,1 hPa 0,0 mm 5,8 km/h (2 Bft) O-NO 78 1 min 0,000 mm 4,2 UV-I 652 W/m 11,7 C 8,0 km/h (2 Bft)
24.09.2016 12:51 16,1 C 16,1 C 75 % 1025,0 hPa 0,0 mm 5,2 km/h (1 Bft) O-NO 63 1 min 0,000 mm 4,2 UV-I 652 W/m 11,7 C 11,3 km/h (2 Bft)
24.09.2016 12:52 16,1 C 16,1 C 76 % 1025,0 hPa 0,0 mm 4,7 km/h (1 Bft) NO 53 1 min 0,000 mm 4,2 UV-I 650 W/m 11,9 C 8,0 km/h (2 Bft)
24.09.2016 12:53 16,1 C 16,2 C 76 % 1025,0 hPa 0,0 mm 3,9 km/h (1 Bft) O-SO 109 1 min 0,000 mm 4,2 UV-I 654 W/m 11,9 C 6,4 km/h (2 Bft)
24.09.2016 12:54 16,0 C 16,1 C 74 % 1025,0 hPa 0,0 mm 1,4 km/h (1 Bft) O-SO 109 1 min 0,000 mm 4,2 UV-I 656 W/m 11,4 C 3,2 km/h (1 Bft)
24.09.2016 12:55 16,0 C 16,0 C 76 % 1025,1 hPa 0,0 mm 1,7 km/h (1 Bft) O-SO 109 1 min 0,000 mm 4,2 UV-I 654 W/m 11,8 C 3,2 km/h (1 Bft)
24.09.2016 12:56 16,1 C 16,1 C 77 % 1025,1 hPa 0,0 mm 3,8 km/h (1 Bft) N-NO 17 1 min 0,000 mm 4,2 UV-I 652 W/m 12,1 C 6,4 km/h (2 Bft)
24.09.2016 12:57 16,3 C 16,3 C 76 % 1025,1 hPa 0,0 mm 4,7 km/h (1 Bft) N-NW 342 1 min 0,000 mm 4,2 UV-I 649 W/m 12,1 C 6,4 km/h (2 Bft)
24.09.2016 12:58 16,4 C 16,4 C 76 % 1025,0 hPa 0,0 mm 5,8 km/h (2 Bft) O-NO 77 1 min 0,000 mm 4,2 UV-I 650 W/m 12,2 C 11,3 km/h (2 Bft)
24.09.2016 12:59 16,4 C 16,4 C 73 % 1025,1 hPa 0,0 mm 9,7 km/h (2 Bft) O 80 1 min 0,000 mm 4,2 UV-I 652 W/m 11,5 C 12,9 km/h (3 Bft)
24.09.2016 13:00 16,3 C 16,4 C 74 % 1025,0 hPa 0,0 mm 3,3 km/h (1 Bft) NW 325 1 min 0,000 mm 4,2 UV-I 652 W/m 11,7 C 6,4 km/h (2 Bft)
24.09.2016 13:01 16,3 C 16,3 C 75 % 1025,1 hPa 0,0 mm 4,7 km/h (1 Bft) NO 46 1 min 0,356 mm 4,2 UV-I 652 W/m 11,9 C 9,7 km/h (2 Bft)
24.09.2016 13:02 16,3 C 16,3 C 74 % 1025,0 hPa 0,0 mm 3,9 km/h (1 Bft) NO 35 1 min 0,000 mm 4,2 UV-I 654 W/m 11,7 C 6,4 km/h (2 Bft)
24.09.2016 13:03 16,3 C 16,3 C 72 % 1025,0 hPa 0,0 mm 5,8 km/h (2 Bft) N-NO 24 1 min 0,000 mm 4,2 UV-I 654 W/m 11,2 C 6,4 km/h (2 Bft)
24.09.2016 13:04 16,3 C 16,3 C 73 % 1025,0 hPa 0,0 mm 6,5 km/h (2 Bft) N 360 1 min 0,000 mm 4,2 UV-I 649 W/m 11,4 C 9,7 km/h (2 Bft)
24.09.2016 13:05 16,3 C 16,3 C 72 % 1025,0 hPa 0,0 mm 5,4 km/h (1 Bft) N 11 1 min 0,000 mm 4,2 UV-I 652 W/m 11,2 C 8,0 km/h (2 Bft)
24.09.2016 13:06 16,3 C 16,3 C 72 % 1025,0 hPa 0,0 mm 4,3 km/h (1 Bft) O-NO 68 1 min 0,000 mm 4,2 UV-I 647 W/m 11,2 C 6,4 km/h (2 Bft)
24.09.2016 13:07 16,3 C 16,3 C 73 % 1025,0 hPa 0,0 mm 6,6 km/h (2 Bft) NO 38 1 min 0,000 mm 4,0 UV-I 617 W/m 11,4 C 12,9 km/h (3 Bft)
24.09.2016 13:08 16,4 C 16,4 C 73 % 1025,0 hPa 0,0 mm 6,5 km/h (2 Bft) NO 48 1 min 0,000 mm 4,0 UV-I 589 W/m 11,5 C 12,9 km/h (3 Bft)
24.09.2016 13:09 16,5 C 16,5 C 73 % 1025,0 hPa 0,0 mm 6,8 km/h (2 Bft) O-NO 58 1 min 0,000 mm 4,1 UV-I 629 W/m 11,6 C 12,9 km/h (3 Bft)
24.09.2016 13:10 16,5 C 16,5 C 71 % 1024,9 hPa 0,0 mm 8,1 km/h (2 Bft) N-NO 22 1 min 0,000 mm 4,1 UV-I 636 W/m 11,2 C 16,1 km/h (3 Bft)
24.09.2016 13:11 16,4 C 16,5 C 70 % 1025,0 hPa 0,0 mm 7,9 km/h (2 Bft) N-NW 348 1 min 0,000 mm 4,2 UV-I 649 W/m 10,9 C 11,3 km/h (2 Bft)
24.09.2016 13:12 16,4 C 16,4 C 71 % 1025,0 hPa 0,0 mm 7,1 km/h (2 Bft) NO 51 1 min 0,000 mm 4,2 UV-I 649 W/m 11,1 C 9,7 km/h (2 Bft)
24.09.2016 13:13 16,4 C 16,4 C 71 % 1025,0 hPa 0,0 mm 5,3 km/h (1 Bft) O-NO 64 1 min 0,000 mm 4,2 UV-I 652 W/m 11,1 C 8,0 km/h (2 Bft)
24.09.2016 13:14 16,5 C 16,5 C 72 % 1024,9 hPa 0,0 mm 2,9 km/h (1 Bft) NO 36 1 min 0,000 mm 4,2 UV-I 652 W/m 11,4 C 6,4 km/h (2 Bft)
24.09.2016 13:15 16,7 C 16,7 C 71 % 1024,9 hPa 0,0 mm 5,6 km/h (1 Bft) NO 40 1 min 0,000 mm 4,2 UV-I 652 W/m 11,4 C 8,0 km/h (2 Bft)
24.09.2016 13:16 16,7 C 16,7 C 72 % 1024,9 hPa 0,0 mm 4,8 km/h (1 Bft) O-NO 78 1 min 0,000 mm 4,2 UV-I 652 W/m 11,6 C 6,4 km/h (2 Bft)
24.09.2016 13:17 16,8 C 16,8 C 72 % 1024,9 hPa 0,0 mm 3,7 km/h (1 Bft) N-NO 17 1 min 0,000 mm 4,2 UV-I 649 W/m 11,7 C 11,3 km/h (2 Bft)
24.09.2016 13:18 16,8 C 16,8 C 72 % 1024,9 hPa 0,0 mm 5,8 km/h (2 Bft) O 93 1 min 0,000 mm 4,2 UV-I 649 W/m 11,7 C 8,0 km/h (2 Bft)
24.09.2016 13:19 16,8 C 16,8 C 72 % 1024,9 hPa 0,0 mm 3,5 km/h (1 Bft) O 79 1 min 0,000 mm 4,2 UV-I 645 W/m 11,7 C 9,7 km/h (2 Bft)
24.09.2016 13:20 16,8 C 16,8 C 73 % 1024,8 hPa 0,0 mm 5,3 km/h (1 Bft) O 80 1 min 0,000 mm 4,2 UV-I 647 W/m 11,9 C 8,0 km/h (2 Bft)
24.09.2016 13:21 16,8 C 16,8 C 75 % 1024,9 hPa 0,0 mm 6,4 km/h (2 Bft) O 85 1 min 0,000 mm 4,2 UV-I 650 W/m 12,3 C 11,3 km/h (2 Bft)
24.09.2016 13:22 16,8 C 16,9 C 74 % 1024,9 hPa 0,0 mm 4,0 km/h (1 Bft) S-SO 151 1 min 0,000 mm 4,2 UV-I 647 W/m 12,1 C 6,4 km/h (2 Bft)
24.09.2016 13:23 16,8 C 16,8 C 72 % 1024,8 hPa 0,0 mm 1,5 km/h (1 Bft) S-SO 151 1 min 0,000 mm 4,2 UV-I 647 W/m 11,7 C 3,2 km/h (1 Bft)
24.09.2016 13:24 16,7 C 16,8 C 71 % 1024,7 hPa 0,0 mm 4,6 km/h (1 Bft) NO 56 1 min 0,000 mm 4,2 UV-I 649 W/m 11,4 C 8,0 km/h (2 Bft)
24.09.2016 13:25 16,7 C 16,7 C 73 % 1024,8 hPa 0,0 mm 5,0 km/h (1 Bft) O-NO 62 1 min 0,000 mm 4,2 UV-I 647 W/m 11,8 C 6,4 km/h (2 Bft)
24.09.2016 13:26 16,8 C 16,8 C 72 % 1024,8 hPa 0,0 mm 5,9 km/h (2 Bft) NO 40 1 min 0,000 mm 4,2 UV-I 649 W/m 11,7 C 8,0 km/h (2 Bft)
24.09.2016 13:27 16,8 C 16,8 C 73 % 1024,8 hPa 0,0 mm 7,2 km/h (2 Bft) O 85 1 min 0,000 mm 4,2 UV-I 650 W/m 11,9 C 11,3 km/h (2 Bft)
24.09.2016 13:28 16,8 C 16,8 C 72 % 1024,8 hPa 0,0 mm 3,6 km/h (1 Bft) O 101 1 min 0,000 mm 4,2 UV-I 649 W/m 11,7 C 6,4 km/h (2 Bft)
24.09.2016 13:29 16,8 C 16,8 C 72 % 1024,7 hPa 0,0 mm 5,2 km/h (1 Bft) NO 51 1 min 0,000 mm 4,2 UV-I 649 W/m 11,7 C 9,7 km/h (2 Bft)
24.09.2016 13:30 16,8 C 16,8 C 72 % 1024,7 hPa 0,0 mm 5,0 km/h (1 Bft) N 5 1 min 0,000 mm 4,2 UV-I 649 W/m 11,7 C 8,0 km/h (2 Bft)
24.09.2016 13:31 16,9 C 16,9 C 73 % 1024,7 hPa 0,0 mm 6,6 km/h (2 Bft) N-NW 342 1 min 0,000 mm 4,2 UV-I 649 W/m 12,0 C 9,7 km/h (2 Bft)
24.09.2016 13:32 17,1 C 17,1 C 75 % 1024,7 hPa 0,0 mm 4,6 km/h (1 Bft) NO 46 1 min 0,000 mm 4,2 UV-I 649 W/m 12,6 C 6,4 km/h (2 Bft)
24.09.2016 13:33 17,2 C 17,2 C 75 % 1024,7 hPa 0,0 mm 9,6 km/h (2 Bft) O-NO 67 1 min 0,000 mm 4,2 UV-I 647 W/m 12,7 C 14,5 km/h (3 Bft)
24.09.2016 13:34 17,1 C 17,2 C 70 % 1024,6 hPa 0,0 mm 7,7 km/h (2 Bft) O-NO 74 1 min 0,000 mm 4,2 UV-I 647 W/m 11,6 C 11,3 km/h (2 Bft)
24.09.2016 13:35 17,0 C 17,1 C 70 % 1024,6 hPa 0,0 mm 5,4 km/h (1 Bft) NO 37 1 min 0,000 mm 4,2 UV-I 647 W/m 11,5 C 9,7 km/h (2 Bft)
24.09.2016 13:36 17,0 C 17,0 C 72 % 1024,6 hPa 0,0 mm 6,0 km/h (2 Bft) O 98 1 min 0,000 mm 4,2 UV-I 647 W/m 11,9 C 8,0 km/h (2 Bft)
24.09.2016 13:37 16,9 C 17,0 C 70 % 1024,6 hPa 0,0 mm 3,1 km/h (1 Bft) O-SO 111 1 min 0,000 mm 4,2 UV-I 649 W/m 11,4 C 4,8 km/h (1 Bft)
24.09.2016 13:38 16,9 C 16,9 C 71 % 1024,6 hPa 0,0 mm 5,1 km/h (1 Bft) O-NO 76 1 min 0,000 mm 4,2 UV-I 647 W/m 11,6 C 6,4 km/h (2 Bft)
24.09.2016 13:39 16,9 C 16,9 C 71 % 1024,6 hPa 0,0 mm 4,4 km/h (1 Bft) O 98 1 min 0,000 mm 4,2 UV-I 645 W/m 11,6 C 6,4 km/h (2 Bft)
24.09.2016 13:40 16,9 C 16,9 C 73 % 1024,6 hPa 0,0 mm 6,9 km/h (2 Bft) NO 34 1 min 0,000 mm 4,2 UV-I 643 W/m 12,0 C 11,3 km/h (2 Bft)
24.09.2016 13:41 17,1 C 17,1 C 73 % 1024,5 hPa 0,0 mm 5,4 km/h (1 Bft) O-NO 66 1 min 0,000 mm 4,1 UV-I 642 W/m 12,2 C 9,7 km/h (2 Bft)
24.09.2016 13:42 17,1 C 17,1 C 75 % 1024,5 hPa 0,0 mm 3,2 km/h (1 Bft) NO 36 1 min 0,000 mm 4,1 UV-I 640 W/m 12,6 C 6,4 km/h (2 Bft)
24.09.2016 13:43 17,1 C 17,1 C 74 % 1024,6 hPa 0,0 mm 3,5 km/h (1 Bft) N-NO 26 1 min 0,000 mm 4,1 UV-I 642 W/m 12,4 C 4,8 km/h (1 Bft)
24.09.2016 13:44 17,1 C 17,1 C 72 % 1024,5 hPa 0,0 mm 2,8 km/h (1 Bft) NO 51 1 min 0,000 mm 4,1 UV-I 642 W/m 12,0 C 4,8 km/h (1 Bft)
24.09.2016 13:45 17,1 C 17,1 C 75 % 1024,4 hPa 0,0 mm 0,3 km/h (0 Bft) NO 51 1 min 0,000 mm 4,1 UV-I 640 W/m 12,6 C 1,6 km/h (1 Bft)
24.09.2016 13:46 17,1 C 17,1 C 73 % 1024,5 hPa 0,0 mm 1,0 km/h (0 Bft) O 99 1 min 0,000 mm 4,1 UV-I 640 W/m 12,2 C 3,2 km/h (1 Bft)
24.09.2016 13:47 17,0 C 17,1 C 75 % 1024,5 hPa 0,0 mm 1,0 km/h (0 Bft) O 99 1 min 0,000 mm 4,1 UV-I 640 W/m 12,5 C 3,2 km/h (1 Bft)
24.09.2016 13:48 16,9 C 17,0 C 76 % 1024,4 hPa 0,0 mm 1,9 km/h (1 Bft) N-NO 30 1 min 0,000 mm 4,1 UV-I 635 W/m 12,6 C 4,8 km/h (1 Bft)
24.09.2016 13:49 17,1 C 17,1 C 74 % 1024,4 hPa 0,0 mm 3,5 km/h (1 Bft) O-NO 62 1 min 0,000 mm 4,1 UV-I 635 W/m 12,4 C 8,0 km/h (2 Bft)
24.09.2016 13:50 17,1 C 17,1 C 74 % 1024,4 hPa 0,0 mm 6,7 km/h (2 Bft) N-NO 32 1 min 0,000 mm 4,1 UV-I 633 W/m 12,4 C 11,3 km/h (2 Bft)
24.09.2016 13:51 17,1 C 17,1 C 73 % 1024,4 hPa 0,0 mm 5,7 km/h (1 Bft) O-NO 67 1 min 0,000 mm 4,1 UV-I 635 W/m 12,2 C 11,3 km/h (2 Bft)
24.09.2016 13:52 17,1 C 17,1 C 72 % 1024,4 hPa 0,0 mm 5,8 km/h (2 Bft) NO 49 1 min 0,000 mm 4,1 UV-I 635 W/m 12,0 C 11,3 km/h (2 Bft)
24.09.2016 13:53 17,1 C 17,1 C 73 % 1024,4 hPa 0,0 mm 3,2 km/h (1 Bft) N 5 1 min 0,000 mm 4,1 UV-I 631 W/m 12,2 C 8,0 km/h (2 Bft)
24.09.2016 13:54 17,1 C 17,1 C 76 % 1024,3 hPa 0,0 mm 1,7 km/h (1 Bft) N-NO 30 1 min 0,000 mm 4,0 UV-I 629 W/m 12,8 C 3,2 km/h (1 Bft)
24.09.2016 13:55 17,3 C 17,3 C 76 % 1024,4 hPa 0,0 mm 3,4 km/h (1 Bft) NO 34 1 min 0,000 mm 4,0 UV-I 631 W/m 13,0 C 4,8 km/h (1 Bft)
24.09.2016 13:56 17,4 C 17,4 C 75 % 1024,4 hPa 0,0 mm 4,2 km/h (1 Bft) NO 34 1 min 0,000 mm 4,0 UV-I 622 W/m 12,9 C 6,4 km/h (2 Bft)
24.09.2016 13:57 17,3 C 17,4 C 74 % 1024,4 hPa 0,0 mm 5,1 km/h (1 Bft) N 355 1 min 0,000 mm 4,0 UV-I 626 W/m 12,6 C 6,4 km/h (2 Bft)
24.09.2016 13:58 17,4 C 17,4 C 74 % 1024,3 hPa 0,0 mm 7,1 km/h (2 Bft) N 355 1 min 0,000 mm 4,0 UV-I 628 W/m 12,7 C 12,9 km/h (3 Bft)
24.09.2016 13:59 17,5 C 17,5 C 73 % 1024,3 hPa 0,0 mm 5,2 km/h (1 Bft) O 96 1 min 0,000 mm 4,0 UV-I 626 W/m 12,6 C 8,0 km/h (2 Bft)
24.09.2016 14:00 17,5 C 17,5 C 75 % 1024,3 hPa 0,0 mm 5,1 km/h (1 Bft) NO 48 1 min 0,000 mm 4,0 UV-I 626 W/m 13,0 C 8,0 km/h (2 Bft)
24.09.2016 14:01 17,6 C 17,6 C 71 % 1024,2 hPa 0,0 mm 5,1 km/h (1 Bft) NO 43 1 min 0,355 mm 4,0 UV-I 624 W/m 12,3 C 8,0 km/h (2 Bft)
24.09.2016 14:02 17,5 C 17,6 C 71 % 1024,3 hPa 0,0 mm 3,1 km/h (1 Bft) NO 36 1 min 0,000 mm 4,0 UV-I 621 W/m 12,2 C 6,4 km/h (2 Bft)
24.09.2016 14:03 17,4 C 17,5 C 72 % 1024,2 hPa 0,0 mm 2,4 km/h (1 Bft) NO 55 1 min 0,000 mm 4,0 UV-I 621 W/m 12,3 C 3,2 km/h (1 Bft)
24.09.2016 14:04 17,4 C 17,5 C 75 % 1024,3 hPa 0,0 mm 4,2 km/h (1 Bft) N-NO 22 1 min 0,000 mm 4,0 UV-I 624 W/m 12,9 C 6,4 km/h (2 Bft)
24.09.2016 14:05 17,6 C 17,6 C 76 % 1024,2 hPa 0,0 mm 1,7 km/h (1 Bft) N-NO 22 1 min 0,000 mm 4,0 UV-I 624 W/m 13,3 C 4,8 km/h (1 Bft)
24.09.2016 14:06 17,6 C 17,6 C 73 % 1024,2 hPa 0,0 mm 0,1 km/h (0 Bft) N-NO 22 1 min 0,000 mm 3,9 UV-I 617 W/m 12,7 C 1,6 km/h (1 Bft)
24.09.2016 14:07 17,6 C 17,6 C 73 % 1024,2 hPa 0,0 mm 4,2 km/h (1 Bft) O-NO 61 1 min 0,000 mm 3,9 UV-I 615 W/m 12,7 C 6,4 km/h (2 Bft)
24.09.2016 14:08 17,3 C 17,6 C 72 % 1024,2 hPa 0,0 mm 2,2 km/h (1 Bft) O-SO 113 1 min 0,000 mm 3,9 UV-I 615 W/m 12,2 C 4,8 km/h (1 Bft)
24.09.2016 14:09 17,3 C 17,3 C 74 % 1024,2 hPa 0,0 mm 3,8 km/h (1 Bft) O-NO 57 1 min 0,000 mm 4,0 UV-I 619 W/m 12,6 C 8,0 km/h (2 Bft)
24.09.2016 14:10 17,3 C 17,4 C 76 % 1024,1 hPa 0,0 mm 3,8 km/h (1 Bft) O-NO 67 1 min 0,000 mm 4,0 UV-I 617 W/m 13,0 C 6,4 km/h (2 Bft)
24.09.2016 14:11 17,4 C 17,4 C 72 % 1024,1 hPa 0,0 mm 5,1 km/h (1 Bft) N 11 1 min 0,000 mm 3,9 UV-I 612 W/m 12,3 C 8,0 km/h (2 Bft)
24.09.2016 14:12 17,6 C 17,6 C 72 % 1024,1 hPa 0,0 mm 7,8 km/h (2 Bft) O 89 1 min 0,000 mm 3,9 UV-I 610 W/m 12,5 C 12,9 km/h (3 Bft)
24.09.2016 14:13 17,7 C 17,7 C 72 % 1024,2 hPa 0,0 mm 7,4 km/h (2 Bft) O 94 1 min 0,000 mm 3,9 UV-I 605 W/m 12,6 C 12,9 km/h (3 Bft)
24.09.2016 14:14 17,6 C 17,7 C 70 % 1024,1 hPa 0,0 mm 7,7 km/h (2 Bft) O 81 1 min 0,000 mm 3,9 UV-I 612 W/m 12,1 C 12,9 km/h (3 Bft)
24.09.2016 14:15 17,6 C 17,6 C 70 % 1024,1 hPa 0,0 mm 5,9 km/h (2 Bft) N-NO 12 1 min 0,000 mm 3,6 UV-I 612 W/m 12,1 C 8,0 km/h (2 Bft)
24.09.2016 14:16 17,7 C 17,7 C 73 % 1024,1 hPa 0,0 mm 4,2 km/h (1 Bft) N-NO 32 1 min 0,000 mm 3,8 UV-I 612 W/m 12,8 C 6,4 km/h (2 Bft)
24.09.2016 14:17 17,8 C 17,8 C 73 % 1024,1 hPa 0,0 mm 6,0 km/h (2 Bft) N-NO 15 1 min 0,000 mm 3,8 UV-I 606 W/m 12,9 C 8,0 km/h (2 Bft)
24.09.2016 14:18 17,9 C 17,9 C 69 % 1024,1 hPa 0,0 mm 5,2 km/h (1 Bft) N 5 1 min 0,000 mm 3,9 UV-I 613 W/m 12,1 C 9,7 km/h (2 Bft)
24.09.2016 14:19 17,8 C 17,9 C 70 % 1024,1 hPa 0,0 mm 4,0 km/h (1 Bft) N-NO 19 1 min 0,000 mm 3,9 UV-I 612 W/m 12,3 C 8,0 km/h (2 Bft)
24.09.2016 14:20 17,8 C 17,8 C 70 % 1024,1 hPa 0,0 mm 6,4 km/h (2 Bft) N-NO 29 1 min 0,000 mm 3,8 UV-I 599 W/m 12,3 C 12,9 km/h (3 Bft)
24.09.2016 14:21 17,7 C 17,8 C 71 % 1024,1 hPa 0,0 mm 6,0 km/h (2 Bft) N 355 1 min 0,000 mm 3,8 UV-I 599 W/m 12,4 C 9,7 km/h (2 Bft)
24.09.2016 14:22 17,8 C 17,8 C 71 % 1024,1 hPa 0,0 mm 5,8 km/h (2 Bft) NW 312 1 min 0,000 mm 3,8 UV-I 605 W/m 12,5 C 11,3 km/h (2 Bft)
24.09.2016 14:23 17,8 C 17,8 C 73 % 1024,1 hPa 0,0 mm 4,0 km/h (1 Bft) N-NO 30 1 min 0,000 mm 3,8 UV-I 599 W/m 12,9 C 6,4 km/h (2 Bft)
24.09.2016 14:24 17,9 C 17,9 C 70 % 1024,0 hPa 0,0 mm 3,4 km/h (1 Bft) N-NW 336 1 min 0,000 mm 3,8 UV-I 598 W/m 12,3 C 4,8 km/h (1 Bft)
24.09.2016 14:25 18,1 C 18,1 C 72 % 1024,0 hPa 0,0 mm 4,5 km/h (1 Bft) O-NO 61 1 min 0,000 mm 3,8 UV-I 599 W/m 13,0 C 6,4 km/h (2 Bft)
24.09.2016 14:26 18,0 C 18,1 C 71 % 1024,0 hPa 0,0 mm 2,8 km/h (1 Bft) O 91 1 min 0,000 mm 3,8 UV-I 601 W/m 12,7 C 4,8 km/h (1 Bft)
24.09.2016 14:27 17,9 C 18,0 C 71 % 1024,0 hPa 0,0 mm 5,6 km/h (1 Bft) NO 41 1 min 0,000 mm 3,8 UV-I 601 W/m 12,6 C 8,0 km/h (2 Bft)
24.09.2016 14:28 18,0 C 18,0 C 71 % 1024,0 hPa 0,0 mm 5,0 km/h (1 Bft) O-SO 106 1 min 0,000 mm 3,7 UV-I 596 W/m 12,7 C 8,0 km/h (2 Bft)
24.09.2016 14:29 18,1 C 18,1 C 73 % 1024,0 hPa 0,0 mm 6,9 km/h (2 Bft) O-SO 103 1 min 0,000 mm 3,7 UV-I 592 W/m 13,2 C 12,9 km/h (3 Bft)
24.09.2016 14:30 18,1 C 18,1 C 72 % 1024,0 hPa 0,0 mm 2,7 km/h (1 Bft) O-NO 65 1 min 0,000 mm 3,7 UV-I 589 W/m 13,0 C 4,8 km/h (1 Bft)
24.09.2016 14:31 17,9 C 18,1 C 72 % 1024,0 hPa 0,0 mm 4,6 km/h (1 Bft) NO 49 1 min 0,000 mm 3,7 UV-I 591 W/m 12,8 C 14,5 km/h (3 Bft)
24.09.2016 14:32 18,0 C 18,0 C 73 % 1024,0 hPa 0,0 mm 9,5 km/h (2 Bft) NO 45 1 min 0,000 mm 3,7 UV-I 591 W/m 13,1 C 14,5 km/h (3 Bft)
24.09.2016 14:33 18,1 C 18,1 C 72 % 1024,0 hPa 0,0 mm 5,7 km/h (1 Bft) NO 36 1 min 0,000 mm 3,7 UV-I 591 W/m 13,0 C 12,9 km/h (3 Bft)
24.09.2016 14:34 18,1 C 18,1 C 70 % 1024,0 hPa 0,0 mm 6,2 km/h (2 Bft) O-NO 61 1 min 0,000 mm 3,7 UV-I 592 W/m 12,5 C 9,7 km/h (2 Bft)
24.09.2016 14:35 17,9 C 18,1 C 72 % 1024,0 hPa 0,0 mm 5,2 km/h (1 Bft) O 98 1 min 0,000 mm 3,7 UV-I 591 W/m 12,8 C 11,3 km/h (2 Bft)
24.09.2016 14:36 17,9 C 17,9 C 71 % 1024,0 hPa 0,0 mm 3,6 km/h (1 Bft) N-NO 17 1 min 0,000 mm 3,6 UV-I 584 W/m 12,6 C 9,7 km/h (2 Bft)
24.09.2016 14:37 18,0 C 18,0 C 72 % 1023,9 hPa 0,0 mm 5,3 km/h (1 Bft) O-NO 61 1 min 0,000 mm 3,6 UV-I 577 W/m 12,9 C 8,0 km/h (2 Bft)
24.09.2016 14:38 18,1 C 18,1 C 71 % 1023,9 hPa 0,0 mm 6,4 km/h (2 Bft) N-NO 23 1 min 0,000 mm 3,6 UV-I 585 W/m 12,8 C 8,0 km/h (2 Bft)
24.09.2016 14:39 18,1 C 18,1 C 71 % 1023,9 hPa 0,0 mm 3,4 km/h (1 Bft) O 86 1 min 0,000 mm 3,6 UV-I 585 W/m 12,8 C 8,0 km/h (2 Bft)
24.09.2016 14:40 17,9 C 18,1 C 71 % 1023,9 hPa 0,0 mm 4,6 km/h (1 Bft) NO 50 1 min 0,000 mm 3,6 UV-I 584 W/m 12,6 C 8,0 km/h (2 Bft)
24.09.2016 14:41 18,0 C 18,0 C 75 % 1023,9 hPa 0,0 mm 3,0 km/h (1 Bft) NO 34 1 min 0,000 mm 3,6 UV-I 580 W/m 13,5 C 4,8 km/h (1 Bft)
24.09.2016 14:42 18,0 C 18,1 C 72 % 1023,9 hPa 0,0 mm 7,3 km/h (2 Bft) NO 40 1 min 0,000 mm 3,6 UV-I 578 W/m 12,9 C 14,5 km/h (3 Bft)
24.09.2016 14:43 18,1 C 18,1 C 72 % 1023,9 hPa 0,0 mm 7,6 km/h (2 Bft) N-NO 26 1 min 0,000 mm 3,5 UV-I 578 W/m 13,0 C 11,3 km/h (2 Bft)
24.09.2016 14:44 18,1 C 18,1 C 74 % 1023,8 hPa 0,0 mm 5,0 km/h (1 Bft) O 94 1 min 0,000 mm 3,6 UV-I 582 W/m 13,4 C 8,0 km/h (2 Bft)
24.09.2016 14:45 18,1 C 18,1 C 72 % 1023,8 hPa 0,0 mm 7,6 km/h (2 Bft) O-NO 58 1 min 0,000 mm 3,5 UV-I 580 W/m 13,0 C 11,3 km/h (2 Bft)
24.09.2016 14:46 18,1 C 18,1 C 72 % 1023,9 hPa 0,0 mm 4,4 km/h (1 Bft) SO 132 1 min 0,000 mm 3,5 UV-I 575 W/m 13,0 C 9,7 km/h (2 Bft)
24.09.2016 14:47 18,0 C 18,1 C 71 % 1023,9 hPa 0,0 mm 2,5 km/h (1 Bft) O-SO 120 1 min 0,000 mm 3,5 UV-I 575 W/m 12,7 C 4,8 km/h (1 Bft)
24.09.2016 14:48 18,0 C 18,0 C 74 % 1023,8 hPa 0,0 mm 5,8 km/h (2 Bft) O 80 1 min 0,000 mm 3,5 UV-I 573 W/m 13,3 C 8,0 km/h (2 Bft)
24.09.2016 14:49 17,9 C 18,1 C 72 % 1023,9 hPa 0,0 mm 4,4 km/h (1 Bft) O-SO 113 1 min 0,000 mm 3,5 UV-I 568 W/m 12,8 C 8,0 km/h (2 Bft)
24.09.2016 14:50 17,9 C 17,9 C 71 % 1023,8 hPa 0,0 mm 6,0 km/h (2 Bft) O 90 1 min 0,000 mm 3,5 UV-I 570 W/m 12,6 C 9,7 km/h (2 Bft)
24.09.2016 14:51 17,9 C 17,9 C 72 % 1023,8 hPa 0,0 mm 4,3 km/h (1 Bft) NO 43 1 min 0,000 mm 3,4 UV-I 568 W/m 12,8 C 6,4 km/h (2 Bft)
24.09.2016 14:52 18,0 C 18,0 C 73 % 1023,8 hPa 0,0 mm 4,4 km/h (1 Bft) N 9 1 min 0,000 mm 3,4 UV-I 564 W/m 13,1 C 6,4 km/h (2 Bft)
24.09.2016 14:53 18,1 C 18,1 C 73 % 1023,8 hPa 0,0 mm 2,3 km/h (1 Bft) O-SO 105 1 min 0,000 mm 3,4 UV-I 566 W/m 13,2 C 4,8 km/h (1 Bft)
24.09.2016 14:54 18,0 C 18,1 C 73 % 1023,8 hPa 0,0 mm 3,4 km/h (1 Bft) NO 52 1 min 0,000 mm 3,4 UV-I 566 W/m 13,1 C 9,7 km/h (2 Bft)
24.09.2016 14:55 18,0 C 18,0 C 73 % 1023,8 hPa 0,0 mm 5,4 km/h (1 Bft) O-NO 75 1 min 0,000 mm 3,4 UV-I 557 W/m 13,1 C 9,7 km/h (2 Bft)
24.09.2016 14:56 17,9 C 18,0 C 73 % 1023,8 hPa 0,0 mm 5,4 km/h (1 Bft) NO 34 1 min 0,000 mm 3,3 UV-I 552 W/m 13,0 C 9,7 km/h (2 Bft)
24.09.2016 14:57 18,1 C 18,1 C 74 % 1023,8 hPa 0,0 mm 8,1 km/h (2 Bft) NO 42 1 min 0,000 mm 3,3 UV-I 554 W/m 13,4 C 11,3 km/h (2 Bft)
24.09.2016 14:58 18,1 C 18,1 C 72 % 1023,8 hPa 0,0 mm 7,8 km/h (2 Bft) O-NO 66 1 min 0,000 mm 3,3 UV-I 559 W/m 13,0 C 11,3 km/h (2 Bft)
24.09.2016 14:59 18,1 C 18,1 C 72 % 1023,8 hPa 0,0 mm 6,0 km/h (2 Bft) O 88 1 min 0,000 mm 3,3 UV-I 559 W/m 13,0 C 9,7 km/h (2 Bft)
24.09.2016 15:00 17,9 C 18,1 C 72 % 1023,7 hPa 0,0 mm 4,2 km/h (1 Bft) N-NO 13 1 min 0,330 mm 3,3 UV-I 554 W/m 12,8 C 4,8 km/h (1 Bft)
24.09.2016 15:01 18,1 C 18,1 C 73 % 1023,7 hPa 0,0 mm 6,4 km/h (2 Bft) N-NO 15 1 min 0,000 mm 3,2 UV-I 547 W/m 13,2 C 9,7 km/h (2 Bft)
24.09.2016 15:02 18,2 C 18,2 C 71 % 1023,7 hPa 0,0 mm 4,7 km/h (1 Bft) N 5 1 min 0,000 mm 3,1 UV-I 534 W/m 12,9 C 6,4 km/h (2 Bft)
24.09.2016 15:03 18,3 C 18,3 C 74 % 1023,6 hPa 0,0 mm 1,3 km/h (1 Bft) NO 51 1 min 0,000 mm 3,1 UV-I 524 W/m 13,6 C 3,2 km/h (1 Bft)
24.09.2016 15:04 18,3 C 18,3 C 72 % 1023,6 hPa 0,0 mm 1,9 km/h (1 Bft) NO 36 1 min 0,000 mm 3,1 UV-I 529 W/m 13,2 C 3,2 km/h (1 Bft)
24.09.2016 15:05 18,3 C 18,3 C 73 % 1023,6 hPa 0,0 mm 5,0 km/h (1 Bft) NO 56 1 min 0,000 mm 3,0 UV-I 529 W/m 13,4 C 9,7 km/h (2 Bft)
24.09.2016 15:06 18,3 C 18,3 C 73 % 1023,6 hPa 0,0 mm 6,3 km/h (2 Bft) N-NO 30 1 min 0,000 mm 3,0 UV-I 534 W/m 13,4 C 9,7 km/h (2 Bft)
24.09.2016 15:07 18,4 C 18,4 C 74 % 1023,6 hPa 0,0 mm 5,2 km/h (1 Bft) N-NO 13 1 min 0,000 mm 3,0 UV-I 536 W/m 13,7 C 8,0 km/h (2 Bft)
24.09.2016 15:08 18,4 C 18,4 C 70 % 1023,6 hPa 0,0 mm 6,4 km/h (2 Bft) N-NO 29 1 min 0,000 mm 2,9 UV-I 534 W/m 12,8 C 11,3 km/h (2 Bft)
24.09.2016 15:09 18,4 C 18,4 C 70 % 1023,6 hPa 0,0 mm 5,4 km/h (1 Bft) O-NO 57 1 min 0,000 mm 2,8 UV-I 512 W/m 12,8 C 8,0 km/h (2 Bft)
24.09.2016 15:10 18,4 C 18,4 C 72 % 1023,6 hPa 0,0 mm 6,1 km/h (2 Bft) O 81 1 min 0,000 mm 2,7 UV-I 499 W/m 13,3 C 8,0 km/h (2 Bft)
24.09.2016 15:11 18,3 C 18,4 C 71 % 1023,6 hPa 0,0 mm 5,7 km/h (1 Bft) O-SO 105 1 min 0,000 mm 2,8 UV-I 522 W/m 12,9 C 8,0 km/h (2 Bft)
24.09.2016 15:12 18,3 C 18,3 C 71 % 1023,6 hPa 0,0 mm 6,8 km/h (2 Bft) O-NO 60 1 min 0,000 mm 2,8 UV-I 519 W/m 12,9 C 12,9 km/h (3 Bft)
24.09.2016 15:13 18,3 C 18,3 C 73 % 1023,6 hPa 0,0 mm 5,8 km/h (2 Bft) O-NO 59 1 min 0,000 mm 2,8 UV-I 517 W/m 13,4 C 9,7 km/h (2 Bft)
24.09.2016 15:14 18,3 C 18,3 C 73 % 1023,6 hPa 0,0 mm 8,9 km/h (2 Bft) N-NO 18 1 min 0,000 mm 2,8 UV-I 483 W/m 13,4 C 16,1 km/h (3 Bft)
24.09.2016 15:15 18,3 C 18,3 C 71 % 1023,6 hPa 0,0 mm 7,7 km/h (2 Bft) W 269 1 min 0,000 mm 2,8 UV-I 520 W/m 12,9 C 12,9 km/h (3 Bft)
24.09.2016 15:16 18,3 C 18,3 C 72 % 1023,6 hPa 0,0 mm 5,6 km/h (1 Bft) N-NO 12 1 min 0,000 mm 2,8 UV-I 538 W/m 13,2 C 8,0 km/h (2 Bft)
24.09.2016 15:17 18,4 C 18,4 C 71 % 1023,7 hPa 0,0 mm 9,5 km/h (2 Bft) O-NO 71 1 min 0,000 mm 2,7 UV-I 520 W/m 13,0 C 14,5 km/h (3 Bft)
24.09.2016 15:18 18,4 C 18,4 C 71 % 1023,6 hPa 0,0 mm 6,8 km/h (2 Bft) O-NO 74 1 min 0,000 mm 2,7 UV-I 489 W/m 13,0 C 9,7 km/h (2 Bft)
24.09.2016 15:19 18,3 C 18,4 C 70 % 1023,6 hPa 0,0 mm 6,8 km/h (2 Bft) O-NO 68 1 min 0,000 mm 2,6 UV-I 480 W/m 12,7 C 14,5 km/h (3 Bft)
24.09.2016 15:20 18,3 C 18,3 C 70 % 1023,6 hPa 0,0 mm 5,4 km/h (1 Bft) O-NO 58 1 min 0,000 mm 2,7 UV-I 527 W/m 12,7 C 9,7 km/h (2 Bft)
24.09.2016 15:21 18,3 C 18,3 C 71 % 1023,6 hPa 0,0 mm 5,8 km/h (2 Bft) O-NO 59 1 min 0,000 mm 2,6 UV-I 526 W/m 12,9 C 9,7 km/h (2 Bft)
24.09.2016 15:22 18,3 C 18,3 C 71 % 1023,6 hPa 0,0 mm 5,6 km/h (1 Bft) NO 40 1 min 0,000 mm 2,6 UV-I 520 W/m 12,9 C 11,3 km/h (2 Bft)
24.09.2016 15:23 18,3 C 18,4 C 70 % 1023,6 hPa 0,0 mm 5,8 km/h (2 Bft) N-NO 23 1 min 0,000 mm 2,5 UV-I 512 W/m 12,7 C 11,3 km/h (2 Bft)
24.09.2016 15:24 18,3 C 18,3 C 70 % 1023,6 hPa 0,0 mm 6,5 km/h (2 Bft) O-NO 60 1 min 0,000 mm 2,5 UV-I 519 W/m 12,7 C 9,7 km/h (2 Bft)
24.09.2016 15:25 18,3 C 18,3 C 70 % 1023,6 hPa 0,0 mm 8,5 km/h (2 Bft) O-NO 57 1 min 0,000 mm 2,5 UV-I 510 W/m 12,7 C 11,3 km/h (2 Bft)
24.09.2016 15:26 18,3 C 18,3 C 70 % 1023,5 hPa 0,0 mm 8,3 km/h (2 Bft) O-SO 121 1 min 0,000 mm 2,5 UV-I 504 W/m 12,7 C 11,3 km/h (2 Bft)
24.09.2016 15:27 18,2 C 18,3 C 70 % 1023,6 hPa 0,0 mm 5,4 km/h (1 Bft) S-SO 149 1 min 0,000 mm 2,5 UV-I 489 W/m 12,6 C 9,7 km/h (2 Bft)
24.09.2016 15:28 18,2 C 18,2 C 72 % 1023,5 hPa 0,0 mm 0,9 km/h (0 Bft) S-SO 149 1 min 0,000 mm 2,5 UV-I 497 W/m 13,1 C 3,2 km/h (1 Bft)
24.09.2016 15:29 18,2 C 18,2 C 71 % 1023,5 hPa 0,0 mm 2,5 km/h (1 Bft) O 87 1 min 0,000 mm 2,5 UV-I 496 W/m 12,9 C 4,8 km/h (1 Bft)
24.09.2016 15:30 18,2 C 18,2 C 71 % 1023,4 hPa 0,0 mm 4,1 km/h (1 Bft) O-NO 74 1 min 0,000 mm 2,6 UV-I 499 W/m 12,9 C 6,4 km/h (2 Bft)
24.09.2016 15:31 18,3 C 18,3 C 72 % 1023,4 hPa 0,0 mm 3,3 km/h (1 Bft) O 84 1 min 0,000 mm 2,6 UV-I 494 W/m 13,2 C 8,0 km/h (2 Bft)
24.09.2016 15:32 18,2 C 18,3 C 73 % 1023,5 hPa 0,0 mm 8,3 km/h (2 Bft) NO 51 1 min 0,000 mm 2,5 UV-I 489 W/m 13,3 C 11,3 km/h (2 Bft)
24.09.2016 15:33 18,2 C 18,3 C 71 % 1023,4 hPa 0,0 mm 6,2 km/h (2 Bft) N-NO 27 1 min 0,000 mm 2,6 UV-I 487 W/m 12,9 C 9,7 km/h (2 Bft)
24.09.2016 15:34 18,3 C 18,3 C 69 % 1023,4 hPa 0,0 mm 4,2 km/h (1 Bft) N 355 1 min 0,000 mm 2,6 UV-I 487 W/m 12,5 C 9,7 km/h (2 Bft)
24.09.2016 15:35 18,4 C 18,4 C 68 % 1023,4 hPa 0,0 mm 9,7 km/h (2 Bft) N 5 1 min 0,000 mm 2,6 UV-I 483 W/m 12,4 C 12,9 km/h (3 Bft)
24.09.2016 15:36 18,4 C 18,4 C 69 % 1023,4 hPa 0,0 mm 6,9 km/h (2 Bft) N 350 1 min 0,000 mm 2,6 UV-I 480 W/m 12,6 C 12,9 km/h (3 Bft)
24.09.2016 15:37 18,4 C 18,4 C 69 % 1023,3 hPa 0,0 mm 4,8 km/h (1 Bft) NO 42 1 min 0,000 mm 2,6 UV-I 478 W/m 12,6 C 8,0 km/h (2 Bft)
24.09.2016 15:38 18,3 C 18,4 C 68 % 1023,4 hPa 0,0 mm 4,8 km/h (1 Bft) N-NO 22 1 min 0,000 mm 2,6 UV-I 480 W/m 12,3 C 6,4 km/h (2 Bft)
24.09.2016 15:39 18,4 C 18,4 C 69 % 1023,4 hPa 0,0 mm 2,7 km/h (1 Bft) N-NO 22 1 min 0,000 mm 2,5 UV-I 473 W/m 12,6 C 4,8 km/h (1 Bft)
24.09.2016 15:40 18,6 C 18,6 C 69 % 1023,4 hPa 0,0 mm 4,2 km/h (1 Bft) N-NO 12 1 min 0,000 mm 2,5 UV-I 462 W/m 12,8 C 4,8 km/h (1 Bft)
24.09.2016 15:41 18,6 C 18,6 C 70 % 1023,3 hPa 0,0 mm 5,5 km/h (1 Bft) NO 44 1 min 0,000 mm 2,2 UV-I 462 W/m 13,0 C 9,7 km/h (2 Bft)
24.09.2016 15:42 18,6 C 18,6 C 68 % 1023,4 hPa 0,0 mm 4,7 km/h (1 Bft) O-SO 112 0 min 0,000 mm 2,0 UV-I 185 W/m 12,6 C 9,7 km/h (2 Bft)
24.09.2016 15:43 18,5 C 18,6 C 68 % 1023,3 hPa 0,0 mm 5,8 km/h (2 Bft) NO 38 0 min 0,000 mm 2,5 UV-I 185 W/m 12,5 C 8,0 km/h (2 Bft)
24.09.2016 15:44 18,5 C 18,5 C 68 % 1023,4 hPa 0,0 mm 2,9 km/h (1 Bft) N-NO 16 1 min 0,000 mm 2,6 UV-I 473 W/m 12,5 C 4,8 km/h (1 Bft)
24.09.2016 15:45 18,4 C 18,5 C 70 % 1023,3 hPa 0,0 mm 2,8 km/h (1 Bft) O 79 1 min 0,000 mm 2,5 UV-I 466 W/m 12,8 C 11,3 km/h (2 Bft)
24.09.2016 15:46 18,4 C 18,4 C 69 % 1023,3 hPa 0,0 mm 7,1 km/h (2 Bft) NO 42 1 min 0,000 mm 2,5 UV-I 462 W/m 12,6 C 9,7 km/h (2 Bft)
24.09.2016 15:47 18,4 C 18,4 C 70 % 1023,3 hPa 0,0 mm 5,9 km/h (2 Bft) NO 55 1 min 0,000 mm 2,5 UV-I 457 W/m 12,8 C 9,7 km/h (2 Bft)
24.09.2016 15:48 18,3 C 18,4 C 68 % 1023,4 hPa 0,0 mm 9,8 km/h (2 Bft) NO 44 1 min 0,000 mm 2,5 UV-I 452 W/m 12,3 C 14,5 km/h (3 Bft)
24.09.2016 15:49 18,3 C 18,3 C 68 % 1023,4 hPa 0,0 mm 6,6 km/h (2 Bft) NO 38 1 min 0,000 mm 2,4 UV-I 448 W/m 12,3 C 11,3 km/h (2 Bft)
24.09.2016 15:50 18,3 C 18,3 C 68 % 1023,3 hPa 0,0 mm 9,7 km/h (2 Bft) O 86 1 min 0,000 mm 2,4 UV-I 445 W/m 12,3 C 14,5 km/h (3 Bft)
24.09.2016 15:51 18,2 C 18,3 C 68 % 1023,4 hPa 0,0 mm 6,5 km/h (2 Bft) NO 46 1 min 0,000 mm 2,4 UV-I 441 W/m 12,2 C 8,0 km/h (2 Bft)
24.09.2016 15:52 18,2 C 18,2 C 69 % 1023,3 hPa 0,0 mm 2,9 km/h (1 Bft) O 85 1 min 0,000 mm 2,4 UV-I 438 W/m 12,4 C 4,8 km/h (1 Bft)
24.09.2016 15:53 18,2 C 18,2 C 69 % 1023,3 hPa 0,0 mm 4,7 km/h (1 Bft) NO 42 1 min 0,000 mm 2,4 UV-I 438 W/m 12,4 C 11,3 km/h (2 Bft)
24.09.2016 15:54 18,2 C 18,2 C 69 % 1023,3 hPa 0,0 mm 7,1 km/h (2 Bft) NO 40 1 min 0,000 mm 2,4 UV-I 443 W/m 12,4 C 14,5 km/h (3 Bft)
24.09.2016 15:55 18,2 C 18,2 C 68 % 1023,3 hPa 0,0 mm 6,1 km/h (2 Bft) O-NO 71 1 min 0,000 mm 2,3 UV-I 438 W/m 12,2 C 11,3 km/h (2 Bft)
24.09.2016 15:56 18,2 C 18,3 C 68 % 1023,4 hPa 0,0 mm 7,2 km/h (2 Bft) N-NO 31 1 min 0,000 mm 2,3 UV-I 434 W/m 12,2 C 11,3 km/h (2 Bft)
24.09.2016 15:57 18,3 C 18,3 C 68 % 1023,3 hPa 0,0 mm 4,7 km/h (1 Bft) N-NW 335 1 min 0,000 mm 2,3 UV-I 411 W/m 12,3 C 9,7 km/h (2 Bft)
24.09.2016 15:58 18,3 C 18,3 C 68 % 1023,3 hPa 0,0 mm 4,6 km/h (1 Bft) O-NO 76 1 min 0,000 mm 2,3 UV-I 424 W/m 12,3 C 8,0 km/h (2 Bft)
24.09.2016 15:59 18,2 C 18,3 C 68 % 1023,3 hPa 0,0 mm 2,9 km/h (1 Bft) O-NO 57 1 min 0,000 mm 2,2 UV-I 420 W/m 12,2 C 4,8 km/h (1 Bft)
24.09.2016 16:00 18,2 C 18,2 C 68 % 1023,3 hPa 0,0 mm 3,2 km/h (1 Bft) N-NO 23 1 min 0,000 mm 2,2 UV-I 417 W/m 12,2 C 6,4 km/h (2 Bft)
24.09.2016 16:01 18,2 C 18,2 C 69 % 1023,3 hPa 0,0 mm 3,7 km/h (1 Bft) N-NO 24 1 min 0,279 mm 2,2 UV-I 420 W/m 12,4 C 6,4 km/h (2 Bft)
24.09.2016 16:02 18,3 C 18,3 C 69 % 1023,3 hPa 0,0 mm 4,4 km/h (1 Bft) N-NO 31 1 min 0,001 mm 2,2 UV-I 422 W/m 12,5 C 4,8 km/h (1 Bft)
24.09.2016 16:03 18,3 C 18,3 C 67 % 1023,3 hPa 0,0 mm 5,9 km/h (2 Bft) NO 43 1 min 0,000 mm 2,2 UV-I 417 W/m 12,1 C 8,0 km/h (2 Bft)
24.09.2016 16:04 18,3 C 18,3 C 67 % 1023,4 hPa 0,0 mm 6,1 km/h (2 Bft) N-NW 338 1 min 0,000 mm 2,2 UV-I 404 W/m 12,1 C 12,9 km/h (3 Bft)
24.09.2016 16:05 18,3 C 18,3 C 67 % 1023,3 hPa 0,0 mm 10,4 km/h (2 Bft) N-NW 344 1 min 0,000 mm 2,1 UV-I 399 W/m 12,1 C 16,1 km/h (3 Bft)
24.09.2016 16:06 18,3 C 18,3 C 67 % 1023,3 hPa 0,0 mm 8,6 km/h (2 Bft) NO 34 1 min 0,000 mm 2,1 UV-I 399 W/m 12,1 C 12,9 km/h (3 Bft)
24.09.2016 16:07 18,4 C 18,4 C 69 % 1023,3 hPa 0,0 mm 6,8 km/h (2 Bft) NO 46 1 min 0,000 mm 2,1 UV-I 401 W/m 12,6 C 9,7 km/h (2 Bft)
24.09.2016 16:08 18,4 C 18,4 C 67 % 1023,4 hPa 0,0 mm 5,1 km/h (1 Bft) O-NO 59 1 min 0,000 mm 2,1 UV-I 396 W/m 12,2 C 6,4 km/h (2 Bft)
24.09.2016 16:09 18,4 C 18,4 C 67 % 1023,3 hPa 0,0 mm 3,1 km/h (1 Bft) NO 55 1 min 0,000 mm 2,0 UV-I 373 W/m 12,2 C 4,8 km/h (1 Bft)
24.09.2016 16:10 18,3 C 18,4 C 68 % 1023,3 hPa 0,0 mm 3,8 km/h (1 Bft) NO 53 1 min 0,000 mm 1,9 UV-I 346 W/m 12,3 C 6,4 km/h (2 Bft)
24.09.2016 16:11 18,3 C 18,3 C 68 % 1023,3 hPa 0,0 mm 4,7 km/h (1 Bft) NO 34 1 min 0,000 mm 2,0 UV-I 378 W/m 12,3 C 6,4 km/h (2 Bft)
24.09.2016 16:12 18,3 C 18,3 C 69 % 1023,3 hPa 0,0 mm 2,5 km/h (1 Bft) NO 55 1 min 0,000 mm 2,0 UV-I 383 W/m 12,5 C 6,4 km/h (2 Bft)
24.09.2016 16:13 18,2 C 18,3 C 69 % 1023,2 hPa 0,0 mm 3,9 km/h (1 Bft) NO 38 1 min 0,000 mm 2,0 UV-I 387 W/m 12,4 C 6,4 km/h (2 Bft)
24.09.2016 16:14 18,2 C 18,2 C 68 % 1023,3 hPa 0,0 mm 6,4 km/h (2 Bft) O-NO 77 1 min 0,000 mm 2,0 UV-I 385 W/m 12,2 C 11,3 km/h (2 Bft)
24.09.2016 16:15 18,2 C 18,3 C 70 % 1023,3 hPa 0,0 mm 5,0 km/h (1 Bft) N 9 1 min 0,000 mm 2,0 UV-I 385 W/m 12,6 C 9,7 km/h (2 Bft)
24.09.2016 16:16 18,2 C 18,2 C 67 % 1023,3 hPa 0,0 mm 5,6 km/h (1 Bft) N-NW 333 1 min 0,000 mm 2,0 UV-I 383 W/m 12,0 C 8,0 km/h (2 Bft)
24.09.2016 16:17 18,2 C 18,2 C 67 % 1023,3 hPa 0,0 mm 4,6 km/h (1 Bft) N-NO 30 1 min 0,000 mm 1,9 UV-I 373 W/m 12,0 C 6,4 km/h (2 Bft)
24.09.2016 16:18 18,2 C 18,2 C 68 % 1023,3 hPa 0,0 mm 5,2 km/h (1 Bft) NO 40 1 min 0,000 mm 1,9 UV-I 366 W/m 12,2 C 9,7 km/h (2 Bft)
24.09.2016 16:19 18,2 C 18,2 C 67 % 1023,3 hPa 0,0 mm 3,9 km/h (1 Bft) NO 40 1 min 0,000 mm 1,8 UV-I 360 W/m 12,0 C 6,4 km/h (2 Bft)
24.09.2016 16:20 18,2 C 18,2 C 68 % 1023,3 hPa 0,0 mm 6,7 km/h (2 Bft) O-NO 69 1 min 0,000 mm 1,8 UV-I 355 W/m 12,2 C 12,9 km/h (3 Bft)
24.09.2016 16:21 18,1 C 18,2 C 67 % 1023,3 hPa 0,0 mm 6,8 km/h (2 Bft) N-NO 30 1 min 0,000 mm 1,8 UV-I 357 W/m 11,9 C 11,3 km/h (2 Bft)
24.09.2016 16:22 18,1 C 18,1 C 67 % 1023,3 hPa 0,0 mm 6,3 km/h (2 Bft) N-NO 19 1 min 0,000 mm 1,8 UV-I 362 W/m 11,9 C 9,7 km/h (2 Bft)
24.09.2016 16:23 18,1 C 18,1 C 68 % 1023,3 hPa 0,0 mm 2,7 km/h (1 Bft) N 355 1 min 0,000 mm 1,8 UV-I 362 W/m 12,1 C 4,8 km/h (1 Bft)
24.09.2016 16:24 18,0 C 18,1 C 69 % 1023,2 hPa 0,0 mm 1,8 km/h (1 Bft) N 355 1 min 0,000 mm 1,8 UV-I 360 W/m 12,2 C 3,2 km/h (1 Bft)
24.09.2016 16:25 18,0 C 18,1 C 68 % 1023,2 hPa 0,0 mm 6,8 km/h (2 Bft) NO 44 1 min 0,000 mm 1,8 UV-I 359 W/m 12,0 C 12,9 km/h (3 Bft)
24.09.2016 16:26 18,1 C 18,1 C 68 % 1023,2 hPa 0,0 mm 5,1 km/h (1 Bft) N 355 1 min 0,000 mm 1,8 UV-I 357 W/m 12,1 C 8,0 km/h (2 Bft)
24.09.2016 16:27 18,1 C 18,1 C 67 % 1023,2 hPa 0,0 mm 8,2 km/h (2 Bft) N-NW 343 1 min 0,000 mm 1,8 UV-I 353 W/m 11,9 C 16,1 km/h (3 Bft)
24.09.2016 16:28 18,1 C 18,1 C 67 % 1023,2 hPa 0,0 mm 4,8 km/h (1 Bft) N-NO 28 1 min 0,000 mm 1,7 UV-I 350 W/m 11,9 C 9,7 km/h (2 Bft)
24.09.2016 16:29 18,1 C 18,1 C 69 % 1023,2 hPa 0,0 mm 7,6 km/h (2 Bft) O-NO 70 1 min 0,000 mm 1,7 UV-I 341 W/m 12,3 C 12,9 km/h (3 Bft)
24.09.2016 16:30 18,1 C 18,1 C 67 % 1023,3 hPa 0,0 mm 7,9 km/h (2 Bft) O 79 1 min 0,000 mm 1,7 UV-I 325 W/m 11,9 C 11,3 km/h (2 Bft)
24.09.2016 16:31 18,1 C 18,1 C 68 % 1023,2 hPa 0,0 mm 5,8 km/h (2 Bft) O-NO 63 1 min 0,000 mm 1,6 UV-I 269 W/m 12,1 C 11,3 km/h (2 Bft)
24.09.2016 16:32 18,1 C 18,1 C 67 % 1023,2 hPa 0,0 mm 8,4 km/h (2 Bft) O-NO 59 1 min 0,000 mm 1,3 UV-I 269 W/m 11,9 C 12,9 km/h (3 Bft)
24.09.2016 16:33 18,0 C 18,1 C 67 % 1023,2 hPa 0,0 mm 2,6 km/h (1 Bft) NO 55 0 min 0,000 mm 0,0 UV-I 51 W/m 11,8 C 8,0 km/h (2 Bft)
24.09.2016 16:34 17,9 C 18,0 C 70 % 1023,2 hPa 0,0 mm 3,2 km/h (1 Bft) N 360 0 min 0,000 mm 1,3 UV-I 125 W/m 12,3 C 6,4 km/h (2 Bft)
24.09.2016 16:35 17,8 C 17,9 C 68 % 1023,2 hPa 0,0 mm 4,0 km/h (1 Bft) O-NO 63 0 min 0,000 mm 1,3 UV-I 134 W/m 11,8 C 4,8 km/h (1 Bft)
24.09.2016 16:36 17,8 C 17,8 C 69 % 1023,2 hPa 0,0 mm 5,7 km/h (1 Bft) O 84 0 min 0,000 mm 1,3 UV-I 93 W/m 12,0 C 8,0 km/h (2 Bft)
24.09.2016 16:37 17,8 C 17,8 C 68 % 1023,2 hPa 0,0 mm 6,4 km/h (2 Bft) NO 41 0 min 0,000 mm 1,2 UV-I 74 W/m 11,8 C 8,0 km/h (2 Bft)
24.09.2016 16:38 17,8 C 17,8 C 68 % 1023,1 hPa 0,0 mm 3,5 km/h (1 Bft) N-NO 25 0 min 0,000 mm 1,2 UV-I 98 W/m 11,8 C 8,0 km/h (2 Bft)
24.09.2016 16:39 17,8 C 17,8 C 69 % 1023,1 hPa 0,0 mm 1,9 km/h (1 Bft) O-NO 71 0 min 0,000 mm 0,0 UV-I 51 W/m 12,0 C 3,2 km/h (1 Bft)
24.09.2016 16:40 17,7 C 17,8 C 68 % 1023,1 hPa 0,0 mm 3,4 km/h (1 Bft) NO 43 0 min 0,000 mm 1,2 UV-I 62 W/m 11,7 C 8,0 km/h (2 Bft)
24.09.2016 16:41 17,7 C 17,7 C 67 % 1023,1 hPa 0,0 mm 4,2 km/h (1 Bft) NO 42 0 min 0,000 mm 0,0 UV-I 47 W/m 11,5 C 9,7 km/h (2 Bft)
24.09.2016 16:42 17,7 C 17,7 C 68 % 1023,1 hPa 0,0 mm 7,0 km/h (2 Bft) N-NO 31 0 min 0,000 mm 0,0 UV-I 46 W/m 11,7 C 9,7 km/h (2 Bft)
24.09.2016 16:43 17,7 C 17,7 C 69 % 1023,1 hPa 0,0 mm 4,0 km/h (1 Bft) NO 53 0 min 0,000 mm 0,0 UV-I 54 W/m 11,9 C 9,7 km/h (2 Bft)
24.09.2016 16:44 17,6 C 17,7 C 71 % 1023,1 hPa 0,0 mm 3,9 km/h (1 Bft) O-NO 59 0 min 0,000 mm 1,1 UV-I 63 W/m 12,3 C 6,4 km/h (2 Bft)
24.09.2016 16:45 17,6 C 17,6 C 71 % 1023,1 hPa 0,0 mm 2,2 km/h (1 Bft) O-NO 59 0 min 0,000 mm 1,1 UV-I 62 W/m 12,3 C 4,8 km/h (1 Bft)
24.09.2016 16:46 17,6 C 17,6 C 71 % 1023,1 hPa 0,0 mm 2,5 km/h (1 Bft) O 92 0 min 0,000 mm 0,0 UV-I 44 W/m 12,3 C 3,2 km/h (1 Bft)
24.09.2016 16:47 17,5 C 17,6 C 69 % 1023,1 hPa 0,0 mm 4,4 km/h (1 Bft) N 360 0 min 0,000 mm 0,0 UV-I 44 W/m 11,7 C 8,0 km/h (2 Bft)
24.09.2016 16:48 17,4 C 17,6 C 71 % 1023,1 hPa 0,0 mm 5,8 km/h (2 Bft) O 90 0 min 0,000 mm 0,0 UV-I 44 W/m 12,1 C 8,0 km/h (2 Bft)
24.09.2016 16:49 17,3 C 17,4 C 71 % 1023,1 hPa 0,0 mm 1,7 km/h (1 Bft) O 97 0 min 0,000 mm 0,0 UV-I 44 W/m 12,0 C 3,2 km/h (1 Bft)
24.09.2016 16:50 17,3 C 17,3 C 70 % 1023,1 hPa 0,0 mm 0,9 km/h (0 Bft) O-NO 59 0 min 0,000 mm 0,0 UV-I 42 W/m 11,8 C 3,2 km/h (1 Bft)
24.09.2016 16:51 17,3 C 17,3 C 72 % 1023,1 hPa 0,0 mm 3,2 km/h (1 Bft) O-NO 74 0 min 0,000 mm 0,0 UV-I 44 W/m 12,2 C 8,0 km/h (2 Bft)
24.09.2016 16:52 17,4 C 17,4 C 70 % 1023,1 hPa 0,0 mm 3,5 km/h (1 Bft) O-NO 62 0 min 0,000 mm 0,0 UV-I 44 W/m 11,9 C 6,4 km/h (2 Bft)
24.09.2016 16:53 17,5 C 17,5 C 70 % 1023,1 hPa 0,0 mm 3,9 km/h (1 Bft) NO 40 0 min 0,000 mm 0,0 UV-I 42 W/m 12,0 C 6,4 km/h (2 Bft)
24.09.2016 16:54 17,5 C 17,5 C 70 % 1023,1 hPa 0,0 mm 1,2 km/h (1 Bft) NO 40 0 min 0,000 mm 0,0 UV-I 42 W/m 12,0 C 1,6 km/h (1 Bft)
24.09.2016 16:55 17,5 C 17,5 C 69 % 1023,1 hPa 0,0 mm 1,5 km/h (1 Bft) NO 40 0 min 0,000 mm 0,0 UV-I 47 W/m 11,7 C 3,2 km/h (1 Bft)
24.09.2016 16:56 17,6 C 17,6 C 70 % 1023,1 hPa 0,0 mm 3,6 km/h (1 Bft) NO 49 0 min 0,000 mm 0,0 UV-I 51 W/m 12,1 C 8,0 km/h (2 Bft)
24.09.2016 16:57 17,6 C 17,6 C 71 % 1023,1 hPa 0,0 mm 6,9 km/h (2 Bft) O-NO 78 0 min 0,000 mm 1,0 UV-I 56 W/m 12,3 C 12,9 km/h (3 Bft)
24.09.2016 16:58 17,6 C 17,6 C 68 % 1023,1 hPa 0,0 mm 4,1 km/h (1 Bft) NO 35 0 min 0,000 mm 1,0 UV-I 51 W/m 11,6 C 6,4 km/h (2 Bft)
24.09.2016 16:59 17,6 C 17,6 C 70 % 1023,1 hPa 0,0 mm 2,6 km/h (1 Bft) N-NW 336 0 min 0,000 mm 0,0 UV-I 42 W/m 12,1 C 4,8 km/h (1 Bft)
24.09.2016 17:00 17,6 C 17,6 C 69 % 1023,1 hPa 0,0 mm 3,0 km/h (1 Bft) O 96 0 min 0,000 mm 0,0 UV-I 46 W/m 11,8 C 4,8 km/h (1 Bft)
24.09.2016 17:01 17,6 C 17,6 C 67 % 1023,0 hPa 0,0 mm 2,6 km/h (1 Bft) SO 146 0 min 0,152 mm 0,0 UV-I 46 W/m 11,4 C 4,8 km/h (1 Bft)
24.09.2016 17:02 17,6 C 17,6 C 68 % 1023,0 hPa 0,0 mm 2,2 km/h (1 Bft) O-SO 110 0 min 0,000 mm 0,0 UV-I 42 W/m 11,6 C 3,2 km/h (1 Bft)
24.09.2016 17:03 17,6 C 17,6 C 69 % 1023,1 hPa 0,0 mm 2,8 km/h (1 Bft) NO 51 0 min 0,000 mm 0,0 UV-I 40 W/m 11,8 C 4,8 km/h (1 Bft)
24.09.2016 17:04 17,4 C 17,6 C 71 % 1023,1 hPa 0,0 mm 4,9 km/h (1 Bft) O-NO 76 0 min 0,000 mm 0,0 UV-I 40 W/m 12,1 C 6,4 km/h (2 Bft)
24.09.2016 17:05 17,4 C 17,4 C 71 % 1023,1 hPa 0,0 mm 4,8 km/h (1 Bft) SO 125 0 min 0,000 mm 0,0 UV-I 40 W/m 12,1 C 8,0 km/h (2 Bft)
24.09.2016 17:06 17,3 C 17,4 C 69 % 1023,0 hPa 0,0 mm 4,8 km/h (1 Bft) O-NO 65 0 min 0,000 mm 0,0 UV-I 39 W/m 11,6 C 8,0 km/h (2 Bft)
24.09.2016 17:07 17,3 C 17,3 C 69 % 1023,0 hPa 0,0 mm 4,4 km/h (1 Bft) NO 45 0 min 0,000 mm 0,0 UV-I 39 W/m 11,6 C 6,4 km/h (2 Bft)
24.09.2016 17:08 17,3 C 17,3 C 71 % 1023,0 hPa 0,0 mm 3,8 km/h (1 Bft) N-NO 26 0 min 0,000 mm 0,0 UV-I 39 W/m 12,0 C 4,8 km/h (1 Bft)
24.09.2016 17:09 17,3 C 17,3 C 69 % 1022,9 hPa 0,0 mm 3,5 km/h (1 Bft) N-NO 28 0 min 0,000 mm 0,0 UV-I 39 W/m 11,6 C 4,8 km/h (1 Bft)
24.09.2016 17:10 17,2 C 17,3 C 71 % 1023,0 hPa 0,0 mm 3,3 km/h (1 Bft) NO 41 0 min 0,000 mm 0,0 UV-I 53 W/m 11,9 C 4,8 km/h (1 Bft)
24.09.2016 17:11 17,2 C 17,2 C 71 % 1022,9 hPa 0,0 mm 5,0 km/h (1 Bft) N-NO 30 0 min 0,000 mm 0,9 UV-I 74 W/m 11,9 C 8,0 km/h (2 Bft)
24.09.2016 17:12 17,2 C 17,2 C 70 % 1022,9 hPa 0,0 mm 3,0 km/h (1 Bft) NO 39 0 min 0,000 mm 0,0 UV-I 54 W/m 11,7 C 4,8 km/h (1 Bft)
24.09.2016 17:13 17,2 C 17,2 C 72 % 1022,9 hPa 0,0 mm 2,7 km/h (1 Bft) O-NO 69 0 min 0,000 mm 0,0 UV-I 46 W/m 12,1 C 4,8 km/h (1 Bft)
24.09.2016 17:14 17,1 C 17,2 C 72 % 1022,9 hPa 0,0 mm 6,4 km/h (2 Bft) NO 53 0 min 0,000 mm 0,0 UV-I 37 W/m 12,0 C 14,5 km/h (3 Bft)
24.09.2016 17:15 17,1 C 17,1 C 72 % 1022,9 hPa 0,0 mm 4,4 km/h (1 Bft) O 82 0 min 0,000 mm 0,0 UV-I 37 W/m 12,0 C 8,0 km/h (2 Bft)
24.09.2016 17:16 17,1 C 17,1 C 70 % 1023,0 hPa 0,0 mm 6,6 km/h (2 Bft) N-NO 29 0 min 0,000 mm 0,0 UV-I 37 W/m 11,6 C 9,7 km/h (2 Bft)
24.09.2016 17:17 17,2 C 17,2 C 69 % 1023,0 hPa 0,0 mm 5,0 km/h (1 Bft) N-NO 17 0 min 0,000 mm 0,0 UV-I 37 W/m 11,5 C 8,0 km/h (2 Bft)
24.09.2016 17:18 17,2 C 17,2 C 68 % 1023,0 hPa 0,0 mm 4,9 km/h (1 Bft) N 355 0 min 0,000 mm 0,0 UV-I 37 W/m 11,2 C 8,0 km/h (2 Bft)
24.09.2016 17:19 17,3 C 17,3 C 70 % 1023,0 hPa 0,0 mm 2,1 km/h (1 Bft) N 355 0 min 0,000 mm 0,0 UV-I 39 W/m 11,8 C 3,2 km/h (1 Bft)
24.09.2016 17:20 17,3 C 17,3 C 72 % 1022,9 hPa 0,0 mm 1,4 km/h (1 Bft) N 355 0 min 0,000 mm 0,0 UV-I 39 W/m 12,2 C 3,2 km/h (1 Bft)
24.09.2016 17:21 17,2 C 17,3 C 71 % 1022,9 hPa 0,0 mm 2,1 km/h (1 Bft) NO 40 0 min 0,000 mm 0,0 UV-I 37 W/m 11,9 C 4,8 km/h (1 Bft)
24.09.2016 17:22 17,2 C 17,2 C 72 % 1022,9 hPa 0,0 mm 3,7 km/h (1 Bft) NO 39 0 min 0,000 mm 0,0 UV-I 37 W/m 12,1 C 4,8 km/h (1 Bft)
24.09.2016 17:23 17,2 C 17,2 C 70 % 1022,9 hPa 0,0 mm 5,5 km/h (1 Bft) NO 40 0 min 0,000 mm 0,0 UV-I 37 W/m 11,7 C 8,0 km/h (2 Bft)
24.09.2016 17:24 17,2 C 17,2 C 70 % 1022,9 hPa 0,0 mm 5,1 km/h (1 Bft) O-NO 60 0 min 0,000 mm 0,0 UV-I 37 W/m 11,7 C 8,0 km/h (2 Bft)
24.09.2016 17:25 17,2 C 17,2 C 71 % 1022,9 hPa 0,0 mm 5,5 km/h (1 Bft) O-NO 75 0 min 0,000 mm 0,0 UV-I 37 W/m 11,9 C 6,4 km/h (2 Bft)
24.09.2016 17:26 17,2 C 17,2 C 70 % 1022,9 hPa 0,0 mm 3,6 km/h (1 Bft) NO 36 0 min 0,000 mm 0,0 UV-I 37 W/m 11,7 C 6,4 km/h (2 Bft)
24.09.2016 17:27 17,1 C 17,2 C 71 % 1022,9 hPa 0,0 mm 2,7 km/h (1 Bft) O-NO 67 0 min 0,000 mm 0,0 UV-I 35 W/m 11,8 C 4,8 km/h (1 Bft)
24.09.2016 17:28 16,9 C 17,1 C 74 % 1022,9 hPa 0,0 mm 3,0 km/h (1 Bft) O 82 0 min 0,000 mm 0,0 UV-I 35 W/m 12,2 C 4,8 km/h (1 Bft)
24.09.2016 17:29 16,9 C 16,9 C 72 % 1022,9 hPa 0,0 mm 5,2 km/h (1 Bft) O-NO 67 0 min 0,000 mm 0,0 UV-I 35 W/m 11,8 C 6,4 km/h (2 Bft)
24.09.2016 17:30 16,8 C 16,9 C 72 % 1022,9 hPa 0,0 mm 3,4 km/h (1 Bft) O-NO 75 0 min 0,000 mm 0,0 UV-I 35 W/m 11,7 C 6,4 km/h (2 Bft)
24.09.2016 17:31 16,9 C 16,9 C 71 % 1022,9 hPa 0,0 mm 5,5 km/h (1 Bft) N-NO 25 0 min 0,000 mm 0,0 UV-I 35 W/m 11,6 C 8,0 km/h (2 Bft)
24.09.2016 17:32 16,9 C 16,9 C 73 % 1022,9 hPa 0,0 mm 3,7 km/h (1 Bft) O-NO 62 0 min 0,000 mm 0,0 UV-I 35 W/m 12,0 C 4,8 km/h (1 Bft)
24.09.2016 17:33 16,8 C 16,9 C 72 % 1022,9 hPa 0,0 mm 2,8 km/h (1 Bft) O-NO 59 0 min 0,000 mm 0,0 UV-I 35 W/m 11,7 C 4,8 km/h (1 Bft)
24.09.2016 17:34 16,8 C 16,8 C 73 % 1023,0 hPa 0,0 mm 3,7 km/h (1 Bft) NO 55 0 min 0,000 mm 0,0 UV-I 35 W/m 11,9 C 4,8 km/h (1 Bft)
24.09.2016 17:35 16,8 C 16,8 C 73 % 1023,0 hPa 0,0 mm 2,6 km/h (1 Bft) NO 56 0 min 0,000 mm 0,0 UV-I 35 W/m 11,9 C 4,8 km/h (1 Bft)
24.09.2016 17:36 16,8 C 16,8 C 72 % 1022,9 hPa 0,0 mm 4,5 km/h (1 Bft) O-NO 74 0 min 0,000 mm 0,0 UV-I 35 W/m 11,7 C 6,4 km/h (2 Bft)
24.09.2016 17:37 16,8 C 16,8 C 73 % 1022,9 hPa 0,0 mm 3,3 km/h (1 Bft) O 84 0 min 0,000 mm 0,0 UV-I 35 W/m 11,9 C 4,8 km/h (1 Bft)
24.09.2016 17:38 16,8 C 16,8 C 72 % 1022,9 hPa 0,0 mm 1,9 km/h (1 Bft) NO 43 0 min 0,000 mm 0,0 UV-I 35 W/m 11,7 C 3,2 km/h (1 Bft)
24.09.2016 17:39 16,8 C 16,8 C 73 % 1022,9 hPa 0,0 mm 2,7 km/h (1 Bft) NO 43 0 min 0,000 mm 0,0 UV-I 35 W/m 11,9 C 3,2 km/h (1 Bft)
24.09.2016 17:40 16,5 C 16,8 C 76 % 1023,0 hPa 0,0 mm 2,6 km/h (1 Bft) NO 43 0 min 0,000 mm 0,0 UV-I 35 W/m 12,3 C 3,2 km/h (1 Bft)
24.09.2016 17:41 16,4 C 16,5 C 75 % 1022,9 hPa 0,0 mm 4,8 km/h (1 Bft) NO 41 0 min 0,000 mm 0,0 UV-I 35 W/m 12,0 C 8,0 km/h (2 Bft)
24.09.2016 17:42 16,4 C 16,4 C 74 % 1022,9 hPa 0,0 mm 3,9 km/h (1 Bft) O 84 0 min 0,000 mm 0,0 UV-I 33 W/m 11,8 C 6,4 km/h (2 Bft)
24.09.2016 17:43 16,5 C 16,5 C 73 % 1022,9 hPa 0,0 mm 2,1 km/h (1 Bft) O-NO 74 0 min 0,000 mm 0,0 UV-I 33 W/m 11,6 C 3,2 km/h (1 Bft)
24.09.2016 17:44 16,6 C 16,6 C 74 % 1022,9 hPa 0,0 mm 2,5 km/h (1 Bft) O-NO 74 0 min 0,000 mm 0,0 UV-I 33 W/m 11,9 C 4,8 km/h (1 Bft)
24.09.2016 17:45 16,5 C 16,6 C 72 % 1022,9 hPa 0,0 mm 2,5 km/h (1 Bft) O-NO 74 0 min 0,000 mm 0,0 UV-I 35 W/m 11,4 C 4,8 km/h (1 Bft)
24.09.2016 17:46 16,5 C 16,6 C 74 % 1022,9 hPa 0,0 mm 1,4 km/h (1 Bft) O-NO 74 0 min 0,000 mm 0,0 UV-I 35 W/m 11,8 C 3,2 km/h (1 Bft)
24.09.2016 17:47 16,5 C 16,6 C 74 % 1022,9 hPa 0,0 mm 2,0 km/h (1 Bft) O-NO 74 0 min 0,000 mm 0,0 UV-I 35 W/m 11,8 C 3,2 km/h (1 Bft)
24.09.2016 17:48 16,5 C 16,5 C 73 % 1022,9 hPa 0,0 mm 0,7 km/h (0 Bft) O-NO 74 0 min 0,000 mm 0,0 UV-I 35 W/m 11,6 C 3,2 km/h (1 Bft)
24.09.2016 17:49 16,4 C 16,5 C 75 % 1022,9 hPa 0,0 mm 1,5 km/h (1 Bft) O-NO 74 0 min 0,000 mm 0,0 UV-I 35 W/m 12,0 C 4,8 km/h (1 Bft)
24.09.2016 17:50 16,3 C 16,4 C 75 % 1022,9 hPa 0,0 mm 2,1 km/h (1 Bft) O-NO 74 0 min 0,000 mm 0,0 UV-I 35 W/m 11,9 C 4,8 km/h (1 Bft)
24.09.2016 17:51 16,3 C 16,3 C 74 % 1023,0 hPa 0,0 mm 1,5 km/h (1 Bft) O-NO 74 0 min 0,000 mm 0,0 UV-I 35 W/m 11,7 C 3,2 km/h (1 Bft)
24.09.2016 17:52 16,3 C 16,3 C 74 % 1023,0 hPa 0,0 mm 0,4 km/h (0 Bft) O-NO 74 0 min 0,000 mm 0,0 UV-I 35 W/m 11,7 C 1,6 km/h (1 Bft)
24.09.2016 17:53 16,2 C 16,3 C 76 % 1023,0 hPa 0,0 mm 1,2 km/h (1 Bft) O-NO 74 0 min 0,000 mm 0,0 UV-I 35 W/m 12,0 C 3,2 km/h (1 Bft)
24.09.2016 17:54 16,1 C 16,2 C 74 % 1022,9 hPa 0,0 mm 1,5 km/h (1 Bft) O-NO 74 0 min 0,000 mm 0,0 UV-I 35 W/m 11,5 C 3,2 km/h (1 Bft)
24.09.2016 17:55 16,2 C 16,2 C 75 % 1022,9 hPa 0,0 mm 1,3 km/h (1 Bft) O-NO 74 0 min 0,000 mm 0,0 UV-I 35 W/m 11,8 C 3,2 km/h (1 Bft)
24.09.2016 17:56 16,2 C 16,2 C 75 % 1022,9 hPa 0,0 mm 0,6 km/h (0 Bft) O-NO 74 0 min 0,000 mm 0,0 UV-I 35 W/m 11,8 C 1,6 km/h (1 Bft)
24.09.2016 17:57 16,3 C 16,3 C 75 % 1022,9 hPa 0,0 mm 0,6 km/h (0 Bft) O-NO 74 0 min 0,000 mm 0,0 UV-I 35 W/m 11,9 C 1,6 km/h (1 Bft)
24.09.2016 17:58 16,2 C 16,3 C 77 % 1022,9 hPa 0,0 mm 1,0 km/h (0 Bft) O-NO 74 0 min 0,000 mm 0,0 UV-I 35 W/m 12,2 C 1,6 km/h (1 Bft)
24.09.2016 17:59 16,1 C 16,2 C 76 % 1022,9 hPa 0,0 mm 1,1 km/h (1 Bft) O-NO 74 0 min 0,000 mm 0,0 UV-I 35 W/m 11,9 C 1,6 km/h (1 Bft)
24.09.2016 18:00 16,0 C 16,1 C 75 % 1022,9 hPa 0,0 mm 1,7 km/h (1 Bft) O-NO 74 0 min 0,000 mm 0,0 UV-I 35 W/m 11,6 C 3,2 km/h (1 Bft)
24.09.2016 18:01 16,1 C 16,1 C 75 % 1022,9 hPa 0,0 mm 0,9 km/h (0 Bft) O-NO 74 0 min 0,025 mm 0,0 UV-I 35 W/m 11,7 C 1,6 km/h (1 Bft)
24.09.2016 18:02 16,1 C 16,1 C 75 % 1022,9 hPa 0,0 mm 1,1 km/h (1 Bft) O-NO 74 0 min 0,001 mm 0,0 UV-I 35 W/m 11,7 C 3,2 km/h (1 Bft)
24.09.2016 18:03 16,1 C 16,1 C 76 % 1022,9 hPa 0,0 mm 2,5 km/h (1 Bft) NO 50 0 min 0,000 mm 0,0 UV-I 33 W/m 11,9 C 4,8 km/h (1 Bft)
24.09.2016 18:04 15,9 C 16,1 C 77 % 1022,9 hPa 0,0 mm 3,1 km/h (1 Bft) O 88 0 min 0,000 mm 0,0 UV-I 33 W/m 11,9 C 4,8 km/h (1 Bft)
24.09.2016 18:05 15,8 C 15,9 C 76 % 1022,9 hPa 0,0 mm 0,3 km/h (0 Bft) O 88 0 min 0,000 mm 0,0 UV-I 33 W/m 11,6 C 1,6 km/h (1 Bft)
24.09.2016 18:06 15,9 C 15,9 C 76 % 1022,9 hPa 0,0 mm 1,4 km/h (1 Bft) O 88 0 min 0,000 mm 0,0 UV-I 33 W/m 11,7 C 3,2 km/h (1 Bft)
24.09.2016 18:07 16,0 C 16,0 C 76 % 1022,9 hPa 0,0 mm 1,7 km/h (1 Bft) O 88 0 min 0,000 mm 0,0 UV-I 33 W/m 11,8 C 3,2 km/h (1 Bft)
24.09.2016 18:08 16,1 C 16,1 C 76 % 1022,9 hPa 0,0 mm 0,6 km/h (0 Bft) O 88 0 min 0,000 mm 0,0 UV-I 32 W/m 11,9 C 1,6 km/h (1 Bft)
24.09.2016 18:09 16,1 C 16,1 C 76 % 1022,9 hPa 0,0 mm 0,6 km/h (0 Bft) O 88 0 min 0,000 mm 0,0 UV-I 32 W/m 11,9 C 1,6 km/h (1 Bft)
24.09.2016 18:10 15,9 C 16,1 C 78 % 1022,9 hPa 0,0 mm 3,0 km/h (1 Bft) O 88 0 min 0,000 mm 0,0 UV-I 32 W/m 12,1 C 4,8 km/h (1 Bft)
24.09.2016 18:11 15,7 C 15,9 C 78 % 1022,9 hPa 0,0 mm 2,1 km/h (1 Bft) O 88 0 min 0,000 mm 0,0 UV-I 32 W/m 11,9 C 4,8 km/h (1 Bft)
24.09.2016 18:12 15,7 C 15,7 C 78 % 1022,9 hPa 0,0 mm 0,3 km/h (0 Bft) O 88 0 min 0,000 mm 0,0 UV-I 32 W/m 11,9 C 1,6 km/h (1 Bft)
24.09.2016 18:13 15,7 C 15,7 C 78 % 1022,9 hPa 0,0 mm 1,3 km/h (1 Bft) O 88 0 min 0,000 mm 0,0 UV-I 32 W/m 11,9 C 3,2 km/h (1 Bft)
24.09.2016 18:14 15,8 C 15,8 C 77 % 1023,0 hPa 0,0 mm 0,9 km/h (0 Bft) O 88 0 min 0,000 mm 0,0 UV-I 30 W/m 11,8 C 1,6 km/h (1 Bft)
24.09.2016 18:15 15,8 C 15,9 C 77 % 1022,9 hPa 0,0 mm 0,0 km/h (0 Bft) O 88 0 min 0,000 mm 0,0 UV-I 30 W/m 11,8 C 0,0 km/h (0 Bft)
24.09.2016 18:16 15,8 C 15,9 C 77 % 1023,0 hPa 0,0 mm 1,5 km/h (1 Bft) O 88 0 min 0,000 mm 0,0 UV-I 28 W/m 11,8 C 1,6 km/h (1 Bft)
24.09.2016 18:17 15,7 C 15,8 C 79 % 1022,9 hPa 0,0 mm 0,5 km/h (0 Bft) O 88 0 min 0,000 mm 0,0 UV-I 28 W/m 12,1 C 1,6 km/h (1 Bft)
24.09.2016 18:18 15,6 C 15,7 C 78 % 1022,9 hPa 0,0 mm 1,9 km/h (1 Bft) O 88 0 min 0,000 mm 0,0 UV-I 28 W/m 11,8 C 3,2 km/h (1 Bft)
24.09.2016 18:19 15,5 C 15,6 C 79 % 1022,9 hPa 0,0 mm 1,5 km/h (1 Bft) O 88 0 min 0,000 mm 0,0 UV-I 28 W/m 11,9 C 3,2 km/h (1 Bft)
24.09.2016 18:20 15,4 C 15,5 C 79 % 1022,9 hPa 0,0 mm 0,9 km/h (0 Bft) O 88 0 min 0,000 mm 0,0 UV-I 26 W/m 11,8 C 1,6 km/h (1 Bft)
24.09.2016 18:21 15,3 C 15,4 C 80 % 1022,9 hPa 0,0 mm 1,5 km/h (1 Bft) O 88 0 min 0,000 mm 0,0 UV-I 26 W/m 11,9 C 3,2 km/h (1 Bft)
24.09.2016 18:22 15,3 C 15,3 C 80 % 1022,9 hPa 0,0 mm 3,1 km/h (1 Bft) O 88 0 min 0,000 mm 0,0 UV-I 26 W/m 11,9 C 4,8 km/h (1 Bft)
24.09.2016 18:23 15,4 C 15,4 C 77 % 1022,9 hPa 0,0 mm 1,1 km/h (1 Bft) O 88 0 min 0,000 mm 0,0 UV-I 26 W/m 11,4 C 3,2 km/h (1 Bft)
24.09.2016 18:24 15,4 C 15,4 C 78 % 1022,9 hPa 0,0 mm 2,7 km/h (1 Bft) O 96 0 min 0,000 mm 0,0 UV-I 25 W/m 11,6 C 4,8 km/h (1 Bft)
24.09.2016 18:25 15,5 C 15,5 C 78 % 1022,9 hPa 0,0 mm 2,0 km/h (1 Bft) O 96 0 min 0,000 mm 0,0 UV-I 25 W/m 11,7 C 3,2 km/h (1 Bft)
24.09.2016 18:26 15,6 C 15,6 C 78 % 1022,9 hPa 0,0 mm 0,4 km/h (0 Bft) O 96 0 min 0,000 mm 0,0 UV-I 25 W/m 11,8 C 1,6 km/h (1 Bft)
24.09.2016 18:27 15,7 C 15,7 C 77 % 1022,9 hPa 0,0 mm 1,1 km/h (1 Bft) O 96 0 min 0,000 mm 0,0 UV-I 23 W/m 11,7 C 3,2 km/h (1 Bft)
24.09.2016 18:28 15,7 C 15,7 C 78 % 1022,9 hPa 0,0 mm 1,2 km/h (1 Bft) O 96 0 min 0,000 mm 0,0 UV-I 23 W/m 11,9 C 3,2 km/h (1 Bft)
24.09.2016 18:29 15,7 C 15,7 C 77 % 1022,9 hPa 0,0 mm 1,3 km/h (1 Bft) O 96 0 min 0,000 mm 0,0 UV-I 23 W/m 11,7 C 1,6 km/h (1 Bft)
24.09.2016 18:30 15,7 C 15,8 C 77 % 1022,9 hPa 0,0 mm 2,0 km/h (1 Bft) O 96 0 min 0,000 mm 0,0 UV-I 23 W/m 11,7 C 3,2 km/h (1 Bft)
24.09.2016 18:31 15,7 C 15,8 C 77 % 1022,9 hPa 0,0 mm 1,5 km/h (1 Bft) O 96 0 min 0,000 mm 0,0 UV-I 21 W/m 11,7 C 3,2 km/h (1 Bft)
24.09.2016 18:32 15,8 C 15,8 C 77 % 1022,9 hPa 0,0 mm 1,0 km/h (0 Bft) O 96 0 min 0,000 mm 0,0 UV-I 21 W/m 11,8 C 1,6 km/h (1 Bft)
24.09.2016 18:33 15,8 C 15,8 C 77 % 1022,9 hPa 0,0 mm 0,0 km/h (0 Bft) O 96 0 min 0,000 mm 0,0 UV-I 21 W/m 11,8 C 0,0 km/h (0 Bft)
24.09.2016 18:34 15,7 C 15,8 C 77 % 1022,9 hPa 0,0 mm 1,8 km/h (1 Bft) O 96 0 min 0,000 mm 0,0 UV-I 21 W/m 11,7 C 3,2 km/h (1 Bft)
24.09.2016 18:35 15,6 C 15,7 C 78 % 1022,9 hPa 0,0 mm 1,3 km/h (1 Bft) O 96 0 min 0,000 mm 0,0 UV-I 19 W/m 11,8 C 1,6 km/h (1 Bft)
24.09.2016 18:36 15,6 C 15,6 C 78 % 1022,9 hPa 0,0 mm 0,3 km/h (0 Bft) O 96 0 min 0,000 mm 0,0 UV-I 19 W/m 11,8 C 1,6 km/h (1 Bft)
24.09.2016 18:37 15,6 C 15,6 C 78 % 1022,9 hPa 0,0 mm 0,0 km/h (0 Bft) O 96 0 min 0,000 mm 0,0 UV-I 19 W/m 11,8 C 0,0 km/h (0 Bft)
24.09.2016 18:38 15,6 C 15,6 C 78 % 1022,9 hPa 0,0 mm 0,0 km/h (0 Bft) O 96 0 min 0,000 mm 0,0 UV-I 19 W/m 11,8 C 0,0 km/h (0 Bft)
24.09.2016 18:39 15,6 C 15,6 C 78 % 1022,9 hPa 0,0 mm 0,0 km/h (0 Bft) O 96 0 min 0,000 mm 0,0 UV-I 18 W/m 11,8 C 0,0 km/h (0 Bft)
24.09.2016 18:40 15,6 C 15,6 C 78 % 1022,9 hPa 0,0 mm 0,0 km/h (0 Bft) O 96 0 min 0,000 mm 0,0 UV-I 18 W/m 11,8 C 0,0 km/h (0 Bft)
24.09.2016 18:41 15,6 C 15,6 C 78 % 1022,8 hPa 0,0 mm 0,0 km/h (0 Bft) O 96 0 min 0,000 mm 0,0 UV-I 18 W/m 11,8 C 0,0 km/h (0 Bft)
24.09.2016 18:42 15,5 C 15,6 C 78 % 1022,9 hPa 0,0 mm 0,0 km/h (0 Bft) O 96 0 min 0,000 mm 0,0 UV-I 18 W/m 11,7 C 0,0 km/h (0 Bft)
24.09.2016 18:43 15,4 C 15,5 C 78 % 1022,9 hPa 0,0 mm 0,0 km/h (0 Bft) O 96 0 min 0,000 mm 0,0 UV-I 16 W/m 11,6 C 0,0 km/h (0 Bft)
24.09.2016 18:44 15,4 C 15,4 C 79 % 1022,9 hPa 0,0 mm 0,0 km/h (0 Bft) O 96 0 min 0,000 mm 0,0 UV-I 16 W/m 11,8 C 0,0 km/h (0 Bft)
24.09.2016 18:45 15,3 C 15,4 C 78 % 1022,9 hPa 0,0 mm 0,0 km/h (0 Bft) O 98 0 min 0,000 mm 0,0 UV-I 16 W/m 11,5 C 0,0 km/h (0 Bft)
24.09.2016 18:46 15,3 C 15,4 C 78 % 1022,9 hPa 0,0 mm 0,0 km/h (0 Bft) O 98 0 min 0,000 mm 0,0 UV-I 14 W/m 11,5 C 0,0 km/h (0 Bft)
24.09.2016 18:47 15,3 C 15,3 C 79 % 1022,9 hPa 0,0 mm 0,0 km/h (0 Bft) O 101 0 min 0,000 mm 0,0 UV-I 14 W/m 11,7 C 0,0 km/h (0 Bft)
24.09.2016 18:48 15,2 C 15,3 C 79 % 1022,9 hPa 0,0 mm 1,1 km/h (1 Bft) O 101 0 min 0,000 mm 0,0 UV-I 14 W/m 11,6 C 4,8 km/h (1 Bft)
24.09.2016 18:49 15,2 C 15,2 C 80 % 1022,8 hPa 0,0 mm 1,9 km/h (1 Bft) O-SO 102 0 min 0,000 mm 0,0 UV-I 12 W/m 11,8 C 4,8 km/h (1 Bft)
24.09.2016 18:50 15,1 C 15,2 C 79 % 1022,8 hPa 0,0 mm 1,9 km/h (1 Bft) O-SO 106 0 min 0,000 mm 0,0 UV-I 12 W/m 11,5 C 3,2 km/h (1 Bft)
24.09.2016 18:51 15,1 C 15,1 C 79 % 1022,9 hPa 0,0 mm 3,0 km/h (1 Bft) O-SO 106 0 min 0,000 mm 0,0 UV-I 12 W/m 11,5 C 4,8 km/h (1 Bft)
24.09.2016 18:52 15,0 C 15,1 C 80 % 1022,8 hPa 0,0 mm 1,3 km/h (1 Bft) O-SO 106 0 min 0,000 mm 0,0 UV-I 12 W/m 11,6 C 3,2 km/h (1 Bft)
24.09.2016 18:53 14,9 C 15,0 C 80 % 1022,9 hPa 0,0 mm 3,0 km/h (1 Bft) O-SO 106 0 min 0,000 mm 0,0 UV-I 12 W/m 11,5 C 3,2 km/h (1 Bft)
24.09.2016 18:54 14,9 C 14,9 C 80 % 1022,8 hPa 0,0 mm 2,4 km/h (1 Bft) O-SO 106 0 min 0,000 mm 0,0 UV-I 11 W/m 11,5 C 3,2 km/h (1 Bft)
24.09.2016 18:55 14,8 C 14,9 C 81 % 1022,8 hPa 0,0 mm 2,1 km/h (1 Bft) O-SO 106 0 min 0,000 mm 0,0 UV-I 11 W/m 11,6 C 3,2 km/h (1 Bft)
24.09.2016 18:56 14,8 C 14,8 C 81 % 1022,8 hPa 0,0 mm 2,5 km/h (1 Bft) O-SO 106 0 min 0,000 mm 0,0 UV-I 11 W/m 11,6 C 3,2 km/h (1 Bft)
24.09.2016 18:57 14,7 C 14,8 C 81 % 1022,8 hPa 0,0 mm 2,5 km/h (1 Bft) O-SO 106 0 min 0,000 mm 0,0 UV-I 9 W/m 11,5 C 3,2 km/h (1 Bft)
24.09.2016 18:58 14,7 C 14,7 C 81 % 1022,8 hPa 0,0 mm 2,4 km/h (1 Bft) O-SO 106 0 min 0,000 mm 0,0 UV-I 9 W/m 11,5 C 3,2 km/h (1 Bft)
24.09.2016 18:59 14,7 C 14,7 C 82 % 1022,8 hPa 0,0 mm 1,8 km/h (1 Bft) O-SO 106 1 min 0,000 mm 0,0 UV-I 9 W/m 11,7 C 3,2 km/h (1 Bft)
24.09.2016 19:00 14,6 C 14,7 C 82 % 1022,7 hPa 0,0 mm 2,5 km/h (1 Bft) O-SO 106 0 min 0,000 mm 0,0 UV-I 7 W/m 11,6 C 3,2 km/h (1 Bft)
24.09.2016 19:01 14,6 C 14,6 C 81 % 1022,8 hPa 0,0 mm 3,3 km/h (1 Bft) O-SO 123 0 min 0,025 mm 0,0 UV-I 7 W/m 11,4 C 4,8 km/h (1 Bft)
24.09.2016 19:02 14,5 C 14,6 C 82 % 1022,8 hPa 0,0 mm 2,6 km/h (1 Bft) O-SO 123 0 min 0,000 mm 0,0 UV-I 7 W/m 11,5 C 3,2 km/h (1 Bft)
24.09.2016 19:03 14,4 C 14,5 C 82 % 1022,7 hPa 0,0 mm 2,7 km/h (1 Bft) O-SO 123 0 min 0,000 mm 0,0 UV-I 7 W/m 11,4 C 4,8 km/h (1 Bft)
24.09.2016 19:04 14,4 C 14,4 C 82 % 1022,8 hPa 0,0 mm 2,8 km/h (1 Bft) S-SO 149 0 min 0,000 mm 0,0 UV-I 7 W/m 11,4 C 3,2 km/h (1 Bft)
24.09.2016 19:05 14,3 C 14,4 C 82 % 1022,8 hPa 0,0 mm 2,9 km/h (1 Bft) S-SO 149 0 min 0,000 mm 0,0 UV-I 5 W/m 11,3 C 4,8 km/h (1 Bft)
24.09.2016 19:06 14,3 C 14,3 C 83 % 1022,8 hPa 0,0 mm 2,3 km/h (1 Bft) S-SO 149 0 min 0,000 mm 0,0 UV-I 5 W/m 11,5 C 3,2 km/h (1 Bft)
24.09.2016 19:07 14,2 C 14,3 C 82 % 1022,8 hPa 0,0 mm 1,9 km/h (1 Bft) S-SO 149 0 min 0,000 mm 0,0 UV-I 5 W/m 11,2 C 3,2 km/h (1 Bft)
24.09.2016 19:08 14,2 C 14,2 C 83 % 1022,8 hPa 0,0 mm 1,2 km/h (1 Bft) S-SO 149 0 min 0,000 mm 0,0 UV-I 5 W/m 11,4 C 3,2 km/h (1 Bft)
24.09.2016 19:09 14,1 C 14,2 C 83 % 1022,8 hPa 0,0 mm 2,3 km/h (1 Bft) S-SO 149 0 min 0,000 mm 0,0 UV-I 5 W/m 11,3 C 3,2 km/h (1 Bft)
24.09.2016 19:10 14,1 C 14,1 C 83 % 1022,8 hPa 0,0 mm 1,1 km/h (1 Bft) S-SO 149 0 min 0,000 mm 0,0 UV-I 0 W/m 11,3 C 3,2 km/h (1 Bft)
24.09.2016 19:11 14,1 C 14,1 C 84 % 1022,9 hPa 0,0 mm 2,0 km/h (1 Bft) S-SO 149 0 min 0,000 mm 0,0 UV-I 0 W/m 11,4 C 3,2 km/h (1 Bft)
24.09.2016 19:12 14,1 C 14,1 C 84 % 1022,8 hPa 0,0 mm 1,9 km/h (1 Bft) S-SO 149 0 min 0,000 mm 0,0 UV-I 0 W/m 11,4 C 3,2 km/h (1 Bft)
24.09.2016 19:13 14,0 C 14,1 C 84 % 1022,9 hPa 0,0 mm 1,6 km/h (1 Bft) S-SO 149 0 min 0,000 mm 0,0 UV-I 0 W/m 11,3 C 3,2 km/h (1 Bft)
24.09.2016 19:14 13,9 C 14,0 C 84 % 1022,9 hPa 0,0 mm 1,2 km/h (1 Bft) S-SO 149 0 min 0,000 mm 0,0 UV-I 0 W/m 11,2 C 3,2 km/h (1 Bft)
24.09.2016 19:15 13,9 C 13,9 C 84 % 1022,9 hPa 0,0 mm 1,5 km/h (1 Bft) S-SO 149 0 min 0,000 mm 0,0 UV-I 0 W/m 11,2 C 3,2 km/h (1 Bft)
24.09.2016 19:16 13,8 C 13,9 C 85 % 1022,9 hPa 0,0 mm 0,4 km/h (0 Bft) S-SO 149 0 min 0,000 mm 0,0 UV-I 0 W/m 11,3 C 1,6 km/h (1 Bft)
24.09.2016 19:17 13,8 C 13,8 C 84 % 1022,9 hPa 0,0 mm 1,0 km/h (0 Bft) S-SO 149 0 min 0,000 mm 0,0 UV-I 0 W/m 11,1 C 1,6 km/h (1 Bft)
24.09.2016 19:18 13,8 C 13,8 C 85 % 1022,9 hPa 0,0 mm 0,5 km/h (0 Bft) S-SO 149 0 min 0,000 mm 0,0 UV-I 0 W/m 11,3 C 1,6 km/h (1 Bft)
24.09.2016 19:19 13,7 C 13,8 C 85 % 1022,9 hPa 0,0 mm 0,8 km/h (0 Bft) S-SO 149 0 min 0,000 mm 0,0 UV-I 0 W/m 11,2 C 1,6 km/h (1 Bft)
24.09.2016 19:20 13,7 C 13,7 C 85 % 1022,9 hPa 0,0 mm 1,7 km/h (1 Bft) S-SO 149 0 min 0,000 mm 0,0 UV-I 0 W/m 11,2 C 3,2 km/h (1 Bft)
24.09.2016 19:21 13,7 C 13,7 C 85 % 1022,8 hPa 0,0 mm 1,5 km/h (1 Bft) S-SO 149 0 min 0,000 mm 0,0 UV-I 0 W/m 11,2 C 3,2 km/h (1 Bft)
24.09.2016 19:22 13,7 C 13,7 C 85 % 1022,9 hPa 0,0 mm 1,5 km/h (1 Bft) S-SO 149 0 min 0,000 mm 0,0 UV-I 0 W/m 11,2 C 3,2 km/h (1 Bft)
24.09.2016 19:23 13,7 C 13,7 C 85 % 1022,8 hPa 0,0 mm 2,4 km/h (1 Bft) S-SO 149 0 min 0,000 mm 0,0 UV-I 0 W/m 11,2 C 4,8 km/h (1 Bft)
24.09.2016 19:24 13,6 C 13,7 C 85 % 1022,8 hPa 0,0 mm 2,1 km/h (1 Bft) S-SO 149 0 min 0,000 mm 0,0 UV-I 0 W/m 11,1 C 3,2 km/h (1 Bft)
24.09.2016 19:25 13,6 C 13,6 C 85 % 1022,8 hPa 0,0 mm 1,7 km/h (1 Bft) S-SO 149 0 min 0,000 mm 0,0 UV-I 0 W/m 11,1 C 3,2 km/h (1 Bft)
24.09.2016 19:26 13,6 C 13,6 C 85 % 1022,8 hPa 0,0 mm 1,1 km/h (1 Bft) S-SO 149 0 min 0,000 mm 0,0 UV-I 0 W/m 11,1 C 3,2 km/h (1 Bft)
24.09.2016 19:27 13,6 C 13,6 C 85 % 1022,8 hPa 0,0 mm 2,0 km/h (1 Bft) S-SO 149 0 min 0,000 mm 0,0 UV-I 0 W/m 11,1 C 3,2 km/h (1 Bft)
24.09.2016 19:28 13,6 C 13,6 C 85 % 1022,8 hPa 0,0 mm 1,2 km/h (1 Bft) S-SO 149 0 min 0,000 mm 0,0 UV-I 0 W/m 11,1 C 1,6 km/h (1 Bft)
24.09.2016 19:29 13,6 C 13,6 C 85 % 1022,8 hPa 0,0 mm 1,0 km/h (0 Bft) S-SO 149 0 min 0,000 mm 0,0 UV-I 0 W/m 11,1 C 1,6 km/h (1 Bft)
24.09.2016 19:30 13,5 C 13,6 C 85 % 1022,8 hPa 0,0 mm 1,3 km/h (1 Bft) S-SO 149 0 min 0,000 mm 0,0 UV-I 0 W/m 11,0 C 1,6 km/h (1 Bft)
24.09.2016 19:31 13,4 C 13,5 C 85 % 1022,8 hPa 0,0 mm 0,4 km/h (0 Bft) S-SO 149 0 min 0,000 mm 0,0 UV-I 0 W/m 10,9 C 1,6 km/h (1 Bft)
24.09.2016 19:32 13,4 C 13,4 C 85 % 1022,8 hPa 0,0 mm 0,3 km/h (0 Bft) S-SO 149 0 min 0,000 mm 0,0 UV-I 0 W/m 10,9 C 1,6 km/h (1 Bft)
24.09.2016 19:33 13,3 C 13,4 C 85 % 1022,7 hPa 0,0 mm 0,1 km/h (0 Bft) S-SO 149 0 min 0,000 mm 0,0 UV-I 0 W/m 10,8 C 1,6 km/h (1 Bft)
24.09.2016 19:34 13,3 C 13,3 C 85 % 1022,7 hPa 0,0 mm 0,0 km/h (0 Bft) S-SO 149 0 min 0,000 mm 0,0 UV-I 0 W/m 10,8 C 0,0 km/h (0 Bft)
24.09.2016 19:35 13,1 C 13,3 C 84 % 1022,7 hPa 0,0 mm 0,0 km/h (0 Bft) S-SO 149 0 min 0,000 mm 0,0 UV-I 0 W/m 10,5 C 0,0 km/h (0 Bft)
24.09.2016 19:36 12,8 C 13,1 C 85 % 1022,8 hPa 0,0 mm 0,0 km/h (0 Bft) S-SO 149 0 min 0,000 mm 0,0 UV-I 0 W/m 10,3 C 0,0 km/h (0 Bft)
24.09.2016 19:37 12,6 C 12,8 C 86 % 1022,8 hPa 0,0 mm 0,0 km/h (0 Bft) S-SO 149 0 min 0,000 mm 0,0 UV-I 0 W/m 10,3 C 0,0 km/h (0 Bft)
24.09.2016 19:38 12,5 C 12,6 C 87 % 1022,8 hPa 0,0 mm 0,0 km/h (0 Bft) S-SO 149 0 min 0,000 mm 0,0 UV-I 0 W/m 10,4 C 0,0 km/h (0 Bft)
24.09.2016 19:39 12,4 C 12,5 C 87 % 1022,7 hPa 0,0 mm 0,0 km/h (0 Bft) S-SO 149 0 min 0,000 mm 0,0 UV-I 0 W/m 10,3 C 0,0 km/h (0 Bft)
24.09.2016 19:40 12,4 C 12,4 C 87 % 1022,7 hPa 0,0 mm 0,0 km/h (0 Bft) S-SO 149 0 min 0,000 mm 0,0 UV-I 0 W/m 10,3 C 0,0 km/h (0 Bft)
24.09.2016 19:41 12,3 C 12,4 C 87 % 1022,7 hPa 0,0 mm 0,0 km/h (0 Bft) S-SO 149 0 min 0,000 mm 0,0 UV-I 0 W/m 10,2 C 0,0 km/h (0 Bft)
24.09.2016 19:42 12,2 C 12,3 C 87 % 1022,7 hPa 0,0 mm 0,0 km/h (0 Bft) S-SO 149 0 min 0,000 mm 0,0 UV-I 0 W/m 10,1 C 0,0 km/h (0 Bft)
24.09.2016 19:43 12,1 C 12,2 C 87 % 1022,7 hPa 0,0 mm 0,0 km/h (0 Bft) S-SO 149 0 min 0,000 mm 0,0 UV-I 0 W/m 10,0 C 0,0 km/h (0 Bft)
24.09.2016 19:44 12,1 C 12,1 C 88 % 1022,7 hPa 0,0 mm 0,0 km/h (0 Bft) S-SO 149 0 min 0,000 mm 0,0 UV-I 0 W/m 10,2 C 0,0 km/h (0 Bft)
24.09.2016 19:45 12,1 C 12,1 C 89 % 1022,7 hPa 0,0 mm 0,0 km/h (0 Bft) S-SO 149 0 min 0,000 mm 0,0 UV-I 0 W/m 10,3 C 0,0 km/h (0 Bft)
24.09.2016 19:46 12,1 C 12,1 C 89 % 1022,7 hPa 0,0 mm 0,0 km/h (0 Bft) S-SO 149 0 min 0,000 mm 0,0 UV-I 0 W/m 10,3 C 0,0 km/h (0 Bft)
24.09.2016 19:47 12,2 C 12,2 C 89 % 1022,6 hPa 0,0 mm 0,0 km/h (0 Bft) S-SO 149 0 min 0,000 mm 0,0 UV-I 0 W/m 10,4 C 0,0 km/h (0 Bft)
24.09.2016 19:48 12,3 C 12,3 C 88 % 1022,6 hPa 0,0 mm 0,6 km/h (0 Bft) S-SO 149 0 min 0,000 mm 0,0 UV-I 0 W/m 10,4 C 1,6 km/h (1 Bft)
24.09.2016 19:49 12,3 C 12,3 C 89 % 1022,6 hPa 0,0 mm 0,7 km/h (0 Bft) S-SO 149 0 min 0,000 mm 0,0 UV-I 0 W/m 10,5 C 1,6 km/h (1 Bft)
24.09.2016 19:50 12,4 C 12,4 C 88 % 1022,7 hPa 0,0 mm 0,0 km/h (0 Bft) S-SO 149 0 min 0,000 mm 0,0 UV-I 0 W/m 10,5 C 0,0 km/h (0 Bft)
24.09.2016 19:51 12,4 C 12,4 C 87 % 1022,7 hPa 0,0 mm 0,0 km/h (0 Bft) S-SO 149 0 min 0,000 mm 0,0 UV-I 0 W/m 10,3 C 0,0 km/h (0 Bft)
24.09.2016 19:52 12,3 C 12,4 C 87 % 1022,6 hPa 0,0 mm 0,7 km/h (0 Bft) S-SO 149 0 min 0,000 mm 0,0 UV-I 0 W/m 10,2 C 3,2 km/h (1 Bft)
24.09.2016 19:53 12,2 C 12,3 C 87 % 1022,7 hPa 0,0 mm 0,0 km/h (0 Bft) S-SO 149 0 min 0,000 mm 0,0 UV-I 0 W/m 10,1 C 0,0 km/h (0 Bft)
24.09.2016 19:54 12,1 C 12,2 C 88 % 1022,6 hPa 0,0 mm 0,0 km/h (0 Bft) S-SO 149 0 min 0,000 mm 0,0 UV-I 0 W/m 10,2 C 0,0 km/h (0 Bft)
24.09.2016 19:55 11,9 C 12,1 C 88 % 1022,6 hPa 0,0 mm 0,0 km/h (0 Bft) N 0 0 min 0,000 mm 0,0 UV-I 0 W/m 10,0 C 0,0 km/h (0 Bft)
24.09.2016 19:56 11,8 C 11,9 C 88 % 1022,6 hPa 0,0 mm 0,0 km/h (0 Bft) N 0 0 min 0,000 mm 0,0 UV-I 0 W/m 9,9 C 0,0 km/h (0 Bft)
24.09.2016 19:57 11,7 C 11,8 C 88 % 1022,6 hPa 0,0 mm 0,0 km/h (0 Bft) N 0 0 min 0,000 mm 0,0 UV-I 0 W/m 9,8 C 0,0 km/h (0 Bft)
24.09.2016 19:58 11,6 C 11,7 C 89 % 1022,6 hPa 0,0 mm 0,0 km/h (0 Bft) N 0 0 min 0,000 mm 0,0 UV-I 0 W/m 9,8 C 0,0 km/h (0 Bft)
24.09.2016 19:59 11,6 C 11,6 C 89 % 1022,6 hPa 0,0 mm 0,0 km/h (0 Bft) N 0 0 min 0,000 mm 0,0 UV-I 0 W/m 9,8 C 0,0 km/h (0 Bft)
24.09.2016 20:00 11,4 C 11,5 C 89 % 1022,6 hPa 0,0 mm 0,0 km/h (0 Bft) N 0 0 min 0,000 mm 0,0 UV-I 0 W/m 9,7 C 0,0 km/h (0 Bft)
24.09.2016 20:01 11,4 C 11,4 C 90 % 1022,6 hPa 0,0 mm 0,0 km/h (0 Bft) N 0 0 min 0,000 mm 0,0 UV-I 0 W/m 9,8 C 0,0 km/h (0 Bft)
24.09.2016 20:02 11,3 C 11,4 C 90 % 1022,6 hPa 0,0 mm 0,0 km/h (0 Bft) N 0 0 min 0,000 mm 0,0 UV-I 0 W/m 9,7 C 0,0 km/h (0 Bft)
24.09.2016 20:03 11,3 C 11,3 C 91 % 1022,6 hPa 0,0 mm 0,0 km/h (0 Bft) N 0 0 min 0,000 mm 0,0 UV-I 0 W/m 9,9 C 0,0 km/h (0 Bft)
24.09.2016 20:04 11,4 C 11,4 C 91 % 1022,6 hPa 0,0 mm 0,0 km/h (0 Bft) N 0 0 min 0,000 mm 0,0 UV-I 0 W/m 10,0 C 0,0 km/h (0 Bft)
24.09.2016 20:05 11,4 C 11,4 C 91 % 1022,6 hPa 0,0 mm 0,0 km/h (0 Bft) N 0 0 min 0,000 mm 0,0 UV-I 0 W/m 10,0 C 0,0 km/h (0 Bft)
24.09.2016 20:06 11,4 C 11,4 C 91 % 1022,6 hPa 0,0 mm 0,0 km/h (0 Bft) N 0 0 min 0,000 mm 0,0 UV-I 0 W/m 10,0 C 0,0 km/h (0 Bft)
24.09.2016 20:07 11,4 C 11,4 C 91 % 1022,6 hPa 0,0 mm 0,0 km/h (0 Bft) S-SO 157 0 min 0,000 mm 0,0 UV-I 0 W/m 10,0 C 1,6 km/h (1 Bft)
24.09.2016 20:08 11,4 C 11,4 C 91 % 1022,6 hPa 0,0 mm 0,0 km/h (0 Bft) N 0 0 min 0,000 mm 0,0 UV-I 0 W/m 10,0 C 0,0 km/h (0 Bft)
24.09.2016 20:09 11,5 C 11,5 C 90 % 1022,6 hPa 0,0 mm 0,0 km/h (0 Bft) N 0 0 min 0,000 mm 0,0 UV-I 0 W/m 9,9 C 0,0 km/h (0 Bft)
24.09.2016 20:10 11,5 C 11,5 C 90 % 1022,6 hPa 0,0 mm 0,0 km/h (0 Bft) S-SO 157 0 min 0,000 mm 0,0 UV-I 0 W/m 9,9 C 1,6 km/h (1 Bft)
24.09.2016 20:11 11,6 C 11,6 C 90 % 1022,6 hPa 0,0 mm 0,0 km/h (0 Bft) N 0 0 min 0,000 mm 0,0 UV-I 0 W/m 10,0 C 0,0 km/h (0 Bft)
24.09.2016 20:13 11,6 C 11,6 C 90 % 1022,6 hPa 0,0 mm 0,1 km/h (0 Bft) S-SO 149 0 min 0,000 mm 0,0 UV-I 0 W/m 10,0 C 1,6 km/h (1 Bft)
24.09.2016 20:14 11,6 C 11,7 C 90 % 1022,6 hPa 0,0 mm 0,0 km/h (0 Bft) S-SO 149 0 min 0,000 mm 0,0 UV-I 0 W/m 10,0 C 0,0 km/h (0 Bft)
24.09.2016 20:15 11,7 C 11,7 C 90 % 1022,6 hPa 0,0 mm 0,2 km/h (0 Bft) S-SO 149 0 min 0,000 mm 0,0 UV-I 0 W/m 10,1 C 1,6 km/h (1 Bft)
24.09.2016 20:16 11,6 C 11,7 C 89 % 1022,6 hPa 0,0 mm 0,0 km/h (0 Bft) S-SO 149 0 min 0,000 mm 0,0 UV-I 0 W/m 9,8 C 0,0 km/h (0 Bft)
24.09.2016 20:17 11,5 C 11,6 C 89 % 1022,7 hPa 0,0 mm 0,0 km/h (0 Bft) S-SO 149 0 min 0,000 mm 0,0 UV-I 0 W/m 9,8 C 0,0 km/h (0 Bft)
24.09.2016 20:18 11,4 C 11,5 C 89 % 1022,6 hPa 0,0 mm 0,0 km/h (0 Bft) S-SO 149 0 min 0,000 mm 0,0 UV-I 0 W/m 9,7 C 0,0 km/h (0 Bft)
24.09.2016 20:19 11,3 C 11,4 C 90 % 1022,7 hPa 0,0 mm 0,0 km/h (0 Bft) S-SO 149 0 min 0,000 mm 0,0 UV-I 0 W/m 9,7 C 0,0 km/h (0 Bft)
24.09.2016 20:20 11,2 C 11,3 C 90 % 1022,6 hPa 0,0 mm 0,0 km/h (0 Bft) S-SO 149 0 min 0,000 mm 0,0 UV-I 0 W/m 9,6 C 0,0 km/h (0 Bft)
24.09.2016 20:21 11,1 C 11,2 C 90 % 1022,6 hPa 0,0 mm 0,0 km/h (0 Bft) S-SO 149 0 min 0,000 mm 0,0 UV-I 0 W/m 9,5 C 0,0 km/h (0 Bft)
24.09.2016 20:22 11,1 C 11,1 C 91 % 1022,7 hPa 0,0 mm 0,0 km/h (0 Bft) S-SO 149 0 min 0,000 mm 0,0 UV-I 0 W/m 9,7 C 0,0 km/h (0 Bft)
24.09.2016 20:23 11,1 C 11,1 C 91 % 1022,6 hPa 0,0 mm 0,0 km/h (0 Bft) S-SO 149 0 min 0,000 mm 0,0 UV-I 0 W/m 9,7 C 0,0 km/h (0 Bft)
24.09.2016 20:24 11,1 C 11,1 C 91 % 1022,6 hPa 0,0 mm 0,0 km/h (0 Bft) S-SO 149 0 min 0,000 mm 0,0 UV-I 0 W/m 9,7 C 0,0 km/h (0 Bft)
24.09.2016 20:25 11,1 C 11,1 C 91 % 1022,6 hPa 0,0 mm 0,0 km/h (0 Bft) S-SO 149 0 min 0,000 mm 0,0 UV-I 0 W/m 9,7 C 0,0 km/h (0 Bft)
24.09.2016 20:26 11,1 C 11,1 C 91 % 1022,5 hPa 0,0 mm 0,4 km/h (0 Bft) S-SO 149 0 min 0,000 mm 0,0 UV-I 0 W/m 9,7 C 1,6 km/h (1 Bft)
24.09.2016 20:27 11,1 C 11,1 C 91 % 1022,6 hPa 0,0 mm 0,6 km/h (0 Bft) S-SO 149 0 min 0,000 mm 0,0 UV-I 0 W/m 9,7 C 1,6 km/h (1 Bft)
24.09.2016 20:28 11,2 C 11,2 C 91 % 1022,5 hPa 0,0 mm 0,8 km/h (0 Bft) S-SO 149 0 min 0,000 mm 0,0 UV-I 0 W/m 9,8 C 1,6 km/h (1 Bft)
24.09.2016 20:29 11,3 C 11,3 C 91 % 1022,5 hPa 0,0 mm 1,3 km/h (1 Bft) S-SO 149 0 min 0,000 mm 0,0 UV-I 0 W/m 9,9 C 1,6 km/h (1 Bft)
24.09.2016 20:30 11,3 C 11,3 C 91 % 1022,5 hPa 0,0 mm 0,7 km/h (0 Bft) S-SO 149 0 min 0,000 mm 0,0 UV-I 0 W/m 9,9 C 1,6 km/h (1 Bft)
24.09.2016 20:31 11,3 C 11,3 C 90 % 1022,6 hPa 0,0 mm 0,0 km/h (0 Bft) S-SO 149 0 min 0,000 mm 0,0 UV-I 0 W/m 9,7 C 0,0 km/h (0 Bft)
24.09.2016 20:32 11,2 C 11,3 C 91 % 1022,5 hPa 0,0 mm 0,0 km/h (0 Bft) S-SO 149 0 min 0,000 mm 0,0 UV-I 0 W/m 9,8 C 0,0 km/h (0 Bft)
24.09.2016 20:33 11,1 C 11,2 C 90 % 1022,6 hPa 0,0 mm 0,0 km/h (0 Bft) S-SO 149 0 min 0,000 mm 0,0 UV-I 0 W/m 9,5 C 0,0 km/h (0 Bft)
24.09.2016 20:34 11,0 C 11,1 C 90 % 1022,6 hPa 0,0 mm 0,0 km/h (0 Bft) S-SO 149 0 min 0,000 mm 0,0 UV-I 0 W/m 9,4 C 0,0 km/h (0 Bft)
24.09.2016 20:35 10,9 C 11,0 C 90 % 1022,6 hPa 0,0 mm 0,0 km/h (0 Bft) S-SO 149 0 min 0,000 mm 0,0 UV-I 0 W/m 9,3 C 0,0 km/h (0 Bft)
24.09.2016 20:36 10,8 C 10,9 C 91 % 1022,6 hPa 0,0 mm 0,0 km/h (0 Bft) S-SO 149 0 min 0,000 mm 0,0 UV-I 0 W/m 9,4 C 0,0 km/h (0 Bft)
24.09.2016 20:37 10,8 C 10,8 C 91 % 1022,6 hPa 0,0 mm 0,0 km/h (0 Bft) S-SO 149 0 min 0,000 mm 0,0 UV-I 0 W/m 9,4 C 0,0 km/h (0 Bft)
24.09.2016 20:40 10,7 C 10,7 C 92 % 1022,6 hPa 0,0 mm 0,0 km/h (0 Bft) S-SO 149 0 min 0,000 mm 0,0 UV-I 0 W/m 9,5 C 0,0 km/h (0 Bft)
24.09.2016 20:41 10,7 C 10,7 C 92 % 1022,5 hPa 0,0 mm 0,0 km/h (0 Bft) S-SO 149 0 min 0,000 mm 0,0 UV-I 0 W/m 9,5 C 0,0 km/h (0 Bft)
24.09.2016 20:42 10,7 C 10,7 C 92 % 1022,6 hPa 0,0 mm 0,3 km/h (0 Bft) S-SO 149 0 min 0,000 mm 0,0 UV-I 0 W/m 9,5 C 1,6 km/h (1 Bft)
24.09.2016 20:43 10,6 C 10,7 C 92 % 1022,5 hPa 0,0 mm 0,5 km/h (0 Bft) S-SO 149 0 min 0,000 mm 0,0 UV-I 0 W/m 9,4 C 1,6 km/h (1 Bft)
24.09.2016 20:44 10,6 C 10,6 C 91 % 1022,5 hPa 0,0 mm 0,0 km/h (0 Bft) S-SO 149 0 min 0,000 mm 0,0 UV-I 0 W/m 9,2 C 0,0 km/h (0 Bft)
24.09.2016 20:45 10,6 C 10,6 C 92 % 1022,5 hPa 0,0 mm 0,0 km/h (0 Bft) S-SO 149 0 min 0,000 mm 0,0 UV-I 0 W/m 9,4 C 0,0 km/h (0 Bft)
24.09.2016 20:46 10,6 C 10,6 C 92 % 1022,5 hPa 0,0 mm 0,3 km/h (0 Bft) S-SO 149 0 min 0,000 mm 0,0 UV-I 0 W/m 9,4 C 1,6 km/h (1 Bft)
24.09.2016 20:47 10,6 C 10,6 C 92 % 1022,5 hPa 0,0 mm 0,5 km/h (0 Bft) S-SO 149 0 min 0,000 mm 0,0 UV-I 0 W/m 9,4 C 1,6 km/h (1 Bft)
24.09.2016 20:48 10,6 C 10,6 C 92 % 1022,5 hPa 0,0 mm 0,1 km/h (0 Bft) S-SO 149 0 min 0,000 mm 0,0 UV-I 0 W/m 9,4 C 1,6 km/h (1 Bft)
24.09.2016 20:49 10,6 C 10,6 C 93 % 1022,5 hPa 0,0 mm 0,3 km/h (0 Bft) S-SO 149 0 min 0,000 mm 0,0 UV-I 0 W/m 9,5 C 1,6 km/h (1 Bft)
24.09.2016 20:50 10,7 C 10,7 C 93 % 1022,5 hPa 0,0 mm 0,0 km/h (0 Bft) S-SO 149 0 min 0,000 mm 0,0 UV-I 0 W/m 9,6 C 0,0 km/h (0 Bft)
24.09.2016 20:51 10,7 C 10,7 C 93 % 1022,5 hPa 0,0 mm 0,0 km/h (0 Bft) S-SO 149 0 min 0,000 mm 0,0 UV-I 0 W/m 9,6 C 0,0 km/h (0 Bft)
24.09.2016 20:52 10,7 C 10,7 C 93 % 1022,5 hPa 0,0 mm 0,0 km/h (0 Bft) S-SO 149 0 min 0,000 mm 0,0 UV-I 0 W/m 9,6 C 0,0 km/h (0 Bft)
24.09.2016 20:53 10,7 C 10,7 C 93 % 1022,5 hPa 0,0 mm 0,0 km/h (0 Bft) S-SO 149 0 min 0,000 mm 0,0 UV-I 0 W/m 9,6 C 0,0 km/h (0 Bft)
24.09.2016 20:54 10,7 C 10,7 C 92 % 1022,5 hPa 0,0 mm 0,0 km/h (0 Bft) S-SO 149 0 min 0,000 mm 0,0 UV-I 0 W/m 9,5 C 0,0 km/h (0 Bft)
24.09.2016 20:55 10,6 C 10,7 C 92 % 1022,5 hPa 0,0 mm 1,0 km/h (0 Bft) S-SO 149 0 min 0,000 mm 0,0 UV-I 0 W/m 9,4 C 3,2 km/h (1 Bft)
24.09.2016 20:56 10,6 C 10,6 C 92 % 1022,4 hPa 0,0 mm 0,1 km/h (0 Bft) S-SO 149 0 min 0,000 mm 0,0 UV-I 0 W/m 9,4 C 1,6 km/h (1 Bft)
24.09.2016 20:57 10,4 C 10,6 C 92 % 1022,5 hPa 0,0 mm 0,0 km/h (0 Bft) S-SO 149 0 min 0,000 mm 0,0 UV-I 0 W/m 9,2 C 0,0 km/h (0 Bft)
24.09.2016 20:58 10,4 C 10,4 C 92 % 1022,4 hPa 0,0 mm 0,0 km/h (0 Bft) S-SO 149 0 min 0,000 mm 0,0 UV-I 0 W/m 9,2 C 0,0 km/h (0 Bft)
24.09.2016 20:59 10,4 C 10,4 C 92 % 1022,5 hPa 0,0 mm 0,0 km/h (0 Bft) S-SO 149 0 min 0,000 mm 0,0 UV-I 0 W/m 9,2 C 0,0 km/h (0 Bft)
24.09.2016 21:00 10,3 C 10,4 C 92 % 1022,4 hPa 0,0 mm 0,0 km/h (0 Bft) S-SO 149 0 min 0,000 mm 0,0 UV-I 0 W/m 9,1 C 0,0 km/h (0 Bft)
24.09.2016 21:01 10,3 C 10,3 C 93 % 1022,4 hPa 0,0 mm 0,0 km/h (0 Bft) S-SO 149 0 min 0,000 mm 0,0 UV-I 0 W/m 9,2 C 0,0 km/h (0 Bft)
24.09.2016 21:02 10,3 C 10,3 C 93 % 1022,4 hPa 0,0 mm 0,0 km/h (0 Bft) S-SO 149 0 min 0,000 mm 0,0 UV-I 0 W/m 9,2 C 0,0 km/h (0 Bft)
24.09.2016 21:03 10,3 C 10,4 C 93 % 1022,4 hPa 0,0 mm 0,0 km/h (0 Bft) S-SO 149 0 min 0,000 mm 0,0 UV-I 0 W/m 9,2 C 0,0 km/h (0 Bft)
24.09.2016 21:04 10,3 C 10,4 C 93 % 1022,4 hPa 0,0 mm 0,0 km/h (0 Bft) S-SO 149 0 min 0,000 mm 0,0 UV-I 0 W/m 9,2 C 0,0 km/h (0 Bft)
24.09.2016 21:05 10,3 C 10,3 C 93 % 1022,5 hPa 0,0 mm 0,0 km/h (0 Bft) S-SO 149 0 min 0,000 mm 0,0 UV-I 0 W/m 9,2 C 0,0 km/h (0 Bft)
24.09.2016 21:06 10,3 C 10,3 C 93 % 1022,5 hPa 0,0 mm 0,0 km/h (0 Bft) S-SO 149 0 min 0,000 mm 0,0 UV-I 0 W/m 9,2 C 0,0 km/h (0 Bft)
24.09.2016 21:07 10,2 C 10,3 C 93 % 1022,4 hPa 0,0 mm 0,0 km/h (0 Bft) S-SO 149 0 min 0,000 mm 0,0 UV-I 0 W/m 9,1 C 0,0 km/h (0 Bft)
24.09.2016 21:08 10,2 C 10,2 C 93 % 1022,5 hPa 0,0 mm 0,0 km/h (0 Bft) S-SO 149 0 min 0,000 mm 0,0 UV-I 0 W/m 9,1 C 0,0 km/h (0 Bft)
24.09.2016 21:09 10,2 C 10,2 C 93 % 1022,4 hPa 0,0 mm 0,0 km/h (0 Bft) S-SO 149 0 min 0,000 mm 0,0 UV-I 0 W/m 9,1 C 0,0 km/h (0 Bft)
24.09.2016 21:10 10,2 C 10,2 C 94 % 1022,4 hPa 0,0 mm 0,0 km/h (0 Bft) S-SO 149 0 min 0,000 mm 0,0 UV-I 0 W/m 9,3 C 0,0 km/h (0 Bft)
24.09.2016 21:11 10,3 C 10,3 C 94 % 1022,4 hPa 0,0 mm 0,0 km/h (0 Bft) S-SO 149 0 min 0,000 mm 0,0 UV-I 0 W/m 9,4 C 0,0 km/h (0 Bft)
24.09.2016 21:12 10,3 C 10,3 C 94 % 1022,5 hPa 0,0 mm 0,0 km/h (0 Bft) S-SO 149 0 min 0,000 mm 0,0 UV-I 0 W/m 9,4 C 0,0 km/h (0 Bft)
24.09.2016 21:13 10,3 C 10,3 C 94 % 1022,5 hPa 0,0 mm 0,0 km/h (0 Bft) S-SO 149 0 min 0,000 mm 0,0 UV-I 0 W/m 9,4 C 0,0 km/h (0 Bft)
24.09.2016 21:14 10,3 C 10,3 C 94 % 1022,4 hPa 0,0 mm 0,0 km/h (0 Bft) S-SO 149 0 min 0,000 mm 0,0 UV-I 0 W/m 9,4 C 0,0 km/h (0 Bft)
24.09.2016 21:15 10,3 C 10,3 C 94 % 1022,4 hPa 0,0 mm 0,0 km/h (0 Bft) S-SO 149 0 min 0,000 mm 0,0 UV-I 0 W/m 9,4 C 0,0 km/h (0 Bft)
24.09.2016 21:16 10,3 C 10,3 C 94 % 1022,4 hPa 0,0 mm 0,0 km/h (0 Bft) S-SO 149 0 min 0,000 mm 0,0 UV-I 0 W/m 9,4 C 0,0 km/h (0 Bft)
24.09.2016 21:17 10,3 C 10,3 C 94 % 1022,4 hPa 0,0 mm 0,0 km/h (0 Bft) S-SO 149 0 min 0,000 mm 0,0 UV-I 0 W/m 9,4 C 0,0 km/h (0 Bft)
24.09.2016 21:18 10,2 C 10,3 C 94 % 1022,3 hPa 0,0 mm 0,0 km/h (0 Bft) S-SO 149 0 min 0,000 mm 0,0 UV-I 0 W/m 9,3 C 0,0 km/h (0 Bft)
24.09.2016 21:19 10,2 C 10,2 C 94 % 1022,4 hPa 0,0 mm 0,0 km/h (0 Bft) S-SO 149 0 min 0,000 mm 0,0 UV-I 0 W/m 9,3 C 0,0 km/h (0 Bft)
24.09.2016 21:20 10,1 C 10,2 C 94 % 1022,3 hPa 0,0 mm 0,0 km/h (0 Bft) S-SO 149 0 min 0,000 mm 0,0 UV-I 0 W/m 9,2 C 0,0 km/h (0 Bft)
24.09.2016 21:21 10,2 C 10,2 C 94 % 1022,4 hPa 0,0 mm 0,0 km/h (0 Bft) S-SO 149 0 min 0,000 mm 0,0 UV-I 0 W/m 9,3 C 0,0 km/h (0 Bft)
24.09.2016 21:22 10,1 C 10,2 C 94 % 1022,4 hPa 0,0 mm 0,0 km/h (0 Bft) S-SO 149 0 min 0,000 mm 0,0 UV-I 0 W/m 9,2 C 0,0 km/h (0 Bft)
24.09.2016 21:23 10,1 C 10,1 C 94 % 1022,4 hPa 0,0 mm 0,0 km/h (0 Bft) S-SO 149 0 min 0,000 mm 0,0 UV-I 0 W/m 9,2 C 0,0 km/h (0 Bft)
24.09.2016 21:24 9,9 C 10,1 C 94 % 1022,4 hPa 0,0 mm 0,0 km/h (0 Bft) S-SO 149 0 min 0,000 mm 0,0 UV-I 0 W/m 9,0 C 0,0 km/h (0 Bft)
24.09.2016 21:25 9,9 C 9,9 C 94 % 1022,4 hPa 0,0 mm 0,0 km/h (0 Bft) S-SO 149 0 min 0,000 mm 0,0 UV-I 0 W/m 9,0 C 0,0 km/h (0 Bft)
24.09.2016 21:26 9,9 C 9,9 C 94 % 1022,4 hPa 0,0 mm 0,0 km/h (0 Bft) S-SO 149 0 min 0,000 mm 0,0 UV-I 0 W/m 9,0 C 0,0 km/h (0 Bft)
24.09.2016 21:27 9,9 C 9,9 C 94 % 1022,4 hPa 0,0 mm 0,0 km/h (0 Bft) S-SO 149 0 min 0,000 mm 0,0 UV-I 0 W/m 9,0 C 0,0 km/h (0 Bft)
24.09.2016 21:28 10,0 C 10,0 C 94 % 1022,4 hPa 0,0 mm 0,0 km/h (0 Bft) S-SO 149 0 min 0,000 mm 0,0 UV-I 0 W/m 9,1 C 0,0 km/h (0 Bft)
24.09.2016 21:29 10,0 C 10,0 C 95 % 1022,4 hPa 0,0 mm 0,0 km/h (0 Bft) S-SO 149 0 min 0,000 mm 0,0 UV-I 0 W/m 9,2 C 0,0 km/h (0 Bft)
24.09.2016 21:30 10,1 C 10,1 C 95 % 1022,3 hPa 0,0 mm 0,0 km/h (0 Bft) S-SO 149 0 min 0,000 mm 0,0 UV-I 0 W/m 9,3 C 0,0 km/h (0 Bft)
24.09.2016 21:31 10,0 C 10,1 C 94 % 1022,4 hPa 0,0 mm 0,0 km/h (0 Bft) S-SO 149 0 min 0,000 mm 0,0 UV-I 0 W/m 9,1 C 0,0 km/h (0 Bft)
24.09.2016 21:32 9,9 C 10,0 C 94 % 1022,4 hPa 0,0 mm 0,0 km/h (0 Bft) S-SO 149 0 min 0,000 mm 0,0 UV-I 0 W/m 9,0 C 0,0 km/h (0 Bft)
24.09.2016 21:33 10,0 C 10,0 C 95 % 1022,4 hPa 0,0 mm 0,0 km/h (0 Bft) S-SO 149 0 min 0,000 mm 0,0 UV-I 0 W/m 9,2 C 0,0 km/h (0 Bft)
24.09.2016 21:34 10,0 C 10,0 C 95 % 1022,4 hPa 0,0 mm 0,0 km/h (0 Bft) S-SO 149 0 min 0,000 mm 0,0 UV-I 0 W/m 9,2 C 0,0 km/h (0 Bft)
24.09.2016 21:35 9,9 C 10,0 C 95 % 1022,3 hPa 0,0 mm 0,0 km/h (0 Bft) S-SO 149 0 min 0,000 mm 0,0 UV-I 0 W/m 9,1 C 0,0 km/h (0 Bft)
24.09.2016 21:36 9,8 C 9,9 C 94 % 1022,3 hPa 0,0 mm 0,0 km/h (0 Bft) S-SO 149 0 min 0,000 mm 0,0 UV-I 0 W/m 8,9 C 0,0 km/h (0 Bft)
24.09.2016 21:37 9,8 C 9,8 C 94 % 1022,3 hPa 0,0 mm 0,0 km/h (0 Bft) S-SO 149 0 min 0,000 mm 0,0 UV-I 0 W/m 8,9 C 0,0 km/h (0 Bft)
24.09.2016 21:38 9,7 C 9,8 C 94 % 1022,3 hPa 0,0 mm 0,0 km/h (0 Bft) S-SO 149 0 min 0,000 mm 0,0 UV-I 0 W/m 8,8 C 0,0 km/h (0 Bft)
24.09.2016 21:39 9,6 C 9,7 C 94 % 1022,3 hPa 0,0 mm 0,0 km/h (0 Bft) S-SO 149 0 min 0,000 mm 0,0 UV-I 0 W/m 8,7 C 0,0 km/h (0 Bft)
24.09.2016 21:40 9,6 C 9,6 C 94 % 1022,3 hPa 0,0 mm 0,0 km/h (0 Bft) S-SO 149 0 min 0,000 mm 0,0 UV-I 0 W/m 8,7 C 0,0 km/h (0 Bft)
24.09.2016 21:41 9,5 C 9,6 C 94 % 1022,3 hPa 0,0 mm 0,0 km/h (0 Bft) S-SO 149 0 min 0,000 mm 0,0 UV-I 0 W/m 8,6 C 0,0 km/h (0 Bft)
24.09.2016 21:42 9,5 C 9,5 C 94 % 1022,3 hPa 0,0 mm 0,0 km/h (0 Bft) S-SO 149 0 min 0,000 mm 0,0 UV-I 0 W/m 8,6 C 0,0 km/h (0 Bft)
24.09.2016 21:43 9,5 C 9,5 C 94 % 1022,2 hPa 0,0 mm 0,0 km/h (0 Bft) S-SO 149 0 min 0,000 mm 0,0 UV-I 0 W/m 8,6 C 0,0 km/h (0 Bft)
24.09.2016 21:44 9,5 C 9,5 C 94 % 1022,2 hPa 0,0 mm 0,0 km/h (0 Bft) S-SO 149 0 min 0,000 mm 0,0 UV-I 0 W/m 8,6 C 0,0 km/h (0 Bft)
24.09.2016 21:45 9,6 C 9,6 C 95 % 1022,2 hPa 0,0 mm 0,0 km/h (0 Bft) S-SO 149 0 min 0,000 mm 0,0 UV-I 0 W/m 8,8 C 0,0 km/h (0 Bft)
24.09.2016 21:46 9,6 C 9,6 C 95 % 1022,2 hPa 0,0 mm 0,0 km/h (0 Bft) S-SO 149 0 min 0,000 mm 0,0 UV-I 0 W/m 8,8 C 0,0 km/h (0 Bft)
24.09.2016 21:47 9,6 C 9,6 C 95 % 1022,2 hPa 0,0 mm 0,0 km/h (0 Bft) S-SO 149 0 min 0,000 mm 0,0 UV-I 0 W/m 8,8 C 0,0 km/h (0 Bft)
24.09.2016 21:48 9,6 C 9,6 C 95 % 1022,2 hPa 0,0 mm 0,0 km/h (0 Bft) S-SO 149 0 min 0,000 mm 0,0 UV-I 0 W/m 8,8 C 0,0 km/h (0 Bft)
24.09.2016 21:49 9,7 C 9,7 C 95 % 1022,2 hPa 0,0 mm 0,0 km/h (0 Bft) S-SO 149 0 min 0,000 mm 0,0 UV-I 0 W/m 8,9 C 0,0 km/h (0 Bft)
24.09.2016 21:50 9,7 C 9,7 C 95 % 1022,2 hPa 0,0 mm 0,0 km/h (0 Bft) S-SO 149 0 min 0,000 mm 0,0 UV-I 0 W/m 8,9 C 0,0 km/h (0 Bft)
24.09.2016 21:51 9,7 C 9,7 C 95 % 1022,1 hPa 0,0 mm 0,0 km/h (0 Bft) S-SO 149 0 min 0,000 mm 0,0 UV-I 0 W/m 8,9 C 0,0 km/h (0 Bft)
24.09.2016 21:52 9,7 C 9,7 C 95 % 1022,1 hPa 0,0 mm 0,0 km/h (0 Bft) S-SO 149 0 min 0,000 mm 0,0 UV-I 0 W/m 8,9 C 0,0 km/h (0 Bft)
24.09.2016 21:53 9,7 C 9,7 C 95 % 1022,1 hPa 0,0 mm 0,0 km/h (0 Bft) S-SO 149 0 min 0,000 mm 0,0 UV-I 0 W/m 8,9 C 0,0 km/h (0 Bft)
24.09.2016 21:54 9,6 C 9,7 C 95 % 1022,1 hPa 0,0 mm 0,0 km/h (0 Bft) S-SO 149 0 min 0,000 mm 0,0 UV-I 0 W/m 8,8 C 0,0 km/h (0 Bft)
24.09.2016 21:55 9,6 C 9,6 C 95 % 1022,1 hPa 0,0 mm 0,0 km/h (0 Bft) S-SO 149 0 min 0,000 mm 0,0 UV-I 0 W/m 8,8 C 0,0 km/h (0 Bft)
24.09.2016 21:56 9,6 C 9,6 C 95 % 1022,1 hPa 0,0 mm 0,0 km/h (0 Bft) S-SO 149 0 min 0,000 mm 0,0 UV-I 0 W/m 8,8 C 0,0 km/h (0 Bft)
24.09.2016 21:57 9,4 C 9,6 C 94 % 1022,1 hPa 0,0 mm 0,0 km/h (0 Bft) S-SO 149 0 min 0,000 mm 0,0 UV-I 0 W/m 8,5 C 0,0 km/h (0 Bft)
24.09.2016 21:58 9,3 C 9,4 C 94 % 1022,1 hPa 0,0 mm 0,0 km/h (0 Bft) S-SO 149 0 min 0,000 mm 0,0 UV-I 0 W/m 8,4 C 0,0 km/h (0 Bft)
24.09.2016 21:59 9,3 C 9,4 C 94 % 1022,1 hPa 0,0 mm 0,0 km/h (0 Bft) S-SO 149 0 min 0,000 mm 0,0 UV-I 0 W/m 8,4 C 0,0 km/h (0 Bft)
24.09.2016 22:00 9,2 C 9,3 C 94 % 1022,1 hPa 0,0 mm 0,0 km/h (0 Bft) S-SO 149 0 min 0,000 mm 0,0 UV-I 0 W/m 8,3 C 0,0 km/h (0 Bft)
24.09.2016 22:01 9,2 C 9,2 C 94 % 1022,1 hPa 0,0 mm 0,0 km/h (0 Bft) S-SO 149 0 min 0,000 mm 0,0 UV-I 0 W/m 8,3 C 0,0 km/h (0 Bft)
24.09.2016 22:02 9,2 C 9,2 C 94 % 1022,1 hPa 0,0 mm 0,0 km/h (0 Bft) S-SO 149 0 min 0,000 mm 0,0 UV-I 0 W/m 8,3 C 0,0 km/h (0 Bft)
24.09.2016 22:03 9,2 C 9,2 C 94 % 1022,1 hPa 0,0 mm 0,0 km/h (0 Bft) S-SO 149 0 min 0,000 mm 0,0 UV-I 0 W/m 8,3 C 0,0 km/h (0 Bft)
24.09.2016 22:04 9,2 C 9,2 C 94 % 1022,1 hPa 0,0 mm 0,0 km/h (0 Bft) S-SO 149 0 min 0,000 mm 0,0 UV-I 0 W/m 8,3 C 0,0 km/h (0 Bft)
24.09.2016 22:05 9,2 C 9,2 C 95 % 1022,1 hPa 0,0 mm 0,0 km/h (0 Bft) S-SO 149 0 min 0,000 mm 0,0 UV-I 0 W/m 8,4 C 0,0 km/h (0 Bft)
24.09.2016 22:06 9,1 C 9,2 C 95 % 1022,1 hPa 0,0 mm 0,0 km/h (0 Bft) S-SO 149 0 min 0,000 mm 0,0 UV-I 0 W/m 8,3 C 0,0 km/h (0 Bft)
24.09.2016 22:07 9,1 C 9,2 C 94 % 1022,1 hPa 0,0 mm 0,0 km/h (0 Bft) S-SO 149 0 min 0,000 mm 0,0 UV-I 0 W/m 8,2 C 0,0 km/h (0 Bft)
24.09.2016 22:08 9,1 C 9,1 C 94 % 1022,1 hPa 0,0 mm 0,0 km/h (0 Bft) S-SO 149 0 min 0,000 mm 0,0 UV-I 0 W/m 8,2 C 0,0 km/h (0 Bft)
24.09.2016 22:09 9,1 C 9,1 C 94 % 1022,1 hPa 0,0 mm 0,0 km/h (0 Bft) S-SO 149 0 min 0,000 mm 0,0 UV-I 0 W/m 8,2 C 0,0 km/h (0 Bft)
24.09.2016 22:10 9,0 C 9,1 C 95 % 1022,1 hPa 0,0 mm 0,0 km/h (0 Bft) S-SO 149 0 min 0,000 mm 0,0 UV-I 0 W/m 8,2 C 0,0 km/h (0 Bft)
24.09.2016 22:11 9,0 C 9,1 C 95 % 1022,2 hPa 0,0 mm 0,0 km/h (0 Bft) S-SO 149 0 min 0,000 mm 0,0 UV-I 0 W/m 8,2 C 0,0 km/h (0 Bft)
24.09.2016 22:12 9,1 C 9,1 C 95 % 1022,1 hPa 0,0 mm 0,0 km/h (0 Bft) S-SO 149 0 min 0,000 mm 0,0 UV-I 0 W/m 8,3 C 0,0 km/h (0 Bft)
24.09.2016 22:13 9,1 C 9,1 C 95 % 1022,1 hPa 0,0 mm 0,0 km/h (0 Bft) S-SO 149 0 min 0,000 mm 0,0 UV-I 0 W/m 8,3 C 0,0 km/h (0 Bft)
24.09.2016 22:14 9,1 C 9,1 C 95 % 1022,1 hPa 0,0 mm 0,0 km/h (0 Bft) S-SO 149 0 min 0,000 mm 0,0 UV-I 0 W/m 8,3 C 0,0 km/h (0 Bft)
24.09.2016 22:15 9,2 C 9,2 C 95 % 1022,1 hPa 0,0 mm 0,0 km/h (0 Bft) S-SO 149 0 min 0,000 mm 0,0 UV-I 0 W/m 8,4 C 0,0 km/h (0 Bft)
24.09.2016 22:16 9,2 C 9,2 C 95 % 1022,2 hPa 0,0 mm 0,0 km/h (0 Bft) S-SO 155 0 min 0,000 mm 0,0 UV-I 0 W/m 8,4 C 0,0 km/h (0 Bft)
24.09.2016 22:17 9,2 C 9,2 C 95 % 1022,1 hPa 0,0 mm 0,0 km/h (0 Bft) S-SO 155 0 min 0,000 mm 0,0 UV-I 0 W/m 8,4 C 0,0 km/h (0 Bft)
24.09.2016 22:18 9,2 C 9,2 C 95 % 1022,1 hPa 0,0 mm 0,0 km/h (0 Bft) S-SO 155 0 min 0,000 mm 0,0 UV-I 0 W/m 8,4 C 0,0 km/h (0 Bft)
24.09.2016 22:19 9,2 C 9,2 C 95 % 1022,1 hPa 0,0 mm 0,0 km/h (0 Bft) S-SO 155 0 min 0,000 mm 0,0 UV-I 0 W/m 8,4 C 0,0 km/h (0 Bft)
24.09.2016 22:20 9,3 C 9,3 C 95 % 1022,2 hPa 0,0 mm 0,0 km/h (0 Bft) S-SO 155 0 min 0,000 mm 0,0 UV-I 0 W/m 8,5 C 0,0 km/h (0 Bft)
24.09.2016 22:21 9,4 C 9,4 C 95 % 1022,1 hPa 0,0 mm 0,0 km/h (0 Bft) S-SO 155 0 min 0,000 mm 0,0 UV-I 0 W/m 8,6 C 0,0 km/h (0 Bft)
24.09.2016 22:22 9,4 C 9,4 C 95 % 1022,1 hPa 0,0 mm 0,0 km/h (0 Bft) S-SO 155 0 min 0,000 mm 0,0 UV-I 0 W/m 8,6 C 0,0 km/h (0 Bft)
24.09.2016 22:23 9,4 C 9,4 C 96 % 1022,1 hPa 0,0 mm 0,0 km/h (0 Bft) S-SO 155 0 min 0,000 mm 0,0 UV-I 0 W/m 8,8 C 0,0 km/h (0 Bft)
24.09.2016 22:24 9,4 C 9,4 C 95 % 1022,2 hPa 0,0 mm 0,0 km/h (0 Bft) S-SO 155 0 min 0,000 mm 0,0 UV-I 0 W/m 8,6 C 0,0 km/h (0 Bft)
24.09.2016 22:25 9,4 C 9,4 C 95 % 1022,2 hPa 0,0 mm 0,0 km/h (0 Bft) S-SO 155 0 min 0,000 mm 0,0 UV-I 0 W/m 8,6 C 0,0 km/h (0 Bft)
24.09.2016 22:26 9,4 C 9,4 C 95 % 1022,2 hPa 0,0 mm 0,0 km/h (0 Bft) S-SO 155 0 min 0,000 mm 0,0 UV-I 0 W/m 8,6 C 0,0 km/h (0 Bft)
24.09.2016 22:27 9,4 C 9,4 C 95 % 1022,2 hPa 0,0 mm 0,0 km/h (0 Bft) S-SO 155 0 min 0,000 mm 0,0 UV-I 0 W/m 8,6 C 0,0 km/h (0 Bft)
24.09.2016 22:28 9,3 C 9,4 C 95 % 1022,2 hPa 0,0 mm 0,0 km/h (0 Bft) S-SO 155 0 min 0,000 mm 0,0 UV-I 0 W/m 8,5 C 0,0 km/h (0 Bft)
24.09.2016 22:29 9,3 C 9,4 C 95 % 1022,1 hPa 0,0 mm 0,0 km/h (0 Bft) S-SO 155 0 min 0,000 mm 0,0 UV-I 0 W/m 8,5 C 0,0 km/h (0 Bft)
24.09.2016 22:30 9,3 C 9,3 C 95 % 1022,2 hPa 0,0 mm 0,0 km/h (0 Bft) S-SO 155 0 min 0,000 mm 0,0 UV-I 0 W/m 8,5 C 0,0 km/h (0 Bft)
24.09.2016 22:31 9,4 C 9,4 C 95 % 1022,1 hPa 0,0 mm 0,0 km/h (0 Bft) S-SO 155 0 min 0,000 mm 0,0 UV-I 0 W/m 8,6 C 0,0 km/h (0 Bft)
24.09.2016 22:32 9,4 C 9,4 C 95 % 1022,1 hPa 0,0 mm 0,0 km/h (0 Bft) S-SO 155 0 min 0,000 mm 0,0 UV-I 0 W/m 8,6 C 0,0 km/h (0 Bft)
24.09.2016 22:33 9,4 C 9,4 C 95 % 1022,1 hPa 0,0 mm 0,0 km/h (0 Bft) S-SO 155 0 min 0,000 mm 0,0 UV-I 0 W/m 8,6 C 0,0 km/h (0 Bft)
24.09.2016 22:34 9,4 C 9,4 C 95 % 1022,1 hPa 0,0 mm 0,0 km/h (0 Bft) S-SO 155 0 min 0,000 mm 0,0 UV-I 0 W/m 8,6 C 0,0 km/h (0 Bft)
24.09.2016 22:35 9,4 C 9,4 C 95 % 1022,1 hPa 0,0 mm 0,0 km/h (0 Bft) S-SO 155 0 min 0,000 mm 0,0 UV-I 0 W/m 8,6 C 0,0 km/h (0 Bft)
24.09.2016 22:36 9,4 C 9,4 C 95 % 1022,1 hPa 0,0 mm 0,0 km/h (0 Bft) S-SO 155 0 min 0,000 mm 0,0 UV-I 0 W/m 8,6 C 0,0 km/h (0 Bft)
24.09.2016 22:37 9,3 C 9,4 C 95 % 1022,1 hPa 0,0 mm 0,0 km/h (0 Bft) S-SO 155 0 min 0,000 mm 0,0 UV-I 0 W/m 8,5 C 0,0 km/h (0 Bft)
24.09.2016 22:38 9,3 C 9,3 C 95 % 1022,1 hPa 0,0 mm 0,0 km/h (0 Bft) S-SO 155 0 min 0,000 mm 0,0 UV-I 0 W/m 8,5 C 0,0 km/h (0 Bft)
24.09.2016 22:39 9,2 C 9,3 C 95 % 1022,1 hPa 0,0 mm 0,0 km/h (0 Bft) S-SO 155 0 min 0,000 mm 0,0 UV-I 0 W/m 8,4 C 0,0 km/h (0 Bft)
24.09.2016 22:40 9,2 C 9,2 C 95 % 1022,1 hPa 0,0 mm 0,0 km/h (0 Bft) S-SO 155 0 min 0,000 mm 0,0 UV-I 0 W/m 8,4 C 0,0 km/h (0 Bft)
24.09.2016 22:41 9,1 C 9,2 C 95 % 1022,1 hPa 0,0 mm 0,0 km/h (0 Bft) S-SO 155 0 min 0,000 mm 0,0 UV-I 0 W/m 8,3 C 0,0 km/h (0 Bft)
24.09.2016 22:42 9,1 C 9,1 C 94 % 1022,1 hPa 0,0 mm 0,0 km/h (0 Bft) S-SO 155 0 min 0,000 mm 0,0 UV-I 0 W/m 8,2 C 0,0 km/h (0 Bft)
24.09.2016 22:43 8,9 C 9,1 C 95 % 1022,1 hPa 0,0 mm 0,0 km/h (0 Bft) S-SO 155 0 min 0,000 mm 0,0 UV-I 0 W/m 8,1 C 0,0 km/h (0 Bft)
24.09.2016 22:44 8,9 C 8,9 C 95 % 1022,1 hPa 0,0 mm 0,0 km/h (0 Bft) S-SO 155 0 min 0,000 mm 0,0 UV-I 0 W/m 8,1 C 0,0 km/h (0 Bft)
24.09.2016 22:45 8,9 C 8,9 C 95 % 1022,1 hPa 0,0 mm 0,0 km/h (0 Bft) S-SO 155 0 min 0,000 mm 0,0 UV-I 0 W/m 8,1 C 0,0 km/h (0 Bft)
24.09.2016 22:46 8,9 C 9,0 C 95 % 1022,1 hPa 0,0 mm 0,0 km/h (0 Bft) S-SO 155 0 min 0,000 mm 0,0 UV-I 0 W/m 8,1 C 0,0 km/h (0 Bft)
24.09.2016 22:47 9,0 C 9,0 C 95 % 1022,1 hPa 0,0 mm 0,0 km/h (0 Bft) S-SO 155 0 min 0,000 mm 0,0 UV-I 0 W/m 8,2 C 0,0 km/h (0 Bft)
24.09.2016 22:48 9,1 C 9,1 C 95 % 1022,1 hPa 0,0 mm 0,0 km/h (0 Bft) S-SO 155 0 min 0,000 mm 0,0 UV-I 0 W/m 8,3 C 0,0 km/h (0 Bft)
24.09.2016 22:49 9,1 C 9,1 C 95 % 1022,0 hPa 0,0 mm 0,0 km/h (0 Bft) S-SO 155 0 min 0,000 mm 0,0 UV-I 0 W/m 8,3 C 0,0 km/h (0 Bft)
24.09.2016 22:50 9,1 C 9,1 C 95 % 1022,1 hPa 0,0 mm 0,0 km/h (0 Bft) S-SO 155 0 min 0,000 mm 0,0 UV-I 0 W/m 8,3 C 0,0 km/h (0 Bft)
24.09.2016 22:51 9,1 C 9,1 C 95 % 1022,1 hPa 0,0 mm 0,0 km/h (0 Bft) S-SO 155 0 min 0,000 mm 0,0 UV-I 0 W/m 8,3 C 0,0 km/h (0 Bft)
24.09.2016 22:52 9,1 C 9,1 C 95 % 1022,1 hPa 0,0 mm 0,0 km/h (0 Bft) S-SW 205 0 min 0,000 mm 0,0 UV-I 0 W/m 8,3 C 0,0 km/h (0 Bft)
24.09.2016 22:53 9,2 C 9,2 C 96 % 1022,1 hPa 0,0 mm 0,0 km/h (0 Bft) S-SW 205 0 min 0,000 mm 0,0 UV-I 0 W/m 8,6 C 0,0 km/h (0 Bft)
24.09.2016 22:54 9,2 C 9,2 C 96 % 1022,1 hPa 0,0 mm 0,0 km/h (0 Bft) S-SW 205 0 min 0,000 mm 0,0 UV-I 0 W/m 8,6 C 0,0 km/h (0 Bft)
24.09.2016 22:55 9,1 C 9,2 C 95 % 1022,1 hPa 0,0 mm 0,0 km/h (0 Bft) S-SW 205 0 min 0,000 mm 0,0 UV-I 0 W/m 8,3 C 0,0 km/h (0 Bft)
24.09.2016 22:56 9,0 C 9,1 C 95 % 1022,1 hPa 0,0 mm 0,0 km/h (0 Bft) S-SW 205 0 min 0,000 mm 0,0 UV-I 0 W/m 8,2 C 0,0 km/h (0 Bft)
24.09.2016 22:57 9,0 C 9,1 C 95 % 1022,1 hPa 0,0 mm 0,0 km/h (0 Bft) S-SW 205 0 min 0,000 mm 0,0 UV-I 0 W/m 8,2 C 0,0 km/h (0 Bft)
24.09.2016 22:58 8,9 C 9,0 C 95 % 1022,1 hPa 0,0 mm 0,0 km/h (0 Bft) S-SW 205 0 min 0,000 mm 0,0 UV-I 0 W/m 8,1 C 0,0 km/h (0 Bft)
24.09.2016 22:59 8,9 C 8,9 C 95 % 1022,1 hPa 0,0 mm 0,0 km/h (0 Bft) S-SW 205 0 min 0,000 mm 0,0 UV-I 0 W/m 8,1 C 0,0 km/h (0 Bft)
24.09.2016 23:00 8,8 C 8,9 C 95 % 1022,0 hPa 0,0 mm 0,0 km/h (0 Bft) S-SW 205 0 min 0,000 mm 0,0 UV-I 0 W/m 8,0 C 0,0 km/h (0 Bft)
24.09.2016 23:01 8,7 C 8,8 C 95 % 1022,1 hPa 0,0 mm 0,0 km/h (0 Bft) S-SW 205 0 min 0,000 mm 0,0 UV-I 0 W/m 7,9 C 0,0 km/h (0 Bft)
24.09.2016 23:02 8,7 C 8,7 C 95 % 1022,1 hPa 0,0 mm 0,0 km/h (0 Bft) S-SW 205 0 min 0,000 mm 0,0 UV-I 0 W/m 7,9 C 0,0 km/h (0 Bft)
24.09.2016 23:03 8,7 C 8,7 C 95 % 1022,1 hPa 0,0 mm 0,0 km/h (0 Bft) S-SW 205 0 min 0,000 mm 0,0 UV-I 0 W/m 7,9 C 0,0 km/h (0 Bft)
24.09.2016 23:04 8,7 C 8,7 C 95 % 1022,1 hPa 0,0 mm 0,0 km/h (0 Bft) S-SW 205 0 min 0,000 mm 0,0 UV-I 0 W/m 7,9 C 0,0 km/h (0 Bft)
24.09.2016 23:05 8,7 C 8,7 C 95 % 1022,1 hPa 0,0 mm 0,0 km/h (0 Bft) S-SW 205 0 min 0,000 mm 0,0 UV-I 0 W/m 7,9 C 0,0 km/h (0 Bft)
24.09.2016 23:06 8,7 C 8,7 C 95 % 1022,1 hPa 0,0 mm 0,0 km/h (0 Bft) S-SW 205 0 min 0,000 mm 0,0 UV-I 0 W/m 7,9 C 0,0 km/h (0 Bft)
24.09.2016 23:07 8,6 C 8,7 C 95 % 1022,1 hPa 0,0 mm 0,0 km/h (0 Bft) S-SW 205 0 min 0,000 mm 0,0 UV-I 0 W/m 7,8 C 0,0 km/h (0 Bft)
24.09.2016 23:08 8,6 C 8,6 C 95 % 1022,0 hPa 0,0 mm 0,0 km/h (0 Bft) S-SW 205 0 min 0,000 mm 0,0 UV-I 0 W/m 7,8 C 0,0 km/h (0 Bft)
24.09.2016 23:09 8,6 C 8,6 C 95 % 1022,1 hPa 0,0 mm 0,0 km/h (0 Bft) S-SW 205 0 min 0,000 mm 0,0 UV-I 0 W/m 7,8 C 0,0 km/h (0 Bft)
24.09.2016 23:10 8,6 C 8,6 C 95 % 1022,1 hPa 0,0 mm 0,0 km/h (0 Bft) S-SW 205 0 min 0,000 mm 0,0 UV-I 0 W/m 7,8 C 0,0 km/h (0 Bft)
24.09.2016 23:11 8,6 C 8,6 C 95 % 1022,1 hPa 0,0 mm 0,0 km/h (0 Bft) S-SW 205 0 min 0,000 mm 0,0 UV-I 0 W/m 7,8 C 0,0 km/h (0 Bft)
24.09.2016 23:12 8,6 C 8,6 C 95 % 1022,1 hPa 0,0 mm 0,0 km/h (0 Bft) S-SW 205 0 min 0,000 mm 0,0 UV-I 0 W/m 7,8 C 0,0 km/h (0 Bft)
24.09.2016 23:13 8,6 C 8,6 C 95 % 1022,1 hPa 0,0 mm 0,0 km/h (0 Bft) S-SW 205 0 min 0,000 mm 0,0 UV-I 0 W/m 7,8 C 0,0 km/h (0 Bft)
24.09.2016 23:14 8,6 C 8,6 C 95 % 1022,1 hPa 0,0 mm 0,0 km/h (0 Bft) S-SW 205 0 min 0,000 mm 0,0 UV-I 0 W/m 7,8 C 0,0 km/h (0 Bft)
24.09.2016 23:15 8,6 C 8,6 C 95 % 1022,1 hPa 0,0 mm 0,0 km/h (0 Bft) S-SW 205 0 min 0,000 mm 0,0 UV-I 0 W/m 7,8 C 0,0 km/h (0 Bft)
24.09.2016 23:16 8,6 C 8,6 C 96 % 1022,1 hPa 0,0 mm 0,0 km/h (0 Bft) S-SW 205 0 min 0,000 mm 0,0 UV-I 0 W/m 8,0 C 0,0 km/h (0 Bft)
24.09.2016 23:17 8,7 C 8,7 C 96 % 1022,1 hPa 0,0 mm 0,0 km/h (0 Bft) S-SW 205 0 min 0,000 mm 0,0 UV-I 0 W/m 8,1 C 0,0 km/h (0 Bft)
24.09.2016 23:18 8,7 C 8,7 C 96 % 1022,1 hPa 0,0 mm 0,0 km/h (0 Bft) S-SW 205 0 min 0,000 mm 0,0 UV-I 0 W/m 8,1 C 0,0 km/h (0 Bft)
24.09.2016 23:19 8,7 C 8,7 C 96 % 1022,1 hPa 0,0 mm 0,0 km/h (0 Bft) S-SW 205 0 min 0,000 mm 0,0 UV-I 0 W/m 8,1 C 0,0 km/h (0 Bft)
24.09.2016 23:20 8,8 C 8,8 C 96 % 1022,1 hPa 0,0 mm 0,0 km/h (0 Bft) S-SW 205 0 min 0,000 mm 0,0 UV-I 0 W/m 8,2 C 0,0 km/h (0 Bft)
24.09.2016 23:21 8,9 C 8,9 C 96 % 1022,1 hPa 0,0 mm 0,0 km/h (0 Bft) S-SW 205 0 min 0,000 mm 0,0 UV-I 0 W/m 8,3 C 0,0 km/h (0 Bft)
24.09.2016 23:22 8,9 C 8,9 C 96 % 1022,1 hPa 0,0 mm 0,0 km/h (0 Bft) S-SW 205 0 min 0,000 mm 0,0 UV-I 0 W/m 8,3 C 0,0 km/h (0 Bft)
24.09.2016 23:23 8,9 C 9,0 C 96 % 1022,1 hPa 0,0 mm 0,0 km/h (0 Bft) S-SW 205 0 min 0,000 mm 0,0 UV-I 0 W/m 8,3 C 0,0 km/h (0 Bft)
24.09.2016 23:24 9,0 C 9,0 C 96 % 1022,1 hPa 0,0 mm 0,0 km/h (0 Bft) S-SW 205 0 min 0,000 mm 0,0 UV-I 0 W/m 8,4 C 0,0 km/h (0 Bft)
24.09.2016 23:25 8,9 C 9,0 C 96 % 1022,1 hPa 0,0 mm 0,0 km/h (0 Bft) S-SW 205 0 min 0,000 mm 0,0 UV-I 0 W/m 8,3 C 0,0 km/h (0 Bft)
24.09.2016 23:26 8,9 C 8,9 C 96 % 1022,1 hPa 0,0 mm 0,0 km/h (0 Bft) S-SW 205 0 min 0,000 mm 0,0 UV-I 0 W/m 8,3 C 0,0 km/h (0 Bft)
24.09.2016 23:27 8,9 C 8,9 C 96 % 1022,1 hPa 0,0 mm 0,0 km/h (0 Bft) S-SW 205 0 min 0,000 mm 0,0 UV-I 0 W/m 8,3 C 0,0 km/h (0 Bft)
24.09.2016 23:28 8,9 C 8,9 C 96 % 1022,1 hPa 0,0 mm 0,0 km/h (0 Bft) S-SW 205 0 min 0,000 mm 0,0 UV-I 0 W/m 8,3 C 0,0 km/h (0 Bft)
24.09.2016 23:29 8,9 C 8,9 C 96 % 1022,1 hPa 0,0 mm 0,0 km/h (0 Bft) S-SW 205 0 min 0,000 mm 0,0 UV-I 0 W/m 8,3 C 0,0 km/h (0 Bft)
24.09.2016 23:30 8,9 C 8,9 C 96 % 1022,1 hPa 0,0 mm 0,0 km/h (0 Bft) S-SW 205 0 min 0,000 mm 0,0 UV-I 0 W/m 8,3 C 0,0 km/h (0 Bft)
24.09.2016 23:31 8,9 C 8,9 C 96 % 1022,1 hPa 0,0 mm 0,0 km/h (0 Bft) S-SW 205 0 min 0,000 mm 0,0 UV-I 0 W/m 8,3 C 0,0 km/h (0 Bft)
24.09.2016 23:32 8,9 C 8,9 C 96 % 1022,1 hPa 0,0 mm 0,0 km/h (0 Bft) S-SW 205 0 min 0,000 mm 0,0 UV-I 0 W/m 8,3 C 0,0 km/h (0 Bft)
24.09.2016 23:33 9,0 C 9,0 C 96 % 1022,1 hPa 0,0 mm 0,0 km/h (0 Bft) S-SW 205 0 min 0,000 mm 0,0 UV-I 0 W/m 8,4 C 0,0 km/h (0 Bft)
24.09.2016 23:34 9,0 C 9,1 C 96 % 1022,2 hPa 0,0 mm 0,0 km/h (0 Bft) S-SW 205 0 min 0,000 mm 0,0 UV-I 0 W/m 8,4 C 0,0 km/h (0 Bft)
24.09.2016 23:35 9,1 C 9,1 C 96 % 1022,2 hPa 0,0 mm 0,0 km/h (0 Bft) S-SW 205 0 min 0,000 mm 0,0 UV-I 0 W/m 8,5 C 0,0 km/h (0 Bft)
24.09.2016 23:36 9,1 C 9,1 C 96 % 1022,1 hPa 0,0 mm 0,0 km/h (0 Bft) S-SW 205 0 min 0,000 mm 0,0 UV-I 0 W/m 8,5 C 0,0 km/h (0 Bft)
24.09.2016 23:37 9,1 C 9,1 C 96 % 1022,1 hPa 0,0 mm 0,0 km/h (0 Bft) S-SW 205 0 min 0,000 mm 0,0 UV-I 0 W/m 8,5 C 0,0 km/h (0 Bft)
24.09.2016 23:38 9,1 C 9,1 C 96 % 1022,1 hPa 0,0 mm 0,0 km/h (0 Bft) S-SW 205 0 min 0,000 mm 0,0 UV-I 0 W/m 8,5 C 0,0 km/h (0 Bft)
24.09.2016 23:39 9,0 C 9,1 C 96 % 1022,0 hPa 0,0 mm 0,0 km/h (0 Bft) S-SW 205 0 min 0,000 mm 0,0 UV-I 0 W/m 8,4 C 0,0 km/h (0 Bft)
24.09.2016 23:40 8,9 C 9,0 C 96 % 1022,2 hPa 0,0 mm 0,0 km/h (0 Bft) S-SW 205 0 min 0,000 mm 0,0 UV-I 0 W/m 8,3 C 0,0 km/h (0 Bft)
24.09.2016 23:41 8,9 C 9,0 C 96 % 1022,1 hPa 0,0 mm 0,0 km/h (0 Bft) S-SW 205 0 min 0,000 mm 0,0 UV-I 0 W/m 8,3 C 0,0 km/h (0 Bft)
24.09.2016 23:42 8,9 C 8,9 C 96 % 1022,1 hPa 0,0 mm 0,0 km/h (0 Bft) S-SW 205 0 min 0,000 mm 0,0 UV-I 0 W/m 8,3 C 0,0 km/h (0 Bft)
24.09.2016 23:43 8,9 C 8,9 C 96 % 1022,1 hPa 0,0 mm 0,0 km/h (0 Bft) S-SW 205 0 min 0,000 mm 0,0 UV-I 0 W/m 8,3 C 0,0 km/h (0 Bft)
24.09.2016 23:44 8,9 C 8,9 C 96 % 1022,0 hPa 0,0 mm 0,0 km/h (0 Bft) S-SW 205 0 min 0,000 mm 0,0 UV-I 0 W/m 8,3 C 0,0 km/h (0 Bft)
24.09.2016 23:45 9,0 C 9,0 C 96 % 1022,1 hPa 0,0 mm 0,0 km/h (0 Bft) S-SW 205 0 min 0,000 mm 0,0 UV-I 0 W/m 8,4 C 0,0 km/h (0 Bft)
24.09.2016 23:46 9,0 C 9,0 C 96 % 1022,1 hPa 0,0 mm 0,0 km/h (0 Bft) S-SW 205 0 min 0,000 mm 0,0 UV-I 0 W/m 8,4 C 0,0 km/h (0 Bft)
24.09.2016 23:47 9,0 C 9,0 C 96 % 1022,1 hPa 0,0 mm 0,0 km/h (0 Bft) S-SW 205 0 min 0,000 mm 0,0 UV-I 0 W/m 8,4 C 0,0 km/h (0 Bft)
24.09.2016 23:48 8,9 C 9,0 C 96 % 1022,1 hPa 0,0 mm 0,0 km/h (0 Bft) S-SW 205 0 min 0,000 mm 0,0 UV-I 0 W/m 8,3 C 0,0 km/h (0 Bft)
24.09.2016 23:49 8,9 C 8,9 C 96 % 1022,1 hPa 0,0 mm 0,0 km/h (0 Bft) S-SW 205 0 min 0,000 mm 0,0 UV-I 0 W/m 8,3 C 0,0 km/h (0 Bft)
24.09.2016 23:50 8,9 C 8,9 C 96 % 1022,1 hPa 0,0 mm 0,0 km/h (0 Bft) S-SW 205 0 min 0,000 mm 0,0 UV-I 0 W/m 8,3 C 0,0 km/h (0 Bft)
24.09.2016 23:51 8,9 C 8,9 C 96 % 1022,1 hPa 0,0 mm 0,0 km/h (0 Bft) S-SW 205 0 min 0,000 mm 0,0 UV-I 0 W/m 8,3 C 0,0 km/h (0 Bft)
24.09.2016 23:52 8,9 C 8,9 C 96 % 1022,0 hPa 0,0 mm 0,0 km/h (0 Bft) S-SW 205 0 min 0,000 mm 0,0 UV-I 0 W/m 8,3 C 0,0 km/h (0 Bft)
24.09.2016 23:53 8,9 C 8,9 C 96 % 1022,0 hPa 0,0 mm 0,0 km/h (0 Bft) S-SW 205 0 min 0,000 mm 0,0 UV-I 0 W/m 8,3 C 0,0 km/h (0 Bft)
24.09.2016 23:54 8,7 C 8,9 C 96 % 1022,0 hPa 0,0 mm 0,0 km/h (0 Bft) S-SW 205 0 min 0,000 mm 0,0 UV-I 0 W/m 8,1 C 0,0 km/h (0 Bft)
24.09.2016 23:55 8,7 C 8,8 C 95 % 1022,1 hPa 0,0 mm 0,0 km/h (0 Bft) S-SW 205 0 min 0,000 mm 0,0 UV-I 0 W/m 7,9 C 0,0 km/h (0 Bft)
24.09.2016 23:56 8,7 C 8,7 C 95 % 1022,0 hPa 0,0 mm 0,0 km/h (0 Bft) S-SW 205 0 min 0,000 mm 0,0 UV-I 0 W/m 7,9 C 0,0 km/h (0 Bft)
24.09.2016 23:57 8,7 C 8,7 C 96 % 1022,0 hPa 0,0 mm 0,0 km/h (0 Bft) S-SW 205 0 min 0,000 mm 0,0 UV-I 0 W/m 8,1 C 0,0 km/h (0 Bft)
24.09.2016 23:58 8,7 C 8,7 C 96 % 1021,9 hPa 0,0 mm 0,0 km/h (0 Bft) S-SW 205 0 min 0,000 mm 0,0 UV-I 0 W/m 8,1 C 0,0 km/h (0 Bft)
24.09.2016 23:59 8,6 C 8,7 C 96 % 1021,9 hPa 0,0 mm 0,0 km/h (0 Bft) S-SW 205 0 min 0,000 mm 0,0 UV-I 0 W/m 8,0 C 0,0 km/h (0 Bft)
_ Min-Zeit 06:54 06:55 17:01 23:59 - 23:59 - - - - - - 06:54 23:59
Minimum _ 4,8 C 4,9 C 67 % 1021,9 hPa - 0,0 km/h (0 Bft) - - - - - - 4,2 C 0,0 km/h (0 Bft)
_ Max-Zeit 15:42 15:43 09:05 01:02 23:59 16:05 - - 18:59 13:01 13:40 12:54 15:07 16:27
Maximum _ 18,6 C 18,6 C 97 % 1026,4 hPa 0,0 mm 10,4 km/h
N-NW (2 Bft)
- - 1 min 0,356 mm 4,2 UV-I 656 W/m 13,7 C 16,1 km/h
N (3 Bft)
Durchschnitt _ 11,3 C 11,3 C 87 % 1024,4 hPa #0,0 mm 1,7 km/h (1 Bft) NO - #6:43 h #2,159 mm 3,0 UV-I 162 W/m 9,1 C 2,9 km/h (1 Bft)